GFSSE_sfc_dewp_000.txt.gz
Dewpoint
66 71 74 73 73 71 70 68 67 65 64 65 64 65 65 63 62 62 63 61 63 61 60 62 63 65 67 67 66 65 64 62 60 61 61 63 63 63 62 65 63 62 63
68 72 74 73 72 71 70 68 67 65 63 63 62 62 62 61 61 61 62 61 60 60 59 60 62 62 62 64 63 63 63 61 60 60 62 62 64 63 63 63 61 62 64
70 72 72 73 72 72 70 68 67 66 63 62 62 61 62 61 63 63 63 61 61 60 59 59 59 58 60 61 62 62 62 61 60 61 62 61 61 63 63 63 63 62 63
71 71 71 73 73 72 70 68 67 66 64 62 61 61 60 62 62 61 62 60 60 60 59 59 59 57 58 60 61 61 61 61 62 63 61 61 60 61 64 63 63 62 62
70 71 72 74 73 72 70 68 67 66 64 62 62 61 63 64 65 63 63 61 62 62 60 59 60 60 60 60 59 59 61 62 64 64 61 60 60 59 63 63 62 63 62
69 70 73 74 74 73 71 69 68 67 65 63 62 63 63 66 66 66 64 66 65 63 61 60 60 61 62 63 63 63 61 61 65 62 61 59 59 60 60 62 63 62 62
67 70 73 74 74 72 71 70 68 67 66 64 64 63 65 65 66 67 66 66 64 63 61 61 61 61 61 63 64 65 64 65 62 60 59 57 56 61 62 61 61 62 63
69 71 72 73 73 72 71 71 70 68 66 65 65 64 65 64 65 67 66 65 64 63 62 63 63 63 63 62 63 64 66 66 63 61 59 58 59 62 62 61 63 62 62
70 71 71 72 72 72 72 71 71 70 69 67 66 65 65 65 63 64 67 65 64 63 63 64 64 63 63 64 64 64 66 66 64 62 61 59 61 63 63 63 63 63 63
70 71 70 70 71 70 70 71 70 70 70 69 68 67 67 66 66 65 68 66 65 65 65 64 63 64 64 65 65 66 66 65 63 62 62 61 64 65 65 64 63 63 63
67 69 70 69 69 70 69 69 69 69 69 69 67 66 65 62 61 63 65 65 67 65 65 65 65 66 67 66 66 66 65 63 61 61 61 63 64 65 65 64 64 64 63
62 65 67 68 68 69 68 67 67 67 67 66 65 63 63 62 61 60 63 65 66 66 67 66 66 67 67 64 63 64 61 61 60 61 60 63 64 65 65 66 67 67 66
60 62 65 67 67 67 66 66 65 65 65 65 64 63 63 60 59 60 60 61 61 62 62 63 62 61 61 62 61 61 60 59 60 60 61 63 65 65 66 66 67 67 66
60 61 62 65 66 65 65 65 64 64 63 63 63 63 61 60 60 60 60 60 61 62 62 62 61 58 55 55 56 56 54 56 59 60 60 63 64 62 63 62 65 66 67
58 61 62 63 64 64 64 63 62 62 62 61 60 60 60 61 61 61 61 61 60 60 56 50 48 48 47 48 47 47 48 51 52 54 56 59 60 61 62 61 62 63 64
56 60 62 63 64 64 63 63 63 61 60 60 60 61 61 61 61 59 46 47 49 48 46 44 43 43 42 43 42 43 43 44 45 46 48 51 58 59 56 55 56 59 62
55 60 61 63 64 64 64 63 61 61 60 59 58 54 55 54 47 44 43 43 45 44 42 40 38 37 39 39 38 39 38 37 41 40 44 44 47 53 54 52 56 51 52
52 54 58 63 64 64 63 62 60 58 53 44 41 42 42 43 43 41 40 40 42 40 37 36 36 34 36 36 35 34 35 36 37 39 40 36 41 42 45 51 46 45 46
52 52 54 63 63 62 58 52 45 42 42 40 40 39 38 39 39 38 37 37 38 36 34 34 31 33 34 33 32 34 30 34 38 31 30 33 39 38 37 45 47 45 45
52 53 55 62 57 47 44 42 41 39 38 37 36 36 35 34 34 35 33 34 35 33 32 31 29 31 33 33 33 30 29 36 33 21 27 32 32 28 34 31 32 33 43
55 55 58 54 45 44 43 41 38 38 36 34 32 31 30 30 31 31 32 31 33 31 29 30 31 31 32 34 32 29 34 33 26 19 29 22 29 20 30 24 31 29 31
55 56 56 50 45 45 44 43 40 38 37 34 31 27 26 27 29 29 29 30 30 30 27 28 30 30 32 33 30 31 29 29 26 21 25 25 21 26 26 24 29 30 28
53 53 52 49 47 46 43 41 40 39 38 35 31 27 25 26 28 28 28 28 29 29 27 27 27 27 28 30 29 29 27 25 24 27 22 24 20 27 23 29 26 27 25
49 49 48 47 46 44 41 39 36 36 36 37 34 28 25 24 26 26 26 25 25 27 24 24 24 26 26 25 29 29 29 29 24 21 25 20 25 20 25 27 28 28 20
47 47 47 46 44 44 42 39 39 38 38 36 31 25 22 23 24 24 24 23 23 25 22 21 22 21 25 24 26 28 25 26 26 24 18 21 19 20 24 25 27 23 22
43 43 43 43 42 42 40 39 38 36 33 31 28 27 25 24 24 21 21 20 20 20 21 22 20 19 20 22 23 23 25 24 20 20 19 19 17 19 22 23 24 22 24

GFSSE_sfc_dewp_003.txt.gz
Dewpoint
65 68 74 73 72 71 69 67 66 65 65 64 63 65 65 65 65 64 64 63 62 61 59 61 63 64 66 67 66 64 64 62 59 61 61 61 63 64 63 62 65 62 63
66 70 74 73 72 71 69 67 66 65 65 63 62 64 62 61 60 62 63 62 60 60 59 60 61 60 61 63 63 63 64 63 61 61 62 62 63 63 63 65 61 61 64
68 72 73 74 72 71 70 68 66 65 63 63 61 61 61 61 63 62 63 62 61 60 58 58 59 59 60 61 61 62 62 62 61 62 62 61 60 63 63 64 62 62 63
70 72 71 74 72 71 70 68 67 65 63 62 62 62 62 63 63 61 61 59 59 60 59 58 59 58 58 59 61 61 62 61 62 64 61 60 60 62 63 62 63 63 62
70 71 71 73 73 72 70 68 67 66 64 62 62 62 63 63 64 64 60 61 62 61 60 59 60 61 61 61 61 60 59 60 64 64 61 60 60 60 62 62 63 62 63
69 70 72 73 73 72 71 69 67 66 64 62 62 62 62 65 66 65 65 66 65 63 61 60 60 61 62 63 64 64 64 63 64 62 61 60 60 61 62 61 62 63 62
68 70 72 74 74 73 71 69 68 66 65 63 61 63 63 65 65 67 67 65 64 63 61 61 61 62 62 62 63 64 65 66 63 60 59 59 57 62 61 62 62 62 61
68 70 73 73 73 73 71 70 69 67 65 63 64 63 64 63 65 66 66 66 64 63 63 63 63 64 64 63 63 63 65 66 64 61 60 60 61 63 63 62 62 62 63
69 71 71 72 72 71 71 71 70 69 68 66 66 65 65 65 63 64 67 66 65 64 64 64 65 64 63 64 64 65 66 66 64 62 62 61 63 65 65 64 64 63 63
70 70 71 71 71 70 70 71 70 70 69 68 67 67 67 66 66 64 68 66 65 65 66 65 64 65 65 65 65 66 66 66 63 61 62 62 64 65 66 65 65 65 65
69 70 70 70 70 69 70 69 70 70 69 69 67 66 65 61 61 62 65 66 66 66 65 65 66 66 67 67 66 66 65 62 60 61 61 63 65 66 66 66 66 66 65
67 68 69 69 68 68 68 67 67 67 67 66 65 63 62 61 60 60 62 65 66 66 67 66 66 66 64 63 62 62 60 59 59 60 61 63 65 65 64 65 66 66 66
66 66 68 68 67 67 67 66 65 65 65 64 63 62 62 60 59 60 60 60 60 62 62 62 62 60 56 56 55 54 53 55 56 58 60 63 61 60 60 62 64 65 66
60 63 66 66 66 66 65 65 64 64 63 63 63 62 61 59 59 59 60 61 61 61 61 55 48 46 44 45 44 44 44 47 49 53 55 58 59 59 60 60 60 61 65
58 61 63 65 66 66 64 64 63 63 63 62 62 62 60 60 60 60 59 54 50 49 46 43 42 39 39 40 38 39 39 42 41 45 49 54 57 55 54 55 58 59 58
47 60 62 64 65 64 64 63 62 61 62 60 60 60 61 61 57 45 45 46 45 43 41 38 36 36 36 36 33 35 35 33 37 40 44 43 52 50 52 55 52 51 51
53 60 62 64 64 63 63 62 61 60 60 59 57 56 54 46 43 43 43 43 41 38 36 32 31 34 33 31 30 32 34 31 37 35 36 36 42 47 49 47 47 47 49
54 60 63 64 64 63 63 61 58 56 47 43 43 43 42 42 41 39 39 39 36 33 33 31 32 31 33 31 30 32 32 30 35 25 29 32 39 35 41 41 44 43 48
53 58 61 64 64 63 57 48 45 42 41 40 40 40 39 38 36 35 37 36 33 32 32 30 28 30 32 29 29 32 30 30 32 20 25 27 33 28 34 35 41 41 43
52 53 61 63 60 49 44 42 40 39 37 37 36 35 34 34 32 32 33 33 31 31 31 29 27 28 32 31 31 30 29 34 28 21 26 22 26 22 33 26 33 33 40
53 52 60 56 47 46 43 40 38 37 34 32 31 30 30 30 31 30 32 31 31 28 28 27 29 28 29 31 31 30 32 31 27 21 27 23 23 24 27 25 29 29 32
54 54 54 47 45 45 44 40 38 35 34 30 29 27 28 29 29 29 30 29 27 26 24 25 27 27 27 30 29 30 27 27 27 18 23 26 21 27 22 24 27 28 30
54 54 47 45 45 44 40 38 37 34 33 29 27 26 26 27 28 28 27 27 26 26 25 24 24 23 23 25 28 24 19 23 23 25 18 22 16 24 20 27 27 27 28
53 53 47 46 46 41 39 36 32 30 29 32 29 26 25 25 26 26 25 24 24 24 21 21 22 22 24 22 26 24 25 26 23 21 23 16 23 18 21 26 26 29 25
50 50 47 47 44 40 38 36 35 35 36 33 27 23 22 23 23 23 22 21 21 23 20 19 19 18 22 21 23 24 23 24 24 24 14 17 18 18 16 20 27 22 25
48 48 47 45 43 41 38 38 36 36 33 28 25 24 23 23 23 20 20 19 18 19 19 20 18 17 18 19 20 20 22 21 20 19 18 16 15 13 18 17 20 24 23

GFSSE_sfc_dewp_006.txt.gz
Dewpoint
64 67 74 72 72 70 70 67 66 65 65 64 63 65 66 67 66 65 63 62 62 61 60 61 64 64 67 67 67 65 64 62 62 62 62 62 62 63 64 63 62 63 61
64 68 74 73 72 71 69 67 66 66 65 63 63 64 64 62 62 62 63 62 61 61 59 59 61 61 62 63 64 64 64 64 63 62 62 62 62 62 63 63 64 61 61
65 69 73 73 72 71 69 68 66 65 65 62 62 63 61 61 62 62 62 62 61 60 59 58 59 58 60 61 61 62 62 62 62 63 63 60 60 62 62 63 62 61 61
68 71 72 74 72 71 69 68 67 65 63 63 61 61 62 61 63 61 63 59 59 60 59 58 59 59 58 58 59 60 60 61 62 64 61 60 60 62 62 62 62 62 62
70 71 72 74 72 71 70 68 67 66 63 62 62 61 62 62 64 63 60 61 61 61 60 59 60 61 62 62 62 62 61 60 63 63 60 59 59 61 62 61 63 63 62
70 70 72 73 73 73 71 69 68 66 64 62 62 62 62 64 65 65 65 66 66 63 61 60 60 61 61 62 63 64 65 64 65 60 60 60 60 61 61 62 62 60 62
68 69 72 73 73 72 71 69 68 66 65 63 62 62 63 64 64 67 66 65 64 63 61 61 61 62 63 63 63 63 64 66 63 60 60 59 59 63 62 61 62 61 61
68 70 72 73 73 73 71 70 69 67 65 63 62 63 63 64 65 67 67 66 64 63 63 63 64 64 64 63 64 64 65 66 64 61 61 60 62 65 65 64 63 63 63
68 70 71 72 72 72 71 70 70 68 66 64 65 65 65 65 63 65 67 66 64 64 64 65 65 64 64 65 65 66 67 66 64 62 61 61 63 65 66 65 65 65 64
68 70 70 70 71 70 69 70 70 69 68 67 67 66 66 66 66 65 67 66 65 65 65 65 65 66 66 66 66 66 66 65 61 61 61 61 64 66 66 66 66 66 66
68 69 71 70 70 69 69 69 70 69 68 68 66 66 64 61 60 61 64 65 65 65 65 65 66 67 65 64 64 64 62 60 58 59 60 62 65 65 64 64 65 66 66
66 67 69 68 68 68 70 68 67 68 67 66 65 63 61 59 59 60 62 64 65 65 64 65 64 61 56 57 55 54 53 53 54 55 58 61 61 61 60 60 62 64 63
66 67 68 68 68 67 67 66 65 65 65 64 63 62 61 60 58 59 60 60 60 62 62 59 49 47 44 44 44 43 44 46 48 49 52 57 58 58 58 59 60 61 63
62 65 67 67 67 66 66 65 65 64 64 63 62 61 61 59 59 59 60 60 60 60 46 45 42 39 38 36 36 36 38 38 38 43 48 55 55 55 56 57 59 59 58
58 61 65 66 66 66 65 64 64 63 63 62 62 62 61 59 59 59 52 48 46 43 41 37 35 35 32 32 30 33 34 30 36 40 43 51 50 53 56 53 54 53 53
47 57 63 65 66 65 65 63 63 62 62 61 61 60 60 61 53 46 46 44 41 40 35 32 32 33 30 29 26 30 33 29 36 32 36 39 45 49 49 49 49 49 52
41 47 61 64 65 65 64 63 63 63 61 60 60 61 59 46 43 44 42 38 36 33 30 29 29 32 29 27 25 29 31 29 27 27 28 35 37 42 43 45 46 47 49
48 56 61 63 64 64 63 62 62 61 57 51 49 47 43 41 40 39 38 35 32 31 30 28 29 29 29 27 26 28 30 29 25 21 25 32 30 30 36 41 42 43 45
51 58 61 63 63 63 59 55 54 47 50 43 42 42 39 36 36 36 34 32 30 31 29 27 27 28 30 26 24 28 29 29 25 21 24 27 23 27 30 33 37 38 40
53 59 62 63 62 52 48 47 46 42 39 38 37 36 33 32 32 33 31 29 29 29 27 25 25 26 31 29 28 28 29 33 26 21 26 24 22 26 28 24 29 31 37
52 58 61 60 52 49 48 45 44 42 35 32 31 31 30 30 30 31 31 29 27 27 24 24 26 25 25 30 28 27 30 30 30 27 22 24 21 23 24 23 23 28 30
52 56 59 54 49 50 49 44 39 35 32 30 30 29 29 29 29 28 28 27 25 24 23 23 24 23 24 27 24 27 23 23 24 16 22 23 18 24 22 20 22 23 27
52 54 53 49 48 47 39 37 33 29 29 28 27 27 27 27 27 26 25 25 24 25 23 23 22 21 22 22 27 21 14 17 24 24 21 21 15 22 20 23 21 21 27
52 52 47 46 46 41 40 36 32 29 26 28 26 26 26 26 25 25 24 23 23 23 20 20 19 21 22 20 23 22 22 23 18 19 20 14 19 15 20 20 18 24 26
52 48 47 47 44 40 41 36 33 29 31 29 25 23 22 22 23 23 21 20 21 22 19 18 18 17 21 20 21 22 21 22 23 20 13 16 16 16 16 17 21 17 19
51 48 47 47 42 40 38 34 32 31 27 24 23 23 22 22 22 20 19 18 18 18 18 18 17 16 18 18 19 19 21 19 20 18 18 15 15 15 16 16 18 22 23

GFSSE_sfc_dewp_009.txt.gz
Dewpoint
64 67 74 72 71 70 69 68 66 66 65 64 64 66 67 68 67 65 64 62 62 61 60 62 64 64 67 68 67 67 65 63 63 63 62 62 61 62 63 63 63 60 63
64 68 74 73 71 70 69 68 67 66 65 63 63 66 66 66 65 64 64 62 61 60 59 59 62 61 63 63 65 65 64 64 62 63 63 63 61 61 62 63 64 59 61
65 69 71 73 72 71 69 68 67 66 64 62 64 63 61 61 61 62 62 61 61 60 60 59 60 59 60 62 62 62 62 62 61 62 63 59 59 62 62 62 63 61 60
66 69 71 74 72 71 69 68 66 65 65 62 62 62 61 61 63 61 62 61 59 60 60 59 60 61 59 58 59 58 59 59 60 63 60 60 59 61 62 63 61 63 62
67 69 71 73 73 71 70 68 67 65 64 63 63 62 62 62 63 62 62 60 60 61 61 60 60 61 62 62 63 63 63 62 62 61 60 60 60 59 62 62 62 64 62
68 70 72 73 73 72 71 69 68 66 64 63 62 62 62 63 64 64 65 66 65 63 61 60 61 62 62 62 62 63 64 65 65 62 62 62 62 62 62 60 62 62 60
69 71 71 73 73 72 71 69 68 66 65 63 63 62 62 64 65 66 65 65 64 63 61 62 63 64 64 64 63 63 63 66 62 62 62 62 62 64 65 64 62 62 62
69 71 71 72 73 72 71 70 69 67 65 63 62 62 62 64 65 67 67 65 65 63 64 63 64 64 64 64 64 65 65 67 63 62 63 62 63 65 66 65 65 64 64
69 70 71 70 71 72 71 70 69 68 66 65 65 64 65 65 64 67 67 66 65 64 64 65 65 65 65 66 66 66 66 66 63 62 62 62 63 65 66 66 66 66 66
68 70 71 71 71 70 69 70 69 69 68 67 67 66 66 66 65 65 67 67 65 65 65 65 66 67 66 66 65 64 62 61 56 57 58 60 64 66 65 65 65 66 67
67 69 69 70 71 70 69 68 69 69 68 67 66 65 64 62 61 62 64 65 65 65 65 66 65 62 60 57 55 55 55 51 49 51 54 61 63 64 63 62 62 63 65
65 67 69 69 70 70 69 68 68 67 67 66 64 65 63 61 59 60 62 64 64 63 64 61 55 51 48 44 43 46 42 44 43 44 47 57 58 58 59 59 60 61 62
65 66 67 68 68 69 69 69 68 68 67 66 65 64 62 61 61 61 61 61 62 62 53 47 43 41 39 37 36 36 38 34 35 43 48 57 56 56 56 57 60 61 59
64 66 66 68 68 68 69 68 67 67 67 66 65 63 63 60 61 61 62 60 56 47 44 40 38 34 32 29 30 32 31 34 39 43 45 53 53 56 58 56 56 55 56
59 65 67 68 68 68 68 67 67 65 65 65 64 63 62 61 62 59 48 46 43 40 36 34 33 29 26 26 25 31 29 35 32 37 40 51 53 52 52 53 52 53 55
55 58 64 68 67 67 67 66 66 65 65 64 63 63 62 61 56 49 44 41 39 34 31 30 30 29 24 23 22 29 28 30 29 29 35 35 47 47 48 49 49 51 50
43 45 58 64 67 67 67 66 65 65 63 63 62 62 61 51 47 43 39 35 34 32 28 27 27 29 24 21 21 26 28 29 26 28 30 30 33 40 43 44 44 45 46
42 45 50 61 66 66 66 66 65 64 63 60 60 56 46 44 43 39 36 33 31 30 28 27 25 27 25 23 23 25 27 33 23 25 28 26 30 29 32 39 38 39 42
42 48 56 62 65 65 64 63 61 57 56 52 49 45 42 40 37 34 32 32 29 27 26 25 25 27 25 24 23 24 28 32 24 24 24 26 27 27 26 30 34 34 35
48 52 59 63 64 62 58 51 50 47 43 44 41 38 35 35 33 32 30 28 27 26 24 24 23 25 26 26 21 21 33 36 29 27 21 24 23 25 25 26 24 23 32
52 56 62 62 59 56 54 49 47 44 39 36 35 33 32 32 32 32 29 26 26 24 23 21 24 23 23 27 21 23 27 29 31 31 20 25 21 23 23 20 19 18 21
52 58 61 61 55 56 54 52 47 40 35 33 33 31 31 31 30 29 28 26 25 24 23 22 24 22 22 26 19 24 19 19 22 16 24 22 19 20 20 17 18 17 20
53 58 59 55 54 54 49 43 34 31 31 31 30 30 29 28 27 27 26 25 25 25 24 23 24 23 20 23 23 18 15 14 18 21 21 23 16 18 15 19 17 16 18
53 57 56 52 53 47 45 42 39 39 33 30 29 29 27 27 26 25 25 24 23 23 22 21 20 22 23 20 22 18 19 20 14 13 19 15 19 14 17 17 16 17 18
53 54 52 50 49 44 44 43 39 34 31 29 27 26 24 24 25 24 23 23 22 21 21 20 21 20 21 20 21 20 20 19 23 19 11 13 16 16 17 16 17 17 18
53 51 51 49 47 44 43 41 36 31 27 26 26 24 22 22 22 22 21 21 20 20 20 21 22 22 21 20 21 21 20 17 16 16 14 15 16 15 16 17 17 18 20

GFSSE_sfc_dewp_012.txt.gz
Dewpoint
62 69 74 72 71 70 69 68 67 66 65 64 65 67 68 68 67 65 64 63 63 61 60 61 63 65 67 68 67 66 64 64 64 63 63 63 60 61 62 63 65 61 61
62 67 74 72 71 70 69 68 67 66 65 63 65 66 68 68 66 65 65 63 62 61 60 59 62 62 63 64 65 65 64 63 63 63 64 61 60 61 62 63 64 61 59
63 66 70 73 72 70 69 68 67 66 64 64 64 63 62 63 62 63 63 61 60 61 60 60 60 60 60 62 62 62 61 61 61 62 62 57 56 61 62 62 62 61 59
63 67 67 73 72 70 69 68 67 66 63 64 64 62 61 62 63 61 62 62 60 61 60 60 61 62 61 60 61 59 59 59 60 62 55 52 54 59 62 62 62 63 61
64 67 67 73 72 71 69 68 66 66 64 63 63 62 62 62 61 63 62 61 61 62 60 61 61 62 62 62 63 64 64 63 62 61 58 58 58 54 60 62 62 62 64
63 66 72 73 73 72 70 68 67 65 64 63 63 62 62 63 64 62 61 64 64 62 61 61 62 63 63 63 63 63 64 65 65 59 60 60 61 62 64 63 61 62 63
63 66 70 73 73 72 70 69 68 66 64 63 63 62 63 65 66 66 65 65 64 62 62 62 64 64 64 64 64 64 64 65 60 60 61 61 61 63 65 65 65 63 63
63 66 67 72 73 72 71 70 69 67 65 63 63 62 62 65 66 66 66 65 64 63 64 64 65 65 65 65 66 66 66 66 62 61 62 62 63 65 65 66 66 66 65
64 66 66 68 70 72 71 70 69 67 66 64 63 63 65 65 65 68 67 66 64 65 65 65 66 66 67 67 67 66 65 64 60 60 59 59 64 65 66 65 66 66 67
64 65 65 65 66 68 68 70 69 69 68 67 67 67 66 66 65 67 67 66 65 65 65 66 67 65 64 63 60 57 57 59 52 53 53 57 63 65 65 65 64 63 65
63 65 65 65 66 68 66 67 69 68 67 67 66 65 63 59 59 59 64 65 65 65 65 65 60 57 54 54 53 51 54 48 47 46 46 57 59 60 61 61 60 61 62
62 63 66 66 67 67 65 66 64 62 63 62 62 62 60 59 56 59 62 64 64 64 61 56 52 47 53 46 44 46 41 38 37 39 42 57 57 57 58 58 59 62 61
60 63 65 67 68 68 66 65 64 62 63 63 62 62 59 58 59 59 59 60 62 62 55 51 48 43 41 37 36 33 34 32 32 37 47 55 56 55 56 60 58 57 58
60 62 65 67 68 69 67 66 64 62 63 63 63 62 59 58 60 59 60 62 58 52 50 46 43 37 32 28 27 28 29 30 33 37 46 55 57 57 57 55 55 57 56
57 61 64 66 68 68 68 66 64 63 63 63 63 62 59 60 61 60 53 49 47 45 42 40 35 29 26 25 23 26 27 29 30 36 41 52 52 52 52 52 54 53 53
53 57 63 65 67 68 69 67 65 63 62 63 63 60 61 60 61 53 46 44 42 38 33 29 28 28 24 22 22 23 25 28 29 34 34 41 46 47 47 47 47 48 49
44 49 55 62 66 67 68 67 65 63 63 63 62 61 61 60 53 46 40 38 35 31 28 28 27 27 25 22 22 23 24 26 28 31 30 32 34 41 42 42 42 42 43
42 43 44 53 62 67 68 66 65 63 63 62 62 62 59 51 46 41 38 35 30 30 29 27 25 26 25 24 23 23 24 28 26 26 26 26 29 26 30 38 38 38 40
42 42 45 49 55 61 64 66 65 64 64 62 61 55 50 45 39 35 34 32 29 28 27 23 24 24 24 24 21 20 27 30 26 22 25 27 27 28 26 28 31 29 33
43 43 45 52 56 60 64 65 65 61 57 55 53 48 43 39 37 34 32 29 28 27 24 24 23 24 24 23 19 21 33 34 29 29 27 22 23 24 24 24 22 23 28
44 46 49 55 59 62 63 61 58 53 50 46 42 39 37 34 33 33 31 28 27 25 23 21 23 23 23 23 21 24 26 28 32 32 19 21 22 21 20 19 19 19 19
44 49 52 57 60 61 62 61 59 54 48 43 37 34 34 33 33 32 31 28 27 25 24 24 26 23 23 23 20 24 21 20 22 23 22 19 17 17 18 18 20 18 20
46 50 54 59 60 60 61 58 52 44 39 33 33 33 32 30 29 30 29 27 27 27 26 25 24 23 22 23 21 19 17 17 16 20 21 19 17 16 17 20 19 18 19
46 51 57 60 58 60 58 51 47 48 45 35 32 31 30 29 28 26 26 25 25 24 24 21 20 22 23 21 23 16 18 17 14 14 18 17 16 15 18 19 18 18 19
46 54 59 59 58 58 53 52 53 50 45 32 30 28 27 27 27 25 24 25 23 22 22 22 22 21 22 21 21 20 19 19 18 19 16 16 17 18 18 18 18 18 18
47 55 59 57 57 54 53 54 52 46 33 29 29 27 26 25 24 23 23 23 22 22 22 23 24 23 23 22 21 21 20 19 17 18 17 17 17 18 18 17 17 17 19

GFSSE_sfc_dewp_015.txt.gz
Dewpoint
61 69 74 71 71 70 69 68 67 66 65 65 67 68 69 68 67 65 64 64 63 62 60 61 64 66 68 69 68 66 66 65 64 64 63 60 60 62 63 64 65 63 64
63 69 73 72 70 70 69 67 67 66 64 64 65 66 68 68 66 66 64 63 63 62 61 61 62 63 64 65 65 64 64 64 63 63 64 62 60 62 63 62 64 62 60
64 68 69 73 72 70 69 67 67 65 64 66 65 64 66 65 65 64 63 62 62 61 61 61 62 61 61 61 61 61 61 61 61 63 63 57 55 60 62 62 63 63 61
63 67 67 73 72 70 69 68 67 64 65 65 64 62 62 63 62 62 62 62 62 61 61 61 62 63 63 63 63 63 63 62 61 62 57 50 51 60 60 62 63 61 63
62 65 68 73 72 71 69 68 67 65 63 65 63 62 62 63 61 63 62 62 63 61 61 62 63 63 63 63 63 64 65 65 64 64 58 59 59 61 62 60 61 63 64
62 64 71 73 72 71 70 68 66 65 63 63 63 63 63 63 62 63 62 63 64 62 62 63 63 64 64 64 63 63 64 65 64 59 59 60 60 64 64 64 63 62 62
61 66 69 73 72 72 70 68 67 65 64 64 63 62 65 65 66 66 64 65 64 63 63 63 64 65 64 64 64 65 65 65 63 60 60 61 63 64 65 64 65 66 64
60 64 68 72 72 72 71 69 68 66 64 64 63 62 64 64 67 67 66 65 64 65 64 65 65 65 65 66 67 67 66 66 61 60 60 60 64 64 65 65 66 67 67
60 62 67 69 70 71 71 70 69 67 66 65 64 63 66 65 67 67 67 66 65 65 65 66 67 67 67 66 64 62 61 62 58 56 55 56 63 65 65 64 66 65 65
60 62 63 66 68 67 68 70 69 69 68 66 66 67 67 66 67 68 68 67 65 65 66 67 65 64 62 59 56 55 57 60 52 51 50 55 59 62 63 63 62 61 62
60 61 61 62 63 66 66 67 69 68 67 67 66 66 63 59 60 61 64 66 66 65 66 61 57 53 54 55 51 50 54 46 44 43 45 57 57 58 59 59 60 60 63
59 60 61 62 62 66 66 66 64 62 62 59 60 61 58 57 56 58 62 65 64 65 60 56 50 49 53 47 45 50 37 36 36 39 48 56 57 56 56 61 60 59 61
58 60 62 63 63 64 63 66 62 61 62 61 60 60 56 54 56 58 60 60 62 63 57 54 51 46 43 38 37 32 34 33 33 38 51 57 57 57 60 58 58 59 58
56 59 62 64 66 65 65 64 63 60 61 61 61 60 57 56 59 57 57 61 60 56 53 50 46 41 34 30 27 27 29 29 32 35 50 55 56 57 57 57 56 56 56
53 57 61 64 66 67 65 65 63 60 61 61 61 61 57 56 58 58 57 55 52 49 46 43 38 32 28 27 25 24 26 27 28 34 45 53 52 52 52 52 52 52 51
50 55 58 62 65 66 66 66 64 61 61 60 63 61 57 58 60 56 53 50 47 43 37 32 30 30 28 26 24 22 25 27 28 32 37 42 47 46 46 46 45 45 45
43 50 54 60 63 65 67 67 64 63 60 62 63 60 59 60 58 53 47 45 42 35 31 31 29 29 28 25 24 24 25 26 28 31 33 37 40 42 41 42 41 42 43
42 42 48 55 60 63 66 67 66 63 61 63 62 61 61 59 55 49 45 41 36 34 33 30 27 29 29 27 26 25 27 28 25 27 30 28 33 29 37 34 35 35 37
41 43 43 47 54 61 66 67 66 64 63 63 62 62 60 53 47 41 41 37 33 33 31 26 28 27 28 29 25 25 32 31 28 23 26 28 30 31 31 34 33 32 31
41 43 43 46 48 55 63 65 66 65 65 63 62 58 53 46 40 41 38 34 33 32 29 28 27 28 27 27 20 23 33 34 31 29 28 25 25 27 28 30 29 28 31
40 42 44 44 50 52 59 65 65 63 63 60 55 51 46 41 41 41 36 33 32 30 28 26 28 27 28 26 29 30 31 28 32 32 30 24 25 23 24 24 25 25 24
42 44 44 46 51 55 62 64 64 61 58 54 47 42 37 36 38 38 36 34 32 31 29 29 31 28 28 26 24 30 28 26 26 24 26 23 21 25 23 22 23 23 26
43 45 45 48 53 58 63 62 60 55 47 45 41 38 35 34 36 36 35 32 33 34 32 31 30 28 28 28 24 24 24 24 21 26 27 24 23 23 21 25 23 23 23
44 48 48 51 55 58 61 60 57 51 47 46 39 34 32 33 34 33 31 31 31 30 30 27 25 26 29 26 26 18 20 20 18 18 25 24 22 17 22 23 22 22 22
42 49 52 53 56 58 60 60 56 52 52 44 34 30 29 30 32 31 29 31 29 28 27 27 27 25 24 24 24 24 22 23 21 21 21 22 22 22 22 22 22 21 22
42 50 54 55 57 58 60 57 53 55 45 37 32 29 29 29 30 29 28 29 28 27 27 27 28 26 24 23 24 23 23 22 21 22 21 20 20 21 21 21 21 21 22

GFSSE_sfc_dewp_018.txt.gz
Dewpoint
68 71 73 71 71 70 69 68 68 67 66 67 69 70 69 68 67 66 66 64 63 62 61 64 65 66 69 69 68 67 66 65 64 64 62 60 61 62 63 64 65 63 63
69 70 73 72 70 70 68 68 67 66 66 65 67 68 69 68 67 66 64 63 62 61 62 63 63 64 64 65 64 64 63 63 63 63 64 64 63 62 63 63 63 62 61
68 70 70 72 71 70 68 68 67 65 66 67 68 68 68 67 66 64 63 62 62 61 62 63 63 63 63 64 63 62 61 61 60 61 64 61 60 61 62 63 64 62 62
68 69 69 72 72 70 68 68 66 64 66 65 63 64 64 63 63 63 63 63 61 61 62 62 63 63 63 63 63 64 64 64 63 65 62 57 57 61 59 60 62 62 62
66 67 69 72 72 70 69 68 66 65 66 66 64 64 64 63 63 63 63 64 62 62 63 63 64 64 64 64 64 63 65 65 66 65 61 59 59 63 64 63 62 62 63
65 67 72 72 72 71 70 68 67 64 65 64 65 65 64 63 63 63 64 65 64 63 63 64 65 65 64 64 64 64 64 65 66 60 59 62 63 65 65 63 63 64 62
65 69 71 73 72 71 70 68 67 65 64 64 64 66 66 66 65 63 65 65 64 64 64 65 66 66 65 65 66 66 66 66 64 62 60 63 64 65 65 63 66 66 66
68 68 70 72 72 72 70 70 68 66 65 65 64 64 66 65 66 67 66 65 65 65 65 66 66 66 67 67 67 66 65 65 61 59 57 62 64 64 64 63 66 66 65
65 68 68 69 70 71 70 70 69 67 67 66 66 66 66 67 69 67 66 66 66 65 66 68 67 66 66 64 61 58 59 61 58 53 54 57 62 62 63 63 63 62 62
61 67 68 68 69 69 69 70 69 69 67 67 67 68 66 67 69 68 68 68 66 66 67 65 65 63 60 57 53 53 56 58 54 48 54 56 57 58 59 61 61 61 63
60 62 66 68 68 67 67 68 69 68 67 66 67 66 65 62 65 66 66 66 67 66 65 61 57 55 57 58 56 53 55 41 36 42 53 57 56 56 57 60 62 62 63
59 60 61 65 67 65 66 67 66 65 64 63 63 63 62 59 60 61 64 66 66 65 62 58 53 56 55 46 46 48 37 32 35 43 54 57 55 53 62 60 62 61 60
58 60 61 62 63 65 65 65 64 63 61 60 60 61 59 57 59 61 62 63 63 62 57 55 51 44 39 35 34 30 32 32 34 50 56 59 60 60 58 60 59 58 58
57 59 61 62 64 65 65 65 63 62 62 61 61 60 55 57 56 57 60 61 62 60 52 48 45 37 31 28 26 25 27 28 32 49 54 57 57 57 58 57 55 54 54
55 58 61 62 65 65 66 65 62 61 61 62 61 60 57 58 59 58 58 56 52 48 45 41 34 31 29 27 25 23 25 26 28 45 49 54 52 52 52 51 50 49 48
49 56 60 63 66 66 65 65 63 61 61 61 61 61 58 58 59 56 53 51 46 41 35 32 29 31 29 26 25 23 24 27 28 37 43 48 48 46 45 45 45 45 45
44 53 57 61 66 66 65 66 64 63 61 62 62 61 58 60 55 53 49 47 41 34 33 32 29 30 29 28 27 26 24 25 27 30 38 39 42 45 41 40 40 40 41
42 47 54 59 63 65 65 66 66 63 63 62 62 61 59 57 52 48 45 42 37 35 34 30 29 31 30 29 27 24 26 26 25 27 27 30 32 35 38 35 34 35 36
42 42 49 57 61 63 65 66 66 66 64 64 62 62 60 55 51 47 44 38 35 34 31 28 29 29 28 28 25 23 32 30 26 24 26 27 28 28 28 33 35 35 33
38 42 43 48 57 62 65 65 67 65 64 64 62 61 53 48 42 40 40 35 35 33 30 30 29 29 28 27 23 25 31 32 29 28 27 26 25 24 25 24 26 28 33
36 39 43 46 47 55 64 64 65 63 63 63 58 54 48 42 41 40 37 35 34 31 28 27 28 28 28 27 28 28 30 29 32 31 32 23 23 22 20 22 24 25 26
40 38 43 45 47 48 59 64 65 63 62 56 52 47 44 41 41 37 36 34 32 31 30 29 29 30 28 27 24 27 25 26 26 24 26 23 20 21 22 20 21 21 23
40 42 45 45 47 50 56 64 59 54 50 47 43 39 39 37 37 36 34 34 33 35 33 30 28 27 28 27 22 24 22 22 21 24 23 22 20 22 20 23 22 21 21
41 42 45 46 48 53 63 61 57 55 50 47 43 45 36 34 35 34 34 33 33 33 30 27 27 26 28 25 27 21 20 20 20 19 24 23 22 20 22 23 22 21 21
32 43 44 46 50 57 63 61 57 52 51 43 39 39 34 33 33 32 32 32 31 31 26 26 26 24 25 26 25 24 22 23 21 21 20 22 23 23 23 23 22 22 20
33 39 49 47 52 58 62 60 57 52 48 38 37 36 33 32 32 31 31 31 29 29 28 28 27 25 24 24 24 24 24 23 22 21 21 20 20 21 22 22 22 22 22

GFSSE_sfc_dewp_021.txt.gz
Dewpoint
69 71 73 71 70 70 69 69 68 68 70 70 71 70 69 68 67 66 65 64 63 62 64 65 66 69 69 69 68 66 66 65 64 62 62 60 61 63 63 64 64 64 62
71 71 73 72 70 70 69 68 67 67 69 69 70 70 68 67 67 65 64 63 62 62 63 64 65 65 65 65 64 64 63 61 61 61 63 62 65 62 63 64 63 61 60
70 70 70 72 72 70 68 67 66 66 66 67 68 70 69 68 65 64 63 62 61 62 63 64 64 64 64 64 63 62 62 61 60 61 64 60 60 61 61 63 63 61 61
70 70 69 72 71 69 68 67 66 68 66 67 68 67 66 66 64 64 63 62 62 62 63 63 63 63 63 63 64 65 65 64 64 66 62 59 58 61 59 58 61 62 63
69 69 70 72 71 70 68 67 66 67 65 66 67 66 65 64 64 64 65 63 63 63 64 64 64 64 64 64 64 63 64 64 66 63 61 59 62 64 64 63 62 61 61
68 69 71 72 71 71 70 67 67 67 65 65 66 66 66 65 64 65 65 64 64 64 65 65 65 65 64 65 65 65 64 65 66 62 60 64 63 65 64 62 64 64 65
67 70 71 72 72 71 70 69 67 67 65 66 67 66 65 65 65 65 66 65 64 65 65 66 66 66 66 66 66 66 66 66 63 60 63 64 64 65 64 61 65 67 66
68 69 70 71 72 71 70 70 68 67 67 66 66 67 66 67 66 66 66 65 66 65 66 66 66 67 67 67 65 64 63 64 59 56 60 61 64 63 63 59 65 64 63
68 69 70 70 70 70 70 69 68 68 68 67 67 67 66 69 69 67 66 66 66 65 67 68 67 66 65 63 59 56 59 59 55 54 54 56 61 58 60 61 61 61 64
68 68 69 69 70 69 69 69 68 68 68 68 68 68 66 68 68 68 68 68 66 66 67 66 65 64 61 57 53 55 57 53 45 53 54 56 58 56 57 58 60 63 64
67 68 68 69 69 69 68 68 68 68 67 67 67 66 65 66 67 67 66 67 67 67 65 63 60 58 58 59 56 57 50 33 41 52 54 59 53 54 63 62 63 63 62
66 67 67 68 68 68 68 67 66 66 65 65 65 64 63 61 64 65 64 66 67 67 64 60 56 56 52 45 40 42 34 31 43 52 57 61 56 62 62 61 61 60 60
59 66 67 67 68 67 67 67 65 64 63 62 63 63 61 59 62 62 63 64 63 63 60 56 50 42 36 32 29 27 30 31 49 54 59 62 60 58 60 58 58 58 57
58 60 63 67 67 66 66 65 64 63 61 60 61 61 57 57 59 60 61 61 61 61 55 50 43 31 28 26 25 24 26 30 47 51 56 59 57 58 56 55 54 52 52
58 59 61 64 65 65 66 64 63 62 62 60 60 60 55 56 56 58 59 60 56 48 44 34 31 30 28 25 24 22 24 27 45 48 51 56 54 52 51 49 49 48 48
57 59 61 63 65 65 66 64 63 62 62 61 61 59 56 58 58 56 53 50 44 37 33 31 29 30 28 26 25 23 23 28 39 45 47 49 49 46 45 44 44 44 44
46 58 61 62 65 65 65 64 62 62 61 61 60 59 57 58 56 52 49 43 37 33 32 28 29 29 29 27 25 24 25 25 29 41 41 41 43 48 42 39 40 40 41
42 53 61 62 65 66 65 65 64 64 62 62 61 60 58 56 52 49 46 39 36 34 31 29 29 29 28 27 25 23 27 26 26 29 35 37 36 38 37 35 35 36 38
40 42 57 63 65 65 65 65 65 64 63 63 63 60 56 53 49 47 43 37 34 32 30 29 29 28 26 26 24 23 32 30 26 26 26 28 30 29 27 35 37 35 35
38 41 49 60 65 65 65 65 64 65 63 63 61 60 55 51 47 44 38 35 33 31 30 30 28 29 26 25 23 28 31 32 29 27 26 27 24 24 24 23 25 26 32
36 37 42 55 62 65 65 64 64 63 63 63 61 55 49 45 42 39 36 33 33 31 29 27 28 26 27 26 25 27 31 29 30 30 30 25 23 22 21 22 23 23 25
38 38 38 47 59 63 65 65 65 64 62 60 55 50 46 43 41 37 34 34 31 30 29 29 30 29 27 26 23 28 23 25 24 24 25 23 19 22 21 20 21 21 22
37 40 41 43 48 63 64 64 59 56 52 50 49 47 44 42 39 36 34 32 31 33 31 28 28 28 27 26 22 24 19 21 21 24 23 22 21 21 21 24 22 21 21
33 40 42 44 46 49 63 63 61 60 57 51 47 45 42 39 36 35 33 32 33 33 29 28 27 27 29 25 26 23 21 20 17 15 22 23 23 21 22 23 24 22 21
30 36 42 44 46 50 63 62 62 59 52 47 45 41 37 36 35 34 33 33 32 31 27 26 25 24 25 26 26 24 22 24 21 20 19 21 22 22 23 23 23 22 22
34 32 41 43 46 58 62 61 61 56 45 44 44 40 36 34 34 34 32 31 30 27 28 28 26 24 25 24 25 25 24 23 22 21 21 20 20 22 22 23 22 22 22

GFSSE_sfc_dewp_024.txt.gz
Dewpoint
69 71 73 71 70 70 70 70 71 71 71 71 71 70 69 68 67 66 65 63 63 64 65 67 69 70 69 68 67 66 65 64 62 61 62 62 62 63 64 64 64 64 62
70 71 72 71 70 70 69 69 69 71 71 71 70 69 69 67 66 64 63 62 62 63 64 66 66 68 67 66 64 63 61 60 60 62 62 63 64 62 64 63 63 61 60
70 70 70 72 71 70 68 67 67 68 69 70 70 69 68 67 66 63 62 62 62 63 64 65 65 65 65 64 63 63 62 61 62 62 63 59 59 61 61 63 61 61 61
70 70 69 72 70 69 68 67 67 67 67 68 70 69 68 66 64 62 62 61 62 62 63 63 64 64 63 64 64 65 65 64 65 66 61 60 59 61 59 58 61 63 63
69 69 69 72 71 69 68 66 68 67 68 69 68 68 67 65 64 64 62 63 63 63 63 63 63 63 63 64 63 63 63 64 66 62 60 58 60 63 64 63 62 61 61
69 69 71 71 71 70 69 68 68 65 65 66 67 67 66 65 65 65 63 63 64 64 65 65 65 65 65 65 65 64 64 65 64 61 60 60 63 65 63 61 64 65 65
68 69 70 72 71 70 69 69 69 66 66 66 66 65 65 65 65 66 65 64 64 65 65 66 65 66 66 66 66 65 65 64 58 62 63 64 64 64 63 61 66 65 65
68 69 70 71 71 71 69 68 69 68 66 66 67 66 65 66 66 66 65 65 65 65 66 66 67 67 67 66 64 62 60 61 55 59 58 59 64 61 62 61 63 62 65
68 69 69 70 70 70 70 68 68 68 68 69 69 68 68 68 67 67 66 66 65 66 67 67 67 66 65 62 57 55 58 59 54 55 54 55 61 56 59 60 60 64 64
68 68 69 70 69 68 68 69 68 68 68 68 69 68 67 68 68 68 68 68 65 67 67 66 66 64 60 56 54 57 53 53 52 53 54 55 57 55 57 59 63 64 64
67 68 69 69 69 68 68 67 68 68 68 68 68 66 66 66 67 67 67 67 67 67 66 65 62 58 58 57 56 54 44 39 50 52 53 59 52 62 63 64 63 63 62
66 67 68 69 68 68 67 67 66 66 65 65 65 64 62 65 65 66 65 66 67 67 65 61 57 56 49 42 34 40 32 42 51 55 58 62 62 63 62 61 61 60 59
67 67 67 68 68 68 67 67 66 65 64 64 64 63 62 61 63 63 63 64 64 64 61 55 49 41 33 30 27 28 30 47 52 56 61 62 60 62 59 58 57 57 56
66 66 67 68 67 67 67 66 65 64 63 62 63 62 61 59 61 61 61 61 61 60 56 52 41 29 27 25 23 25 28 46 51 54 58 60 59 57 56 54 52 51 49
61 66 67 67 67 67 66 65 64 63 62 61 61 61 58 58 60 60 60 60 60 59 47 35 31 29 26 24 23 24 27 44 49 51 53 57 55 53 51 49 48 47 47
57 60 66 67 67 66 66 64 63 63 62 60 60 60 57 57 58 59 59 59 50 44 34 31 30 28 27 26 25 23 27 39 46 48 49 50 51 47 45 44 43 43 44
48 58 61 66 66 65 65 64 63 63 62 61 60 60 56 56 57 56 54 49 40 33 30 30 29 29 28 26 24 23 25 29 43 43 43 41 44 49 42 40 40 40 42
42 54 60 63 65 65 65 65 63 63 62 62 61 60 56 57 55 51 46 40 35 33 30 30 30 28 27 25 23 22 26 27 37 38 39 37 38 36 38 37 37 37 38
40 43 58 61 64 64 65 65 63 63 61 62 61 60 56 56 52 48 42 37 34 32 30 29 29 27 25 24 24 25 32 28 28 31 35 31 33 30 27 37 35 34 34
38 40 53 61 63 65 65 65 64 64 63 62 62 60 57 55 50 46 39 35 33 32 30 29 27 27 25 25 24 27 29 32 27 27 27 28 26 25 24 23 24 28 31
36 37 43 58 62 65 65 64 64 62 63 62 62 59 55 52 49 42 36 33 32 30 30 28 29 25 26 25 25 27 30 29 29 30 28 26 23 23 21 22 23 23 24
36 36 37 49 60 64 65 64 64 63 62 62 59 56 53 50 46 39 35 32 31 30 28 28 29 29 26 25 24 28 23 24 25 23 25 22 20 22 21 22 22 21 22
34 36 39 40 56 64 64 64 59 57 56 54 54 52 49 47 42 38 34 33 31 32 31 29 29 29 27 25 22 25 22 21 20 22 23 23 21 22 23 23 23 22 21
31 34 37 41 46 62 64 64 61 60 59 56 56 52 51 44 39 36 34 31 31 34 30 28 29 29 29 25 26 22 21 21 15 13 21 22 23 20 21 23 23 23 22
31 31 36 39 44 54 64 63 61 60 60 53 50 50 48 46 38 35 33 32 32 33 29 28 26 27 27 27 26 25 23 24 21 19 17 20 23 22 23 23 23 23 21
35 35 34 37 41 47 62 63 61 60 51 49 48 47 46 43 40 37 33 33 33 30 28 28 26 25 25 25 26 25 24 22 22 21 20 20 20 22 23 23 22 21 22

GFSSE_sfc_dewp_027.txt.gz
Dewpoint
68 70 73 71 71 71 71 72 71 72 72 71 70 69 69 68 67 66 64 63 64 65 66 68 68 68 67 67 67 66 64 62 61 63 63 63 63 63 65 64 64 64 61
69 71 72 71 70 70 71 71 72 73 72 71 70 69 68 67 66 65 63 63 63 64 65 68 69 69 68 66 64 61 59 61 62 62 62 64 64 63 64 63 63 60 61
70 70 69 70 70 70 70 70 71 71 71 71 70 69 68 67 65 63 62 62 63 63 65 66 66 66 65 64 63 61 61 62 63 63 63 59 59 61 61 62 61 61 60
70 70 69 71 70 70 69 68 69 70 71 71 70 69 68 66 63 62 62 62 63 63 64 65 65 64 64 64 64 64 65 65 65 64 60 59 59 61 59 59 61 63 63
69 69 69 72 71 68 68 67 67 67 68 70 69 69 67 65 63 62 62 62 63 63 63 63 63 63 63 64 64 64 64 65 65 62 59 59 59 63 64 63 62 62 61
69 69 71 71 70 70 68 68 68 68 69 70 70 68 66 65 64 62 63 63 64 64 64 64 64 64 64 65 65 65 65 64 61 60 59 59 62 65 63 61 65 66 66
68 69 70 71 70 68 68 70 67 67 67 67 66 66 66 65 65 64 63 64 65 65 65 65 65 65 66 66 65 65 63 60 61 62 63 63 63 63 62 62 65 64 65
68 69 69 70 70 69 69 70 69 68 66 66 67 66 66 65 66 65 64 64 64 65 66 66 66 67 66 65 62 59 59 59 59 57 58 58 62 61 62 62 62 65 66
69 69 69 69 70 70 69 69 68 68 68 68 68 68 68 67 67 66 66 65 64 66 66 66 67 66 64 59 55 56 57 59 55 54 54 55 61 56 59 60 61 65 64
68 69 69 69 69 69 68 68 69 68 68 69 69 68 67 68 68 68 67 67 65 66 67 67 66 64 59 54 55 53 57 56 52 53 53 54 56 55 57 60 65 64 63
68 68 69 69 68 68 67 67 68 68 68 68 68 67 65 66 67 66 66 67 67 67 66 66 63 59 57 57 53 49 45 49 50 51 52 56 57 63 64 64 64 62 61
66 67 68 68 68 67 67 66 65 66 66 65 66 64 64 65 65 66 65 66 67 68 66 63 58 55 45 35 32 39 38 49 53 55 58 61 62 63 62 62 61 60 59
66 66 67 68 68 67 67 66 65 64 64 64 64 63 62 64 64 64 64 64 64 64 61 54 45 38 30 29 27 28 43 50 53 56 61 63 61 60 58 58 57 56 54
66 66 67 68 68 67 67 66 65 64 63 62 63 63 61 60 62 62 62 62 62 60 55 50 39 28 26 24 24 26 41 50 52 54 58 61 59 57 56 53 51 50 50
66 66 67 68 67 67 66 66 65 64 63 62 62 62 61 59 60 61 60 60 60 58 52 42 30 28 24 24 23 25 39 48 50 52 54 57 56 53 52 49 48 48 48
63 66 66 67 67 67 66 66 65 64 63 62 61 61 60 59 59 60 59 59 59 56 39 32 30 28 27 26 24 24 34 46 48 49 49 50 53 49 46 45 44 44 45
54 60 66 66 67 66 66 66 64 64 63 61 60 60 60 58 59 59 58 58 52 41 31 30 29 28 28 26 22 24 28 42 46 46 43 42 45 49 44 41 42 42 42
42 52 61 67 67 66 66 65 64 63 62 60 59 59 59 57 57 57 56 54 38 32 31 31 30 28 26 24 22 23 26 33 41 41 39 37 38 36 39 39 37 36 39
41 42 58 63 66 66 66 65 64 63 63 61 60 59 58 57 56 54 52 44 34 32 31 30 29 26 24 24 23 28 31 28 38 37 36 34 36 29 32 37 36 34 34
38 40 53 61 64 66 66 65 64 64 63 62 61 60 58 57 53 50 43 37 34 32 30 29 27 26 25 25 26 29 29 30 28 32 32 28 31 26 25 23 24 26 34
37 38 41 58 62 64 65 64 64 62 62 62 62 61 57 57 53 48 42 35 33 31 30 27 27 23 24 26 27 28 29 30 28 29 28 27 24 23 21 22 23 23 24
36 36 37 47 60 64 65 64 64 63 63 62 62 61 58 55 52 45 40 35 32 31 29 29 29 28 25 24 25 28 24 25 25 23 25 22 21 23 23 22 22 22 22
34 35 36 38 50 62 64 63 59 58 57 57 57 57 56 54 51 46 40 36 32 32 30 29 30 29 26 24 23 26 23 21 22 22 22 22 21 23 22 23 23 22 22
31 33 34 37 40 56 64 63 61 60 59 60 57 58 54 53 51 45 40 35 32 33 30 30 30 30 28 25 25 21 21 23 17 14 20 22 23 20 21 23 23 22 21
31 31 32 34 40 45 62 64 62 60 59 60 54 54 53 52 50 45 42 36 32 33 32 29 29 29 28 28 27 25 23 24 21 18 15 19 23 22 22 23 22 21 21
30 33 32 32 35 43 58 63 62 61 56 53 52 54 51 48 45 43 42 40 35 35 35 33 29 28 27 27 26 25 25 23 22 21 19 19 20 21 23 23 22 21 22

GFSSE_sfc_dewp_030.txt.gz
Dewpoint
65 69 73 72 72 71 72 72 73 73 73 72 71 70 69 68 67 66 64 65 65 66 68 67 68 67 67 67 66 64 63 62 63 64 64 64 64 65 65 64 65 63 61
68 70 73 72 71 71 71 72 73 73 73 71 70 69 68 67 66 64 63 64 64 65 69 68 69 68 67 66 63 60 61 63 63 63 63 64 66 64 64 64 63 60 63
69 70 69 72 72 71 72 72 72 72 72 71 70 69 67 66 65 63 62 63 63 64 68 68 67 66 65 64 62 61 63 64 64 63 62 59 59 61 61 62 62 61 61
69 69 67 71 71 70 71 71 71 72 72 71 70 69 67 66 63 62 63 63 63 64 67 66 65 65 65 64 64 64 65 65 64 63 60 58 59 63 61 60 62 62 63
69 69 67 71 70 70 70 69 70 71 71 71 70 69 67 64 62 62 63 63 64 64 64 64 64 64 64 64 64 65 65 65 64 62 58 58 60 64 64 64 63 63 62
68 68 70 71 71 70 69 68 68 68 69 71 70 68 66 64 63 63 63 64 64 64 63 63 64 64 65 65 65 66 64 63 62 60 58 59 62 65 63 63 67 66 67
67 69 70 71 70 68 68 69 69 68 68 70 69 67 66 65 63 63 64 64 65 65 65 65 65 66 66 66 65 63 61 64 61 61 61 62 63 63 62 65 64 66 67
68 69 69 70 70 69 69 69 69 69 69 68 68 68 66 65 65 64 64 65 65 65 66 66 66 67 66 63 59 59 60 61 58 57 57 56 62 61 62 63 63 65 65
69 69 68 69 69 69 69 69 68 68 68 68 68 68 68 67 67 65 64 64 65 66 66 66 67 66 61 56 57 58 60 59 53 53 53 54 61 57 59 59 65 65 64
68 68 68 68 68 67 68 69 68 68 68 68 68 68 67 67 68 67 67 67 65 66 66 67 66 62 56 55 54 57 58 55 51 51 51 52 57 56 59 65 64 63 62
67 68 68 67 67 67 66 67 68 68 68 68 68 67 66 65 66 66 66 67 67 67 66 66 64 59 57 55 52 50 52 49 50 51 52 58 63 64 65 63 62 61 60
65 67 68 68 67 67 67 66 66 66 66 66 66 64 63 64 65 66 65 66 67 67 66 64 59 53 44 31 35 43 46 50 54 56 58 62 63 63 62 61 60 59 58
64 65 65 66 67 67 67 65 65 64 64 64 64 63 62 64 64 64 64 64 64 64 60 52 42 34 28 28 29 36 48 51 54 56 60 64 61 59 58 57 56 54 53
65 65 65 65 66 67 66 66 65 64 64 63 63 63 61 62 63 62 62 62 62 60 55 48 35 27 25 23 25 34 48 51 53 54 59 61 59 57 55 53 52 51 51
64 65 65 66 66 66 66 66 64 64 63 63 63 62 61 61 61 61 61 61 60 58 53 43 29 27 24 23 25 32 47 49 50 52 54 58 58 54 52 50 49 48 49
65 66 66 66 66 66 66 66 65 64 63 62 62 62 61 59 60 61 60 60 59 57 46 36 29 27 26 24 23 29 46 48 49 49 48 51 55 51 48 47 46 46 46
61 66 66 67 67 66 65 66 65 64 64 62 61 61 61 60 59 60 59 58 58 53 34 30 28 28 27 24 23 25 40 45 47 46 42 43 45 51 46 45 43 42 45
46 59 65 67 67 66 66 66 66 65 64 62 61 60 61 59 59 58 59 58 52 41 33 31 30 28 26 25 22 26 28 42 44 42 39 38 38 36 41 41 39 39 39
39 42 57 66 66 67 67 66 65 64 63 62 60 59 60 58 58 58 58 56 41 35 33 31 29 26 24 24 23 30 29 32 40 38 35 34 36 30 34 39 39 37 35
39 40 42 59 66 66 66 66 65 64 63 62 61 59 59 58 57 57 55 49 37 33 32 30 27 26 25 25 27 29 31 29 34 36 34 29 31 25 25 22 24 26 37
38 38 40 49 60 66 66 65 64 63 63 62 62 61 59 57 56 55 52 46 36 32 31 28 26 24 24 27 30 29 28 29 27 28 28 28 25 23 22 23 23 23 24
36 37 38 41 53 63 65 65 64 64 64 63 63 62 60 58 57 54 49 44 38 34 30 28 28 27 25 26 26 28 24 25 26 24 26 25 22 22 23 22 22 22 23
33 35 36 38 46 60 64 64 60 59 58 59 59 61 60 58 56 52 48 44 38 36 33 29 29 28 26 24 25 28 24 24 25 22 23 22 21 23 22 23 22 22 21
31 33 34 36 39 50 62 63 62 61 61 61 61 61 58 58 56 52 49 48 39 36 34 31 30 31 28 24 24 21 21 25 21 16 21 22 22 20 20 23 22 21 22
31 31 32 33 36 40 55 63 62 61 61 60 60 60 58 56 55 54 50 49 42 42 36 34 33 31 30 28 27 24 23 23 20 18 16 20 22 23 22 22 22 21 21
34 37 35 32 33 37 46 61 62 61 60 56 55 58 56 55 54 52 49 46 44 42 41 37 34 33 31 30 28 26 27 24 22 20 18 19 19 20 23 23 22 21 21

GFSSE_sfc_dewp_033.txt.gz
Dewpoint
66 71 73 72 73 73 73 73 74 74 74 73 72 71 69 68 67 66 66 66 66 67 66 67 68 67 67 65 65 63 63 64 64 65 65 66 65 65 65 65 63 60 63
66 70 72 72 72 72 73 74 74 74 74 72 71 70 68 67 66 65 64 65 64 68 69 69 68 68 67 64 61 62 63 64 63 64 64 65 66 64 64 63 62 61 63
67 69 68 72 72 72 73 73 73 73 73 72 71 70 68 66 65 63 63 64 64 69 70 70 68 66 65 63 62 63 64 65 64 63 62 61 61 61 62 62 62 61 62
69 69 67 72 72 73 73 73 73 73 72 72 70 68 67 65 63 63 63 63 63 68 68 67 66 66 64 63 64 65 65 65 64 62 59 61 62 64 61 61 61 61 63
69 67 66 71 71 71 71 72 72 72 72 71 70 68 67 64 62 63 63 64 64 66 66 65 65 65 65 65 65 66 65 65 64 61 60 63 65 64 64 65 65 64 63
68 67 68 71 71 71 71 70 71 71 72 71 70 68 66 63 63 63 64 64 64 64 64 64 64 64 65 65 66 65 64 65 62 60 60 63 65 64 63 66 65 67 67
68 67 66 71 71 70 70 70 70 69 70 71 70 68 66 64 64 64 64 65 65 64 64 64 66 66 67 65 64 63 65 64 61 61 62 64 63 63 64 63 66 67 67
68 68 67 70 70 70 70 70 70 69 69 71 70 68 66 65 64 64 65 65 65 65 66 66 67 66 64 61 60 61 63 62 61 62 60 58 62 61 61 62 65 65 64
68 68 68 67 68 69 70 70 70 70 70 70 70 69 68 67 66 64 65 65 65 67 66 67 67 63 58 58 58 60 61 58 55 55 53 55 62 58 59 63 65 64 62
69 68 68 68 67 66 67 69 68 69 69 69 69 68 67 67 67 66 67 66 66 66 66 67 65 58 56 56 59 60 58 55 51 51 51 53 57 58 64 65 64 63 62
68 68 69 68 68 66 67 67 68 68 68 67 67 67 66 64 65 65 66 66 67 67 67 66 62 58 56 55 53 55 52 49 49 51 52 60 65 65 64 62 62 60 60
66 66 68 68 68 67 66 67 66 65 65 65 65 66 65 66 66 65 64 66 67 67 67 63 59 54 41 35 39 48 47 51 55 59 59 64 64 63 62 60 59 59 57
64 65 66 66 68 68 65 66 66 66 66 66 66 65 65 65 66 66 65 66 65 64 60 53 45 36 35 33 36 44 49 55 57 59 62 64 61 59 58 57 56 55 54
64 65 65 65 65 67 67 66 65 65 65 65 66 65 63 65 66 66 65 66 65 64 58 50 39 33 31 30 32 43 49 54 56 58 59 61 59 57 55 54 53 53 53
64 65 65 65 65 66 67 67 65 64 65 64 64 65 63 64 66 65 65 65 64 62 58 47 36 30 28 28 29 41 49 53 54 55 56 59 59 55 53 51 50 50 50
65 65 65 65 66 66 66 67 66 65 63 64 64 64 63 63 65 65 64 64 63 61 56 45 35 31 30 27 28 40 49 52 52 51 52 52 56 53 50 48 48 47 48
62 66 66 66 66 66 66 66 66 66 64 64 63 64 63 62 63 64 64 63 62 60 50 40 32 31 31 27 27 36 47 50 50 48 47 47 47 52 49 46 44 46 44
43 60 66 67 66 66 66 66 66 66 66 64 63 62 63 62 61 63 63 62 61 57 45 37 33 32 31 29 27 30 41 47 47 44 43 41 41 40 45 42 40 40 40
40 41 55 65 67 66 66 67 66 66 66 65 63 62 62 62 61 60 61 62 60 54 42 36 33 32 30 29 27 31 31 42 45 40 38 38 38 37 38 42 41 38 36
40 40 42 55 65 67 67 66 66 65 65 66 64 62 62 61 61 60 60 60 56 50 43 35 33 30 30 28 25 31 34 33 42 40 36 34 33 35 33 29 29 31 38
39 40 41 42 54 65 66 65 65 64 64 64 64 63 61 61 60 60 60 58 53 49 43 35 32 30 29 31 33 32 33 31 35 36 36 32 32 28 27 27 27 27 27
36 39 40 40 44 57 65 64 64 64 64 64 64 63 61 60 59 59 58 56 51 47 40 34 34 31 29 32 31 32 30 30 29 29 31 30 29 26 26 25 25 25 27
34 36 37 39 41 49 61 65 64 63 62 63 63 63 62 61 59 58 57 56 54 48 41 35 33 32 31 30 31 33 29 30 30 27 28 27 27 25 25 26 25 24 24
36 37 36 38 39 43 59 63 62 60 60 61 62 63 63 61 59 59 57 55 54 50 45 39 35 34 35 31 28 25 27 30 29 25 25 25 24 23 24 26 24 23 25
38 40 39 35 36 40 48 62 63 62 62 62 63 63 62 61 60 59 56 54 53 51 48 45 37 36 33 33 33 27 25 25 23 25 24 24 24 24 23 24 24 22 23
42 42 42 40 36 36 39 47 62 62 62 62 61 62 61 60 60 58 56 54 53 51 48 46 43 40 38 36 32 30 30 28 25 25 24 22 24 24 24 24 24 23 23

GFSSE_sfc_dewp_036.txt.gz
Dewpoint
65 68 74 74 73 73 73 73 74 74 74 73 72 72 70 69 67 67 67 66 67 67 66 68 67 67 66 65 64 64 64 65 65 66 66 66 65 65 65 63 60 59 63
65 67 73 73 74 74 74 74 74 74 74 73 72 70 69 68 66 65 65 64 66 68 67 68 68 67 65 62 63 63 64 63 64 64 65 66 66 64 64 63 63 62 63
65 65 66 73 73 74 74 74 74 74 73 72 71 70 68 66 65 64 64 64 69 70 70 69 67 66 63 62 63 64 64 63 63 63 61 58 59 61 62 63 63 62 64
65 65 65 72 71 72 74 74 74 73 73 72 70 69 67 65 63 63 63 64 69 69 68 67 67 65 64 64 65 65 65 64 63 61 58 59 59 64 63 62 61 61 62
65 65 66 71 71 73 73 73 73 73 72 71 70 68 66 63 63 64 63 64 67 67 67 66 65 65 65 65 65 65 65 65 62 61 61 63 62 63 64 67 65 64 64
65 64 68 71 71 72 72 72 73 72 71 71 70 68 65 63 63 64 64 65 65 66 65 64 64 65 65 66 66 64 64 63 64 59 61 63 63 63 65 65 67 67 67
64 64 65 71 71 71 71 71 71 72 72 71 69 67 65 63 64 64 64 64 64 64 64 64 65 66 66 65 64 63 65 63 60 60 61 61 62 64 63 66 67 67 66
64 64 65 70 71 70 70 70 70 70 71 71 70 67 65 64 64 64 65 65 65 65 65 66 67 66 63 61 61 63 63 64 61 61 60 58 61 61 60 65 65 64 64
65 64 64 66 67 70 70 70 70 70 70 71 70 69 68 67 65 65 65 66 66 66 66 67 66 60 59 58 60 62 60 58 57 56 52 53 61 58 58 65 64 64 63
65 64 63 63 64 64 65 70 69 70 71 71 69 69 68 67 67 66 67 66 66 67 67 67 61 58 58 59 61 61 58 57 51 51 48 50 61 59 65 64 63 62 61
66 65 64 62 62 62 63 65 68 68 68 68 68 67 66 62 63 64 64 66 67 67 68 65 60 58 56 56 57 55 52 46 45 45 47 65 65 65 64 62 61 60 59
65 66 64 63 62 62 62 63 61 61 63 63 63 63 61 60 61 60 63 66 67 68 67 63 60 53 48 41 42 48 42 44 46 48 52 65 63 63 62 60 59 58 57
64 65 66 65 64 63 62 63 62 60 61 62 61 60 60 61 63 63 62 63 62 65 62 59 52 47 43 40 39 39 43 46 47 50 60 65 62 60 59 58 56 55 55
64 65 65 65 65 65 63 62 62 61 61 61 61 61 61 62 63 63 62 61 60 61 60 57 49 43 39 35 35 38 41 45 47 52 58 62 60 57 55 54 54 54 54
64 64 65 65 65 65 66 64 62 62 62 60 62 61 61 62 63 62 62 62 62 60 58 56 49 41 36 33 33 37 41 44 46 50 54 60 60 56 54 52 52 51 51
63 64 65 65 65 65 65 66 65 63 62 61 60 61 62 61 62 62 62 63 62 61 58 55 48 42 37 34 32 36 41 45 45 49 51 54 58 55 52 50 49 49 49
56 61 64 65 66 65 66 66 66 66 64 62 61 61 61 61 61 62 62 63 63 62 58 54 46 40 37 33 32 35 41 43 45 45 47 48 49 53 52 48 47 48 45
40 46 55 62 65 66 66 66 67 67 66 64 63 61 61 60 60 61 61 63 62 61 58 53 47 42 39 35 33 32 39 43 43 43 44 44 43 41 48 44 44 42 42
38 39 42 54 61 64 66 66 67 67 67 66 64 63 62 61 60 59 60 61 61 61 57 52 47 43 39 36 33 31 34 40 42 40 40 40 40 39 38 42 42 39 38
39 40 40 43 52 60 64 66 67 67 66 67 65 64 63 62 61 60 58 59 60 60 56 51 47 41 40 37 24 28 32 35 40 40 36 35 35 37 37 36 34 35 39
37 39 41 41 43 49 59 65 65 64 65 65 66 66 64 63 62 61 59 59 59 59 57 52 47 41 37 35 34 33 33 32 35 38 37 34 34 33 33 30 28 28 30
34 36 38 39 41 42 49 59 63 64 64 64 65 65 65 64 63 62 61 60 59 58 57 53 47 41 38 35 36 36 33 31 31 35 37 34 33 31 30 28 27 28 29
37 37 36 37 38 41 44 54 61 63 64 64 64 64 64 64 63 62 62 61 59 57 57 54 48 44 38 35 36 37 34 34 32 32 34 34 32 31 29 29 27 26 26
42 43 41 38 37 38 42 47 55 59 59 59 59 62 64 64 63 63 62 61 60 57 55 53 50 45 44 38 35 32 33 36 33 30 30 31 30 28 29 28 26 26 26
44 46 44 42 38 37 39 46 53 57 56 56 58 61 62 63 63 63 62 61 60 57 56 54 50 46 44 43 39 33 31 30 29 32 31 29 29 28 28 27 26 25 26
45 46 46 42 41 42 39 40 47 55 57 56 59 61 61 62 62 61 61 61 60 58 57 56 53 50 46 44 42 37 34 32 30 30 30 30 29 28 27 26 26 25 25

GFSSE_sfc_dewp_039.txt.gz
Dewpoint
65 68 75 74 73 74 73 74 74 74 73 73 73 72 71 69 68 67 67 66 67 66 67 67 68 67 66 65 65 65 65 65 66 66 67 67 66 65 63 63 66 60 64
66 67 74 74 73 74 74 74 74 74 74 73 72 71 69 68 66 66 65 64 68 67 68 68 68 65 64 64 64 64 64 64 64 64 67 66 66 63 63 63 65 62 64
64 65 67 74 74 75 75 74 74 74 74 72 71 70 68 67 65 64 64 68 69 69 69 68 66 64 63 63 64 64 63 63 63 62 65 58 59 63 63 64 63 64 65
63 64 65 73 73 74 74 75 74 74 73 72 70 69 67 65 64 63 64 69 70 69 69 67 66 64 64 65 65 65 65 63 61 62 58 57 59 65 66 66 61 61 63
62 62 67 72 72 74 74 74 74 74 73 71 70 68 66 64 64 63 65 68 68 68 67 66 66 65 65 66 66 65 65 63 61 61 60 62 63 63 66 67 66 65 65
62 62 68 70 71 72 73 73 73 72 71 70 69 67 65 64 64 64 66 66 67 66 65 65 64 65 66 66 65 64 64 63 64 59 60 63 63 65 64 67 68 68 67
61 63 65 71 72 71 72 72 73 72 71 70 69 67 64 64 65 65 65 65 65 65 64 65 66 66 66 65 63 65 64 63 61 59 59 60 62 64 64 67 66 66 66
61 63 65 69 70 71 70 70 72 72 72 71 69 67 65 65 65 64 65 64 64 64 65 66 67 65 63 62 62 64 63 63 59 59 58 58 63 61 62 65 64 64 64
62 62 64 65 68 70 70 70 71 70 71 71 70 69 67 66 65 65 65 65 65 65 66 67 64 60 60 60 61 62 60 61 55 55 50 53 62 58 63 65 64 63 62
63 61 63 64 64 64 65 70 70 69 70 71 69 69 67 67 67 66 67 67 67 67 67 66 60 59 59 61 62 60 57 58 50 50 47 54 61 60 65 64 63 62 61
63 62 61 61 61 61 61 65 68 69 70 69 68 67 65 61 61 64 65 67 67 67 68 63 59 58 58 59 58 55 56 46 44 44 51 66 66 66 64 62 61 60 60
62 62 61 60 60 60 60 63 62 63 64 65 65 65 61 59 59 58 63 66 67 68 67 63 59 57 56 45 45 49 43 42 44 46 58 66 64 63 62 61 59 58 57
64 64 62 62 60 60 60 61 59 59 61 61 61 62 61 58 60 60 61 61 63 65 64 61 58 51 48 44 44 40 41 44 45 48 61 65 62 61 60 58 57 56 55
64 64 65 63 63 61 61 60 60 59 59 60 60 59 58 59 61 60 59 59 58 62 60 59 55 49 46 43 39 39 40 44 46 53 60 63 61 59 57 56 55 55 54
63 64 65 65 64 63 63 61 61 61 59 59 59 60 58 60 63 62 60 61 59 58 58 57 53 47 43 39 38 39 40 42 44 50 57 60 60 57 55 54 54 53 52
61 63 64 65 65 64 64 65 63 62 62 60 59 59 59 59 61 62 61 63 62 59 58 56 53 47 43 39 38 38 39 43 43 47 54 55 59 57 53 52 52 52 51
57 61 63 64 65 65 65 65 65 65 63 62 60 60 60 59 59 59 60 63 63 62 58 56 53 47 44 40 38 38 40 41 43 45 49 53 51 55 54 50 50 50 48
44 47 57 61 63 64 65 65 65 66 65 63 62 61 60 59 59 59 60 62 63 63 61 57 53 47 45 42 40 38 40 42 42 42 45 47 48 46 51 50 49 46 45
40 41 43 48 57 62 64 65 67 66 66 65 64 63 62 60 59 59 59 60 63 62 60 58 54 48 47 44 42 39 39 41 42 41 42 44 45 44 45 48 49 47 44
37 38 39 41 43 52 59 62 67 67 67 66 65 64 63 62 61 60 59 59 60 60 59 58 54 50 48 45 37 35 38 40 42 42 40 39 40 42 41 42 42 39 42
37 38 39 40 41 43 51 56 65 65 65 66 66 66 64 63 62 62 61 59 59 59 60 58 54 50 48 46 40 38 39 36 37 41 40 38 38 38 39 40 35 36 38
33 35 38 39 41 42 44 48 59 64 64 64 66 65 66 65 64 63 62 61 59 59 59 58 55 50 47 43 41 43 39 36 34 35 39 37 36 36 36 35 33 33 36
40 40 38 37 38 40 42 44 49 59 63 64 64 65 65 65 65 63 63 62 61 60 59 59 56 51 47 43 44 45 44 41 36 35 38 38 36 36 34 34 32 32 33
43 46 43 42 39 38 39 41 45 51 57 60 60 63 63 63 64 64 63 63 62 61 60 59 56 52 49 45 43 40 43 43 39 35 36 36 36 33 33 34 31 31 31
45 48 48 44 41 41 39 40 42 46 51 57 58 58 58 62 63 63 63 63 62 62 61 59 57 52 52 50 46 42 40 38 38 38 33 32 34 33 33 32 31 30 30
46 47 47 44 42 42 42 40 41 46 50 54 56 56 56 59 62 62 61 62 62 62 61 59 58 55 53 52 48 42 40 38 33 35 36 33 31 31 31 32 31 31 31

GFSSE_sfc_dewp_042.txt.gz
Dewpoint
67 71 75 74 75 75 75 74 75 75 74 73 72 72 71 70 68 68 67 67 67 67 69 68 68 66 66 66 66 66 65 66 66 67 68 67 65 63 64 66 66 63 64
66 70 75 74 74 75 75 75 75 74 74 73 72 71 69 68 67 66 65 67 67 68 69 68 66 65 65 65 65 64 64 64 65 67 67 66 66 64 64 64 66 64 64
66 68 71 74 75 75 75 75 75 74 74 73 71 70 69 67 66 64 68 69 69 70 69 67 65 64 64 64 64 64 63 63 63 65 67 60 62 65 64 63 64 65 62
65 67 69 74 75 75 75 75 74 74 73 72 70 69 67 65 64 64 70 70 70 69 68 66 65 65 65 66 66 65 63 61 62 65 62 61 61 67 68 66 64 63 64
64 65 69 73 74 75 75 75 74 73 72 71 69 68 66 64 64 66 69 69 69 68 67 66 65 66 66 66 66 65 64 63 64 63 63 62 63 65 68 68 68 68 68
62 67 70 72 73 74 74 74 74 72 71 70 69 66 65 64 64 67 68 68 67 67 66 65 65 66 67 66 65 65 64 64 66 60 63 65 63 64 67 68 68 67 68
64 66 67 72 72 72 72 73 73 71 71 70 68 66 65 65 65 66 66 66 66 66 65 66 66 66 66 65 65 65 63 65 62 59 60 61 61 63 67 67 67 67 66
65 65 66 70 71 71 71 72 72 72 72 70 68 66 65 65 65 65 65 65 65 65 66 67 66 64 63 63 64 64 64 64 58 57 58 59 64 60 65 65 64 63 63
63 64 65 66 67 70 70 70 71 72 72 71 70 68 67 66 65 65 65 65 65 66 67 66 63 62 61 62 62 61 61 61 54 52 54 57 63 60 65 65 64 63 62
61 63 64 65 65 65 67 69 69 69 71 70 69 68 67 66 66 67 67 67 67 67 68 64 61 60 61 62 61 59 59 59 50 48 55 60 62 65 65 64 63 62 61
62 62 62 63 64 63 64 67 69 68 69 69 68 66 65 63 64 65 65 67 68 69 67 62 60 59 61 61 59 59 57 50 44 47 64 67 66 66 64 62 61 60 60
62 61 61 61 61 61 60 66 64 66 67 67 66 64 62 61 61 61 64 66 67 68 67 63 60 59 58 48 49 52 44 43 45 51 64 66 65 64 63 61 60 58 58
63 63 61 61 60 60 61 64 62 64 64 65 66 64 63 60 61 62 63 64 65 65 64 62 58 52 48 47 44 43 42 43 46 57 64 65 63 62 60 59 58 57 57
63 64 65 64 61 60 60 62 60 60 61 62 62 64 62 60 61 60 62 60 62 65 64 61 58 54 49 44 41 39 41 44 46 61 62 63 63 60 58 57 57 56 56
63 63 65 65 64 62 61 61 61 60 60 61 61 60 60 60 61 61 60 60 58 62 61 60 56 50 45 42 38 39 39 42 42 58 59 61 61 59 57 56 56 55 55
62 64 64 65 65 64 63 63 62 62 60 60 60 60 59 60 63 61 60 61 60 61 58 58 55 49 45 41 37 38 39 42 43 56 56 57 60 59 56 55 55 54 54
59 63 64 64 65 65 64 64 65 65 63 61 61 60 59 59 60 62 61 62 62 61 61 57 54 50 45 40 39 38 40 41 43 48 55 53 55 57 57 53 53 53 53
46 52 63 64 65 65 64 65 65 65 65 64 62 60 60 59 59 59 60 62 63 62 61 59 55 49 45 41 40 39 40 42 43 43 49 52 50 49 54 55 53 52 50
40 41 43 49 62 64 64 65 66 66 66 66 66 62 61 60 60 59 59 61 63 62 61 61 56 48 46 44 41 39 39 42 42 42 43 46 48 48 46 51 54 52 50
38 39 40 44 45 49 62 64 66 66 66 66 66 66 63 62 60 59 59 59 62 62 62 61 55 51 48 46 40 37 38 40 42 42 41 42 42 44 43 42 43 42 50
34 37 38 40 42 44 47 57 65 65 65 66 66 65 66 63 62 61 60 59 60 61 61 59 56 52 49 46 39 36 37 35 35 41 41 40 39 39 41 41 40 39 41
36 37 38 39 40 42 44 46 54 64 65 65 65 65 65 65 64 63 62 61 59 59 59 59 56 52 49 46 38 39 36 36 35 34 41 38 37 38 38 39 36 36 38
42 42 41 40 40 39 41 44 46 49 63 63 62 64 64 65 65 64 63 62 61 59 59 59 58 53 49 45 42 43 41 39 34 35 35 40 36 36 36 35 32 31 34
45 47 47 44 41 40 39 40 41 44 47 59 63 64 64 64 64 64 64 63 63 61 60 60 59 56 50 45 43 43 44 41 36 32 35 38 37 34 33 35 32 30 30
46 47 48 47 44 41 42 40 40 42 45 47 56 59 62 63 64 64 64 64 63 63 62 59 59 57 52 48 46 46 45 39 38 37 32 33 36 36 34 33 32 31 29
46 46 46 44 43 44 43 42 40 41 43 45 51 56 57 57 61 62 62 62 62 63 62 61 60 58 54 51 48 49 46 43 39 38 38 33 32 33 34 33 31 31 30

GFSSE_sfc_dewp_045.txt.gz
Dewpoint
69 72 75 75 75 75 75 75 75 75 74 73 72 71 71 70 68 67 67 67 68 70 68 67 67 67 67 67 66 66 65 66 66 67 67 66 64 66 66 65 66 63 65
70 72 75 76 75 75 75 75 75 74 74 74 72 71 70 69 67 65 67 68 69 69 68 66 66 66 65 65 65 64 64 65 66 66 67 67 67 64 64 65 65 62 62
70 72 73 75 75 76 75 75 74 74 74 73 71 69 68 67 65 66 70 69 70 69 67 66 65 64 65 64 63 63 64 64 64 66 66 62 65 67 63 64 65 64 64
69 70 72 74 75 75 75 74 74 74 73 72 70 69 67 65 64 70 70 70 70 69 67 65 64 65 66 65 65 63 63 62 63 65 62 62 64 68 67 66 66 65 65
67 69 71 75 75 75 75 74 74 73 72 71 69 67 66 64 66 71 70 70 69 68 66 65 66 66 66 66 65 64 64 64 66 64 63 63 63 67 69 69 68 69 67
66 69 72 74 75 75 74 74 74 72 71 70 68 66 65 64 67 69 69 68 68 67 66 66 66 67 66 65 65 64 64 65 65 62 64 63 61 67 68 68 67 68 68
67 67 69 73 74 74 74 74 72 72 71 69 67 66 65 65 67 68 67 67 67 66 65 66 66 67 65 65 65 64 65 65 60 61 61 60 61 66 67 67 66 66 65
65 66 68 71 72 72 72 72 72 72 72 70 68 66 66 65 66 66 66 66 66 65 66 66 66 65 64 64 64 63 63 63 58 58 59 60 63 64 65 64 63 63 63
64 65 67 68 69 70 70 71 71 71 72 70 69 68 67 66 65 66 66 66 65 66 67 66 64 63 62 63 62 60 61 61 51 55 56 58 64 64 65 63 63 63 62
64 65 65 65 66 66 68 69 70 71 71 70 68 68 67 66 67 66 67 67 67 68 67 64 62 61 62 62 60 61 60 58 48 52 55 59 64 66 65 64 62 62 61
64 64 64 65 65 65 66 67 68 69 70 69 68 66 65 64 65 66 66 67 68 69 66 63 61 61 63 62 61 60 58 48 46 62 63 66 66 66 64 62 61 61 60
62 63 64 64 64 64 65 66 66 66 68 67 65 64 63 63 63 63 64 66 68 69 67 63 61 61 59 52 49 54 43 44 48 63 65 67 66 64 63 61 60 59 58
62 62 62 63 63 62 63 64 64 66 66 67 65 63 62 61 61 62 64 65 65 66 64 62 59 55 50 47 44 40 42 43 49 62 65 66 64 63 62 59 58 58 58
63 64 65 63 60 61 64 63 62 64 64 66 66 64 63 61 60 62 63 63 64 64 62 61 58 53 49 48 44 41 40 43 55 62 63 65 64 62 60 59 58 57 57
63 63 64 65 64 60 62 61 60 61 63 63 64 65 63 61 60 61 61 60 62 64 63 61 59 56 52 44 41 39 39 42 59 60 61 62 63 62 59 58 57 57 56
63 63 63 65 65 64 61 60 60 60 61 60 61 61 62 60 61 60 60 60 59 62 62 62 59 54 46 43 39 38 39 42 52 58 59 60 62 61 59 58 57 56 56
63 63 64 64 65 64 64 63 64 65 62 60 60 60 60 59 61 61 60 60 59 60 60 58 57 51 45 42 38 37 39 40 50 56 56 56 58 60 60 57 56 56 56
59 63 64 64 64 64 65 64 64 64 65 65 60 60 60 59 60 61 61 61 61 60 60 60 56 52 47 42 39 38 39 41 42 54 54 53 53 53 58 58 56 55 55
41 55 63 64 64 65 65 65 65 65 65 65 66 63 60 59 59 59 60 61 62 62 61 60 58 51 46 43 40 40 39 40 42 44 53 51 50 50 50 56 57 57 55
35 37 38 45 60 65 65 65 65 65 65 65 65 66 66 61 60 59 59 60 63 62 61 60 59 51 47 45 41 39 39 40 42 42 43 50 49 48 46 46 50 50 54
35 36 37 38 39 43 50 62 64 64 64 63 65 65 65 65 63 60 60 59 62 62 61 61 59 53 48 46 41 38 37 36 37 41 42 42 45 46 44 43 42 41 48
40 41 40 39 39 39 43 45 57 64 64 65 65 65 65 65 65 64 62 60 60 61 61 61 59 53 51 46 43 37 34 36 36 34 41 40 40 41 43 41 40 38 40
43 44 45 43 41 41 39 40 42 47 60 62 62 62 63 64 64 64 63 62 61 60 60 61 60 57 53 50 46 43 39 37 36 35 34 41 40 39 39 40 39 37 37
45 46 47 47 45 41 40 39 38 40 43 55 61 63 63 64 64 64 64 63 62 61 60 59 60 58 55 51 49 43 47 42 37 35 38 38 41 37 37 38 38 34 35
46 47 46 45 44 43 42 42 39 39 41 45 47 54 61 63 64 63 63 63 62 62 62 60 59 57 55 54 50 48 46 43 39 37 36 40 43 41 38 36 35 32 32
45 45 45 44 43 44 44 43 43 42 41 41 42 44 48 56 60 63 63 63 62 61 62 61 60 59 57 54 50 49 47 46 44 41 42 42 43 42 39 36 33 32 31

GFSSE_sfc_dewp_048.txt.gz
Dewpoint
70 73 75 75 74 74 75 74 74 74 74 72 72 71 70 69 68 68 67 69 70 68 67 67 67 67 67 67 66 66 66 66 65 66 65 66 66 66 65 65 65 64 65
71 73 75 75 75 75 75 75 75 74 74 73 72 71 69 68 66 66 67 69 69 67 67 66 66 66 65 65 65 65 66 65 64 65 67 67 67 64 65 65 64 61 64
71 72 74 75 75 75 75 74 74 74 74 73 70 69 68 67 65 69 68 69 68 67 66 65 64 64 64 63 64 65 65 65 65 65 65 65 66 63 64 64 65 64 63
71 72 73 75 75 75 75 74 74 74 73 71 70 68 67 64 69 71 70 70 69 67 65 64 65 65 64 64 64 64 64 63 62 65 62 63 65 66 66 66 65 65 67
70 71 73 75 75 75 74 74 74 74 71 70 68 67 65 66 71 71 71 69 68 66 65 65 66 66 66 65 64 64 65 65 65 64 63 62 65 67 68 69 68 67 68
68 70 74 75 75 75 74 74 73 72 70 69 67 66 65 68 70 70 70 69 67 67 66 66 66 66 66 65 65 65 65 65 65 64 63 64 65 68 68 68 68 68 67
68 71 73 75 75 74 74 74 73 73 70 68 67 65 65 68 69 68 68 68 67 66 65 66 66 65 65 65 65 65 64 64 61 61 60 60 64 67 67 66 66 66 65
67 68 69 73 74 74 73 73 72 72 71 68 67 66 65 67 67 68 68 67 66 66 66 66 66 65 64 64 64 63 62 62 59 59 60 59 66 64 63 63 63 63 63
66 67 69 69 70 71 72 71 71 72 71 69 69 68 67 67 66 67 67 66 66 66 67 66 64 64 63 63 62 62 61 59 55 57 58 59 64 64 65 64 62 62 61
65 66 67 67 67 67 68 70 70 71 70 69 68 68 67 66 67 67 67 67 67 67 67 65 63 62 62 62 61 60 59 57 53 54 56 58 64 65 65 64 61 61 60
64 65 65 64 65 66 67 68 70 70 70 69 68 66 66 64 65 66 66 67 68 69 66 63 62 62 64 63 62 60 56 47 50 57 57 63 67 66 64 63 61 60 59
63 64 64 64 64 65 66 67 66 68 68 67 65 64 64 63 64 65 64 66 68 68 67 64 62 63 62 54 51 54 44 44 57 62 63 67 67 65 63 62 60 59 58
63 64 64 64 64 64 65 65 65 65 66 66 64 63 62 62 62 62 62 64 65 66 64 63 60 56 51 46 44 40 41 43 52 62 65 67 66 64 63 61 59 58 57
62 63 63 64 63 63 64 64 63 64 64 65 65 63 62 61 60 61 62 63 63 64 62 61 58 54 48 47 47 43 42 43 53 61 63 65 65 63 62 59 58 58 57
63 64 64 63 61 62 63 62 62 64 64 66 65 64 63 61 60 61 62 62 62 63 62 61 59 58 53 50 45 42 39 41 55 61 61 63 64 63 60 59 58 58 57
62 63 64 64 64 61 62 61 61 62 63 63 65 65 64 62 60 61 61 61 61 63 63 62 61 59 56 50 43 39 39 41 56 59 60 61 63 63 61 59 58 58 57
63 62 62 64 65 64 61 61 60 60 61 61 62 63 64 63 61 60 60 60 59 60 62 62 61 59 54 47 42 38 39 39 47 58 58 59 60 61 62 60 59 58 58
63 63 63 63 64 64 64 63 63 64 64 61 60 60 61 62 61 60 60 60 60 59 60 60 59 56 51 45 42 39 38 40 42 56 56 56 56 56 60 61 60 58 58
59 60 63 64 64 64 64 65 64 64 64 65 65 62 60 60 59 61 61 60 61 60 59 60 58 54 51 47 42 40 39 40 41 49 55 54 54 53 54 58 60 59 58
37 41 48 61 64 64 65 65 64 64 64 64 65 66 65 61 60 59 60 61 61 61 61 60 59 55 51 49 42 39 40 40 41 43 51 54 52 51 50 50 55 55 58
38 37 38 38 39 52 62 63 63 64 64 63 64 65 65 65 64 60 60 60 61 61 61 61 60 57 52 47 43 41 39 38 38 42 43 50 51 50 48 48 49 50 52
41 42 41 40 40 39 42 45 58 63 63 64 64 64 64 64 64 64 61 60 60 61 61 60 60 57 56 50 48 39 40 39 37 36 40 42 45 49 47 46 46 44 45
44 45 46 46 44 41 39 40 42 44 57 61 61 62 63 64 64 63 63 62 60 60 61 61 60 58 57 52 50 48 38 40 38 37 35 39 41 42 47 48 44 43 42
45 46 46 46 44 43 42 40 38 39 40 48 58 61 62 62 63 63 63 63 62 61 60 60 61 60 57 54 50 49 49 43 39 41 38 36 40 39 40 44 44 44 43
46 45 45 44 44 44 43 43 42 41 41 42 44 45 49 55 61 63 63 63 62 61 61 60 58 58 58 58 50 49 48 46 43 41 40 40 45 43 42 40 42 42 39
44 44 43 43 43 44 45 45 44 44 44 44 43 43 44 47 53 57 61 62 62 61 60 60 59 57 58 57 56 53 49 47 47 43 40 42 41 45 44 41 40 38 36

GFSSE_sfc_dewp_051.txt.gz
Dewpoint
69 73 75 74 74 74 74 74 74 74 73 72 71 70 70 69 68 67 70 70 68 67 67 67 67 68 67 67 67 67 66 65 65 65 66 67 66 65 65 64 64 63 67
71 74 75 74 74 74 75 74 74 74 73 72 71 70 69 67 66 67 70 68 67 67 66 66 66 66 66 65 66 66 65 65 65 66 66 67 67 64 64 63 62 63 67
71 73 73 75 75 75 75 74 74 74 73 72 70 69 68 66 67 68 70 68 67 66 65 64 64 64 64 65 66 66 65 65 66 67 66 65 63 64 64 64 64 63 64
72 73 73 75 75 75 74 74 74 73 72 70 69 68 66 65 70 69 70 69 67 66 64 64 64 63 63 65 65 65 64 63 62 65 62 64 65 65 65 64 65 67 67
71 73 74 75 75 75 74 74 74 72 71 70 68 67 65 70 71 70 70 68 67 65 64 65 65 65 65 64 64 65 65 64 66 64 62 63 66 67 69 68 66 68 69
70 72 74 75 75 74 74 74 74 71 70 69 67 65 66 70 71 71 70 68 67 66 65 66 66 66 65 65 65 65 65 66 65 63 63 66 66 68 68 68 68 67 67
69 72 73 75 75 74 74 74 73 71 69 68 66 64 68 70 69 70 69 67 67 66 65 66 66 65 65 65 65 64 63 66 62 60 61 63 65 66 66 66 66 66 65
69 71 72 74 74 74 74 73 73 72 70 68 66 65 66 68 68 68 68 67 66 65 65 66 65 64 64 64 64 62 65 64 60 59 59 61 67 65 63 63 63 63 63
68 69 70 72 72 72 72 73 72 72 70 69 68 68 68 67 68 68 67 67 66 65 66 65 64 63 63 63 62 61 63 62 57 58 58 58 66 62 63 61 61 62 61
66 67 67 68 70 69 70 70 70 71 70 69 68 68 67 67 67 67 68 67 66 66 66 65 63 62 62 62 61 60 59 58 56 56 57 57 63 65 64 62 60 60 60
65 66 66 66 66 66 67 68 69 70 69 68 68 67 65 64 65 65 66 66 67 68 66 64 62 62 64 63 62 60 52 47 50 53 55 60 64 66 64 61 60 59 58
63 64 65 64 65 66 67 67 67 68 68 66 65 64 63 63 63 65 64 66 68 68 67 64 63 63 61 53 50 50 44 43 55 59 59 62 66 66 63 61 61 58 57
63 64 64 64 64 65 65 66 65 66 66 65 64 63 62 62 62 63 62 64 64 65 64 64 61 57 53 46 44 42 40 42 47 60 63 66 67 64 63 62 60 58 57
62 63 64 64 64 64 64 65 64 64 65 65 64 63 62 61 60 61 61 62 63 64 63 61 59 56 51 47 46 46 42 42 47 60 62 66 67 64 63 62 59 58 57
62 63 63 64 63 63 63 63 63 63 64 65 64 63 62 60 60 60 60 61 62 62 62 60 59 58 55 49 48 46 43 40 45 59 61 63 65 65 63 61 59 59 57
63 63 64 63 63 62 63 62 62 63 63 64 65 65 63 62 60 60 61 61 61 62 62 61 60 59 58 55 51 44 41 40 44 57 60 61 64 65 64 61 60 60 58
62 63 64 64 63 61 63 62 61 62 63 63 64 65 65 63 61 60 60 60 61 61 62 61 61 60 58 55 50 45 40 38 41 56 59 59 61 63 64 61 61 59 59
62 62 63 64 64 62 61 62 61 61 61 62 62 62 64 64 62 61 60 60 60 59 60 61 61 59 58 56 51 46 40 39 40 49 57 58 58 59 61 63 62 60 59
61 62 63 63 64 64 64 63 62 62 63 62 61 61 61 62 62 61 60 60 60 60 59 59 59 58 56 55 50 46 41 39 39 42 54 56 56 57 56 59 62 61 61
47 56 61 63 64 64 64 64 64 63 63 64 64 64 61 60 60 60 61 61 60 60 59 59 58 56 55 54 51 46 42 40 40 41 47 55 55 55 54 54 55 58 60
37 38 39 44 40 60 62 62 62 63 63 63 64 64 65 65 62 60 60 60 61 61 60 60 59 58 57 50 46 44 41 40 39 40 42 48 53 53 52 52 52 53 55
40 40 40 40 40 39 45 49 60 62 63 63 63 64 64 64 64 63 61 60 60 60 60 60 59 57 56 52 51 45 46 45 39 38 39 42 45 53 51 50 49 50 51
43 44 45 44 43 41 39 40 41 42 52 60 61 62 63 64 64 63 63 62 60 59 60 60 59 58 58 52 51 54 44 43 41 40 36 38 41 46 49 49 48 48 49
45 46 45 44 43 43 42 40 38 38 39 43 49 53 51 59 61 62 62 62 62 60 59 60 60 60 57 56 49 51 50 45 45 44 41 37 37 41 42 48 48 47 47
46 44 43 44 44 44 44 43 42 42 42 43 43 43 44 46 50 57 60 61 61 60 60 59 58 58 58 59 54 49 50 48 45 46 49 47 44 46 45 41 45 46 45
44 43 43 43 43 44 45 44 44 44 44 44 44 44 46 47 52 53 55 58 60 60 59 59 58 57 58 58 58 55 52 49 49 46 45 47 45 46 45 43 41 42 44

GFSSE_sfc_dewp_054.txt.gz
Dewpoint
67 72 75 74 74 74 74 73 73 73 73 72 71 70 70 68 68 70 70 69 67 67 67 67 67 67 68 68 67 66 65 65 65 67 67 67 65 64 64 64 64 64 68
70 73 75 74 73 74 74 74 74 74 73 70 71 70 69 67 68 70 68 68 67 66 66 67 67 67 67 67 67 66 65 66 67 67 66 66 67 65 63 63 64 65 68
72 73 73 74 74 75 75 74 74 73 73 72 70 69 67 66 68 70 68 68 67 65 65 65 65 65 66 67 66 66 66 66 67 66 66 65 62 65 64 65 65 64 66
72 73 73 74 75 75 75 74 74 73 71 70 69 68 66 67 68 70 69 68 66 64 64 64 63 64 65 66 65 65 64 63 63 64 63 65 64 66 65 65 68 69 66
71 73 73 74 75 75 74 74 73 72 70 69 68 66 66 70 69 71 69 68 66 64 65 65 64 64 65 65 65 65 65 65 65 63 63 65 66 68 69 68 68 68 69
72 72 74 75 75 74 74 74 73 71 70 69 67 65 70 70 70 70 69 67 66 65 65 65 65 65 65 66 65 65 65 66 64 62 63 66 66 68 69 68 68 67 67
71 72 74 75 75 74 74 74 73 71 69 68 66 65 70 71 71 70 69 67 66 65 66 66 65 65 66 65 65 63 66 65 61 60 62 63 65 67 67 66 66 65 65
71 72 73 74 74 74 74 73 72 71 69 67 66 66 69 69 70 69 68 67 66 65 65 66 65 64 64 65 64 62 66 64 59 59 60 62 66 63 63 63 64 63 63
70 70 71 72 73 73 73 73 72 71 70 69 68 68 69 69 69 69 68 67 66 65 65 65 64 64 63 64 63 62 65 62 58 58 58 59 63 61 62 60 61 62 62
68 68 69 70 71 71 71 72 71 70 70 69 68 68 67 67 67 68 68 67 66 66 66 65 63 62 63 63 62 59 59 58 56 56 57 57 62 64 63 60 60 60 59
66 66 67 67 68 68 69 70 69 69 69 68 68 67 65 63 64 64 66 66 67 68 66 64 63 62 63 61 61 58 52 47 51 52 54 58 62 66 64 60 59 59 58
64 65 66 66 66 66 67 67 68 68 67 66 65 64 63 62 63 64 64 65 67 68 67 64 62 63 59 52 50 50 44 43 48 56 58 60 63 67 64 61 60 58 56
63 64 65 64 65 65 66 66 66 67 66 65 64 63 62 62 62 62 62 63 63 64 64 63 61 58 53 47 44 43 40 41 43 57 61 64 64 67 63 62 60 58 56
62 63 64 64 64 64 65 65 64 65 65 64 63 63 61 61 60 60 60 61 62 63 63 61 59 57 53 48 46 45 43 42 44 53 60 65 67 66 63 62 60 58 57
62 62 63 63 63 63 63 64 63 63 65 64 63 63 62 60 60 60 59 60 61 62 62 61 59 58 56 52 47 46 46 42 41 49 59 62 66 66 64 63 60 60 58
62 62 63 63 63 63 63 62 63 63 63 64 64 63 62 61 60 59 60 60 60 61 62 61 60 59 58 57 56 52 46 42 40 46 57 60 64 65 65 63 61 60 60
62 63 63 63 63 62 62 62 62 62 63 62 64 64 63 62 61 60 60 59 60 60 61 61 60 59 58 58 56 53 47 42 40 43 55 58 60 63 65 63 62 61 60
62 63 63 64 63 62 62 63 62 61 62 62 62 63 64 64 62 61 60 60 60 60 60 60 60 59 58 58 57 56 50 43 40 40 52 57 58 60 62 64 64 62 61
61 62 62 63 64 63 62 62 62 61 61 61 62 62 63 64 64 62 61 61 60 60 59 59 59 59 57 57 57 56 52 47 41 39 44 53 56 58 58 60 62 63 63
56 60 61 62 63 63 63 63 62 62 62 62 62 61 61 61 62 62 62 61 60 60 59 58 58 57 58 57 56 54 50 48 43 41 40 47 54 56 56 56 57 59 61
39 46 54 60 58 62 62 62 61 62 62 62 63 64 64 62 60 60 60 60 60 60 60 59 58 58 56 53 51 51 47 45 43 42 41 45 49 54 54 55 55 55 56
38 39 39 40 39 48 56 58 61 61 61 62 62 63 63 63 64 63 60 60 60 60 59 59 58 56 56 52 54 48 51 50 43 41 40 41 42 51 53 53 53 52 53
41 42 42 42 41 41 39 40 41 42 48 57 60 61 62 63 63 63 63 62 60 59 59 59 58 58 58 52 51 56 48 48 45 45 39 39 39 44 49 51 50 50 50
44 45 44 43 43 42 42 40 38 38 38 41 44 46 45 49 54 60 61 62 62 60 59 59 59 59 57 58 51 52 52 48 49 49 45 39 37 38 42 47 49 49 49
45 44 43 44 44 45 44 43 42 42 43 43 43 44 44 46 49 53 55 57 59 60 61 59 58 57 57 58 56 52 52 49 47 48 50 51 46 45 44 43 45 47 47
44 43 43 43 44 44 44 44 44 44 44 45 45 45 46 48 52 51 52 53 57 58 59 60 59 58 57 58 58 55 52 51 49 47 47 47 49 47 46 44 41 43 45

GFSSE_sfc_dewp_057.txt.gz
Dewpoint
67 72 75 75 74 74 74 74 73 73 71 72 71 70 69 69 70 70 70 68 67 67 68 67 67 68 69 68 67 66 65 66 67 67 66 67 65 64 64 65 66 66 66
68 72 75 75 74 74 75 74 74 74 73 71 70 70 68 69 71 69 68 67 66 66 66 67 67 68 68 67 67 66 67 68 68 67 66 66 67 64 64 65 66 67 66
70 71 71 74 74 75 75 74 74 73 73 71 70 69 67 69 70 69 68 67 65 65 66 66 67 68 68 67 67 67 67 67 66 67 67 63 64 65 66 66 68 65 68
70 71 71 74 74 75 75 74 74 73 71 70 69 68 67 69 71 69 69 67 64 65 64 65 65 67 67 66 66 65 65 64 65 66 66 65 65 67 66 68 69 68 65
71 71 72 74 75 75 74 74 73 72 70 69 68 66 68 69 70 69 68 67 65 65 65 65 65 66 66 66 66 66 66 65 65 65 67 67 67 68 69 69 67 69 68
71 71 72 74 75 75 74 74 72 71 70 68 66 67 71 69 71 70 68 67 65 66 66 66 66 66 66 66 66 66 67 66 64 64 66 67 67 68 68 67 67 67 67
70 71 71 75 75 74 74 74 72 70 69 67 66 68 71 70 71 70 68 67 66 66 66 66 66 66 66 66 64 65 66 64 60 63 65 66 66 66 64 65 65 65 64
70 71 71 73 74 74 74 73 72 71 69 67 67 70 71 72 70 69 68 67 66 65 66 66 65 65 65 65 63 65 66 63 59 59 63 65 66 63 62 63 63 63 63
70 71 72 71 72 73 73 72 72 71 70 69 68 70 71 70 70 69 68 67 66 65 66 66 65 64 64 64 61 65 64 61 58 58 57 61 64 62 62 61 62 62 61
71 71 71 71 70 71 71 71 71 70 70 69 68 68 67 67 69 69 67 68 66 66 66 65 64 63 64 63 61 60 60 59 57 58 58 56 62 64 63 61 61 60 59
69 70 70 70 70 70 70 70 70 69 69 68 67 67 66 65 65 66 66 67 68 67 66 64 63 63 63 62 61 57 54 50 54 54 54 56 61 66 63 61 61 59 58
67 67 68 69 69 69 69 70 69 68 67 66 65 65 64 64 65 65 65 65 67 68 67 64 62 62 58 54 54 52 50 46 47 53 55 61 61 64 63 61 61 59 57
65 66 66 67 67 67 68 68 68 67 67 66 65 64 63 63 64 65 65 65 66 65 66 64 62 60 55 51 48 46 45 45 45 48 57 63 64 66 64 63 61 58 56
65 65 65 66 66 66 67 67 67 67 67 66 65 64 63 62 63 63 63 64 65 65 66 65 63 61 58 51 48 47 47 45 44 47 54 62 65 67 65 62 62 59 57
64 65 65 65 65 65 66 66 66 67 67 66 65 64 63 62 62 61 62 62 63 65 65 65 63 61 60 58 54 49 47 48 45 45 49 60 64 67 66 63 63 60 59
63 64 64 64 64 64 65 65 65 65 66 67 66 65 63 63 62 61 60 60 61 62 63 64 63 62 61 60 60 59 56 51 47 44 45 52 62 66 66 65 63 61 61
63 63 63 64 64 64 64 64 64 64 64 65 66 66 65 63 62 61 61 60 60 61 61 62 63 63 62 61 60 59 58 54 49 45 45 50 55 62 65 65 64 63 61
63 63 63 63 64 64 64 64 64 63 64 64 64 65 65 65 64 63 62 61 61 61 61 61 61 61 61 61 60 59 59 58 56 51 45 47 52 56 61 65 65 64 63
63 63 63 64 64 64 64 64 64 64 63 62 63 62 63 64 64 64 63 63 62 62 61 61 61 61 60 60 60 59 59 58 58 54 51 47 48 54 56 61 63 64 64
61 62 63 64 64 64 63 63 63 63 63 63 63 63 63 63 64 64 64 63 63 62 62 61 61 60 60 59 58 58 59 58 56 55 53 50 47 49 53 57 59 60 62
44 54 62 62 63 64 64 63 63 62 63 64 63 63 63 62 62 63 63 63 63 62 61 61 61 60 60 59 58 58 57 55 55 54 53 51 50 49 50 53 56 58 59
39 44 48 58 58 62 63 63 64 64 64 64 65 64 64 64 65 64 63 62 61 61 61 61 61 60 60 58 59 55 55 54 51 50 49 47 46 45 47 50 52 54 57
41 42 42 43 42 44 49 47 47 48 51 59 62 63 61 59 64 65 65 65 64 62 61 62 61 60 60 58 58 59 53 51 50 50 46 44 43 43 45 48 50 51 52
43 46 45 44 43 43 43 41 41 43 43 43 45 46 45 46 48 54 61 63 64 63 62 62 61 61 60 59 56 55 56 52 52 51 51 46 40 40 42 45 47 49 51
46 46 45 45 45 45 45 44 43 43 44 45 45 45 47 49 53 54 55 56 58 58 59 60 60 60 60 60 58 56 56 53 50 51 51 53 51 50 47 44 44 45 48
46 45 46 45 45 45 45 45 45 45 45 46 46 47 47 49 53 52 52 53 55 57 57 58 58 60 60 60 60 58 55 53 53 49 49 49 50 51 48 47 46 44 45

GFSSE_sfc_dewp_060.txt.gz
Dewpoint
66 69 75 75 74 74 73 73 73 72 72 71 70 69 69 70 70 70 68 67 67 69 67 69 70 69 68 67 66 66 66 66 66 66 67 66 64 65 66 67 69 63 65
65 68 75 75 74 74 74 74 73 73 73 71 70 68 71 71 70 68 67 66 67 67 68 68 69 68 68 67 68 68 68 68 68 66 65 67 67 65 65 67 68 66 67
64 67 71 75 75 75 74 74 73 73 72 71 69 67 70 70 69 69 67 65 66 67 67 68 68 68 68 67 67 67 66 66 67 67 66 64 65 66 68 69 67 68 68
65 66 68 75 75 75 74 74 74 72 71 70 69 67 69 71 69 69 66 65 65 65 66 67 67 67 67 67 66 65 65 65 66 67 64 64 63 67 69 68 69 66 66
65 65 68 74 75 75 74 74 73 71 70 69 68 67 68 71 70 69 66 65 65 65 65 66 67 67 67 67 66 66 66 65 65 66 65 65 66 68 68 68 67 68 68
65 65 72 74 75 75 74 74 72 71 69 68 66 68 69 70 70 69 67 66 66 66 66 66 66 67 67 66 66 67 66 64 65 61 63 64 65 67 67 67 66 66 66
65 65 69 75 75 75 74 73 72 70 69 67 67 70 71 71 70 69 67 66 67 66 66 66 66 66 66 65 64 67 65 63 57 58 60 61 63 65 65 64 64 64 64
65 66 69 73 74 74 74 73 72 70 68 66 69 72 71 72 70 69 68 66 66 66 66 65 65 66 66 64 65 67 64 62 57 56 57 58 65 63 63 63 63 63 62
66 66 67 69 71 73 73 72 72 71 69 68 70 71 72 71 70 69 68 67 66 66 66 65 65 65 64 63 64 66 63 61 56 54 50 54 65 63 62 61 62 61 60
67 67 66 69 67 68 70 71 71 70 70 69 69 69 68 69 69 69 68 67 66 66 66 65 64 63 63 62 60 60 59 61 54 54 52 52 61 64 62 61 61 60 59
67 68 67 66 66 66 68 68 69 69 69 68 67 67 65 62 64 64 66 67 67 66 66 64 63 63 62 62 59 56 54 52 51 50 49 56 59 63 63 62 61 59 57
64 66 67 67 66 66 67 67 67 66 65 64 63 61 57 58 59 61 64 66 67 68 67 63 63 62 59 53 54 55 53 51 48 49 49 60 62 62 66 62 61 59 56
63 65 66 67 66 66 66 67 67 66 65 65 64 63 60 58 59 59 59 60 62 65 62 63 61 58 54 51 50 47 48 47 45 45 52 60 63 64 65 63 61 59 57
64 64 65 65 66 66 65 66 66 64 64 64 64 63 62 61 61 59 56 58 60 59 60 61 60 60 59 55 49 47 47 47 45 45 50 60 62 65 66 65 63 60 58
63 63 65 65 65 66 66 65 65 64 64 64 65 64 63 63 63 61 58 55 56 58 59 59 60 59 58 57 57 54 53 51 49 48 46 57 60 65 68 66 63 62 60
64 64 65 65 65 66 66 66 65 64 64 65 65 65 64 63 63 62 61 59 56 57 58 60 61 61 60 60 58 57 57 57 55 51 48 50 60 63 66 67 65 64 62
64 65 64 64 65 65 65 65 64 64 64 64 64 65 65 64 63 62 61 60 60 59 59 60 60 61 61 60 60 59 59 58 58 55 52 51 53 60 63 66 66 64 62
63 64 64 64 64 64 63 64 63 63 63 63 63 64 65 64 63 63 62 62 62 61 61 61 61 60 60 60 60 60 59 60 59 59 58 55 54 52 59 64 66 65 64
63 64 64 64 64 64 64 64 64 64 63 62 63 63 63 63 62 63 63 62 63 62 62 62 62 61 61 60 60 60 60 60 60 59 59 58 57 54 53 58 63 64 65
61 63 64 65 65 65 65 64 64 64 63 63 63 62 62 62 63 63 63 63 63 63 62 62 62 62 62 61 59 59 60 60 60 59 58 58 58 56 54 54 54 56 62
41 60 62 64 64 64 65 64 63 63 64 64 64 64 64 63 63 63 63 63 64 63 63 62 62 62 61 61 60 59 60 59 59 58 57 57 56 55 55 53 53 53 54
38 46 59 61 63 64 64 64 64 64 64 63 65 64 64 64 64 64 64 64 64 64 63 63 63 62 62 62 60 60 57 53 54 55 55 54 53 52 51 51 51 51 52
40 41 46 53 60 62 64 63 62 61 61 63 64 65 65 62 65 65 65 65 66 65 64 64 64 63 62 63 61 60 57 50 53 53 54 51 50 49 49 49 50 50 50
42 45 45 46 47 49 54 58 59 60 60 55 53 50 49 47 48 50 57 62 64 64 63 63 63 63 62 60 60 59 60 57 55 53 54 53 48 47 49 48 47 49 49
45 48 47 45 44 44 44 44 45 44 44 45 45 46 47 49 52 53 53 54 55 57 58 59 59 59 61 61 60 58 58 58 56 55 52 54 55 52 51 50 49 48 48
47 48 48 45 45 46 46 45 45 46 45 45 46 46 47 48 52 52 52 53 55 56 57 57 57 58 58 58 60 60 57 55 55 54 53 53 52 53 52 51 50 49 48

GFSSE_sfc_dewp_063.txt.gz
Dewpoint
66 70 75 74 73 73 73 73 72 72 72 70 69 69 69 70 70 68 67 68 69 68 70 70 69 68 68 68 67 67 66 65 66 66 66 66 66 66 67 69 67 63 66
65 69 75 75 74 74 73 73 73 72 72 71 69 70 71 70 68 67 66 67 68 67 69 69 68 68 68 68 67 67 68 68 66 65 67 67 68 69 69 68 70 66 68
65 68 71 75 75 74 74 73 73 72 71 70 68 70 70 69 69 66 65 67 67 68 69 70 69 67 67 67 66 66 66 66 66 66 66 63 65 69 70 68 68 68 67
64 68 68 75 75 74 74 73 73 72 70 70 68 69 70 69 69 66 65 66 66 67 68 68 67 67 67 67 66 66 65 65 67 67 66 63 65 69 69 69 67 67 67
63 65 71 75 75 74 74 73 72 71 70 69 67 68 71 70 69 66 65 66 66 65 67 67 67 67 67 67 67 66 64 64 66 65 65 67 66 67 68 68 67 67 68
62 64 72 74 75 74 74 73 72 70 69 68 67 69 70 71 69 67 66 66 66 66 66 67 67 67 66 67 67 66 64 64 66 60 61 65 63 66 65 66 66 66 65
61 66 68 74 75 74 74 73 72 70 68 67 68 69 69 71 69 68 66 67 66 66 66 67 67 67 66 65 67 65 63 64 55 57 59 61 62 64 64 64 64 63 63
61 65 68 73 74 74 73 73 72 69 67 67 69 71 70 71 69 68 67 66 67 66 65 66 66 66 65 64 66 65 63 64 55 54 56 60 65 63 63 63 63 61 61
62 64 66 68 71 73 72 72 71 70 68 68 71 72 72 71 70 68 68 66 66 66 66 65 64 65 64 63 66 64 63 63 56 53 49 58 66 62 62 62 62 61 60
62 66 65 67 67 68 69 71 71 70 69 70 70 69 69 69 69 69 68 67 66 66 66 64 64 63 63 62 60 61 59 62 52 52 51 53 60 64 61 62 62 60 58
63 66 67 66 65 66 67 68 69 69 68 68 67 67 66 62 64 64 66 68 67 66 65 64 63 63 62 62 59 56 58 52 49 49 49 59 58 61 64 61 61 60 57
65 65 67 67 66 66 67 66 66 65 64 63 59 60 58 57 59 61 65 66 67 67 66 64 63 62 60 54 57 58 54 51 48 49 51 60 60 61 64 63 61 59 57
64 66 65 66 66 67 67 66 66 66 66 64 62 61 56 54 57 56 59 61 62 65 62 62 62 59 54 51 50 48 48 48 46 48 52 59 60 63 66 64 62 59 57
61 63 64 65 66 66 66 67 66 65 63 63 63 62 60 59 60 56 55 57 59 60 58 60 58 58 58 56 52 48 47 48 48 49 50 58 58 62 66 65 64 61 59
62 63 63 64 64 64 64 66 65 63 61 61 63 63 62 61 62 60 56 54 54 55 56 57 57 56 57 56 55 54 53 52 51 51 51 58 58 59 65 67 65 64 61
63 62 62 63 63 61 64 65 63 61 61 61 61 63 63 61 61 61 59 58 54 54 55 56 58 59 59 59 58 57 56 57 57 55 53 54 58 60 62 66 67 65 64
63 63 63 64 64 64 65 65 64 61 60 61 61 62 62 62 61 60 59 59 59 58 56 57 58 59 60 59 59 59 59 58 58 58 57 56 57 59 61 61 65 65 64
62 63 64 63 63 62 63 65 62 61 60 61 61 62 63 62 62 62 60 61 61 61 61 60 60 60 60 59 59 59 58 59 59 59 60 59 58 56 60 62 63 64 64
61 62 64 64 64 63 62 62 62 62 62 61 61 62 62 62 62 62 62 62 62 62 62 61 61 61 60 60 59 60 60 60 60 59 59 60 60 60 57 60 62 63 65
60 62 63 64 64 64 64 64 64 63 63 62 62 62 62 62 62 62 62 62 62 62 62 61 61 62 62 62 60 60 61 61 61 60 59 57 58 60 59 58 59 58 62
53 60 62 64 64 64 65 64 64 64 64 63 63 63 63 62 62 63 63 63 63 62 62 61 61 61 62 63 62 61 61 60 60 59 58 57 57 58 57 57 56 56 57
39 52 60 62 64 64 65 65 65 64 64 63 65 64 64 63 63 63 63 63 64 64 62 62 62 62 62 63 61 61 58 57 55 57 57 56 56 56 55 54 54 54 55
41 41 52 60 62 63 64 65 65 65 65 64 64 64 64 64 64 65 66 66 66 66 65 65 65 64 62 62 62 61 57 53 54 56 56 56 54 54 53 53 52 53 53
42 45 44 49 57 61 63 63 62 61 61 61 61 62 60 53 53 54 58 62 64 65 64 64 64 64 63 61 61 61 61 59 56 53 55 56 55 51 52 53 51 51 50
45 49 48 46 48 50 53 58 60 60 59 52 49 47 46 48 50 52 51 53 55 56 57 58 59 59 60 60 60 59 59 59 58 56 53 54 56 55 53 53 52 51 50
48 50 50 46 45 46 47 47 49 50 46 47 48 48 47 47 50 52 52 52 53 54 55 57 58 58 57 56 57 57 57 56 55 54 54 54 54 54 52 53 51 50 49

GFSSE_sfc_dewp_066.txt.gz
Dewpoint
69 72 75 74 73 74 74 73 72 72 70 70 69 69 71 69 67 67 68 69 70 71 69 68 69 69 68 68 67 66 65 66 66 65 67 69 70 69 70 69 69 66 68
69 72 74 74 74 74 73 73 72 73 72 70 71 71 69 68 66 67 68 69 68 70 69 68 68 68 68 67 67 68 67 66 66 66 68 69 70 70 68 69 70 67 67
68 70 73 74 74 74 74 73 73 72 71 70 71 70 69 68 66 66 68 67 66 70 69 68 67 67 67 66 66 65 66 67 67 67 68 66 67 70 69 68 69 68 68
68 70 71 75 74 74 74 73 73 71 70 69 71 70 70 68 66 66 66 67 67 69 69 67 67 68 67 66 66 64 65 66 68 68 66 66 65 68 69 69 69 69 69
67 68 72 75 74 74 74 73 72 70 70 68 70 72 70 68 66 66 66 66 67 67 66 68 68 67 67 67 65 64 65 66 66 66 65 64 64 65 67 67 66 67 67
66 70 74 74 74 74 74 73 71 70 69 68 70 72 71 69 67 67 66 66 67 67 67 67 67 66 67 67 65 64 64 66 65 61 63 65 63 65 66 65 64 64 64
68 71 73 74 74 74 74 73 71 69 68 67 70 71 71 69 67 66 67 67 67 67 67 67 67 66 65 67 65 64 64 66 57 57 60 61 62 63 64 63 62 61 61
67 68 72 73 74 73 73 72 71 70 68 70 71 71 71 69 68 67 67 67 66 66 67 66 66 66 65 66 67 65 64 64 57 53 60 63 65 64 64 64 62 60 60
65 68 70 71 72 73 72 72 71 69 70 72 72 72 72 70 69 68 66 67 67 66 66 65 65 65 64 65 66 64 64 64 58 53 60 64 67 63 63 63 63 60 60
64 66 67 69 70 70 70 70 70 69 70 71 70 70 69 69 69 69 68 67 67 67 66 65 64 64 63 62 61 62 61 60 55 51 53 58 63 64 62 62 62 60 59
66 65 68 68 68 68 68 69 69 68 68 69 68 68 67 66 66 65 67 67 67 67 65 64 63 63 64 63 62 60 59 53 48 49 53 60 58 61 64 62 61 60 59
65 66 67 66 65 68 67 67 66 65 63 62 65 65 64 62 63 65 65 67 68 67 66 64 63 64 62 57 58 60 55 53 49 47 55 62 59 61 64 64 62 59 58
66 66 68 66 66 68 67 66 66 65 65 62 59 58 58 58 60 62 64 64 65 66 65 64 63 61 58 52 52 50 49 47 47 47 57 61 58 61 64 65 63 60 58
65 66 66 66 66 67 68 66 66 65 64 65 63 61 58 58 57 55 60 61 61 63 62 62 61 60 57 56 52 49 48 48 49 49 55 59 60 59 65 65 65 62 60
63 65 66 67 66 66 67 68 65 64 63 64 63 62 61 62 61 60 56 55 57 58 57 58 58 57 57 56 55 54 53 52 51 51 51 59 59 59 61 67 66 65 62
64 64 65 65 65 64 64 66 66 64 63 61 63 63 62 62 62 61 59 56 54 55 56 56 56 59 59 59 58 57 56 56 56 56 54 54 59 59 60 61 67 67 65
63 64 65 64 64 63 64 64 64 64 61 61 62 62 62 62 61 60 60 60 59 57 55 56 58 59 60 60 59 59 59 58 58 58 56 55 56 60 61 60 61 64 64
62 63 65 65 65 65 65 65 65 64 61 61 61 62 62 62 61 61 60 60 61 60 60 60 60 60 60 60 59 59 59 59 59 59 59 59 57 56 59 62 63 62 63
61 63 64 64 63 63 64 65 65 62 62 61 61 62 63 62 62 62 62 62 62 62 61 61 61 61 60 60 59 59 60 60 60 60 60 59 60 59 58 61 61 62 64
60 62 63 64 64 64 63 63 63 63 62 62 62 62 62 62 62 62 62 62 62 62 61 61 61 61 61 61 61 59 61 61 61 60 60 59 58 58 59 57 59 59 62
58 61 63 64 64 64 64 64 64 63 63 63 63 62 63 62 62 62 63 63 61 62 61 61 60 60 61 61 62 60 61 61 60 60 60 58 56 56 56 56 56 56 56
42 59 62 63 64 64 64 65 64 64 64 64 64 64 64 64 64 63 63 63 63 63 63 62 63 62 61 62 60 60 57 56 57 57 58 55 54 53 54 52 52 52 52
40 44 59 62 64 64 64 65 65 64 64 64 64 64 64 63 64 65 65 65 65 66 65 65 64 63 62 62 62 60 56 53 54 54 54 54 53 52 51 50 50 50 51
42 43 43 53 62 64 64 64 63 62 62 63 63 63 59 53 53 53 55 60 64 64 64 62 62 62 62 61 61 61 60 59 55 52 53 54 53 50 52 49 49 49 49
45 45 45 45 49 56 61 63 62 61 61 52 50 49 47 48 50 52 51 52 53 54 55 56 57 57 58 57 57 57 56 58 58 56 52 52 55 53 52 52 51 49 48
48 49 48 46 47 48 50 54 57 58 48 47 47 46 47 48 52 52 52 52 53 53 54 55 56 56 56 55 55 55 55 55 55 54 53 52 51 53 53 52 49 48 48

GFSSE_sfc_dewp_069.txt.gz
Dewpoint
70 73 75 74 73 73 73 72 72 71 70 69 71 71 68 67 67 69 70 71 71 69 69 69 68 68 68 67 66 67 68 66 67 69 70 71 70 70 69 69 69 65 67
71 73 74 74 74 73 73 72 73 72 71 71 71 69 67 66 67 69 69 71 70 69 69 67 68 67 67 67 68 68 67 67 66 69 69 70 70 68 68 68 69 68 70
71 72 73 74 74 73 73 72 73 72 71 72 70 69 67 66 68 67 67 70 70 69 68 67 67 67 66 65 65 67 68 68 67 67 67 66 66 68 69 69 70 69 69
71 71 72 74 74 74 73 73 72 70 70 72 71 69 66 66 67 67 66 67 68 68 67 67 67 67 66 65 66 66 66 66 69 68 65 64 63 67 68 68 68 69 68
70 71 73 74 74 74 73 72 71 70 69 72 72 71 67 66 66 67 67 67 68 67 66 67 67 67 67 65 65 65 66 69 68 65 63 63 63 65 67 66 65 66 67
69 72 73 74 73 74 73 72 70 69 69 71 72 71 68 66 67 66 67 67 68 68 67 67 67 68 67 66 65 65 65 66 65 62 62 63 62 64 63 62 62 62 63
71 72 73 74 74 74 73 72 71 69 68 71 72 70 68 67 67 67 67 67 67 67 67 67 66 66 67 66 65 65 65 65 57 60 61 61 61 64 64 62 61 60 61
71 72 72 73 73 73 72 72 71 69 69 71 72 71 69 67 67 67 67 67 67 67 67 67 66 65 67 67 65 64 65 64 54 60 62 62 66 64 65 64 61 60 60
71 71 72 72 72 72 72 71 70 70 71 72 72 71 70 69 68 67 67 67 66 66 66 66 66 65 64 66 64 64 63 62 55 60 62 64 66 64 64 64 62 61 60
69 70 70 71 71 70 69 70 69 71 71 72 71 70 69 69 69 68 68 68 67 66 66 65 65 64 63 61 61 62 60 59 53 53 56 62 66 64 63 63 62 60 60
68 68 70 70 70 69 69 67 67 69 69 69 68 67 67 67 67 67 66 67 68 67 65 64 64 63 63 63 62 60 60 54 52 51 52 61 61 63 64 63 62 59 59
65 68 69 69 69 68 67 66 65 65 67 66 66 66 65 65 64 65 65 66 67 67 66 65 64 64 62 57 57 60 54 54 49 50 53 62 60 61 64 64 62 60 59
65 66 68 67 68 67 66 66 65 63 61 62 65 64 63 62 64 65 64 65 65 65 64 64 63 61 58 56 56 55 53 47 47 47 56 62 59 59 63 66 64 61 59
65 67 66 66 68 68 66 66 65 64 64 62 59 59 56 58 59 62 62 62 63 64 63 62 61 60 59 55 51 50 48 47 48 49 52 61 61 58 62 66 65 63 61
66 66 66 66 67 68 66 66 65 64 63 64 61 60 58 59 57 58 59 60 61 62 61 61 61 59 59 57 56 54 52 51 51 50 51 60 60 61 59 64 66 66 64
64 66 67 66 67 68 67 67 65 64 62 63 63 62 61 61 61 61 58 55 55 57 56 56 57 57 58 58 58 57 56 54 55 55 54 53 61 60 61 59 63 66 66
64 65 66 66 66 66 66 67 66 64 63 62 63 62 62 62 61 61 60 58 57 55 54 55 56 58 59 59 59 59 59 59 57 57 57 55 56 60 61 60 60 62 64
63 64 65 65 65 65 64 65 64 65 63 62 62 62 62 62 61 60 60 60 60 59 57 58 58 58 59 59 59 59 59 59 59 59 59 58 56 55 59 62 63 62 63
63 63 64 65 65 65 65 65 65 64 63 61 61 62 62 62 61 61 61 61 61 61 61 60 60 60 60 60 60 60 60 60 60 60 60 60 60 60 57 60 61 62 63
62 64 64 65 65 64 64 65 65 64 63 62 61 62 63 62 62 62 62 62 62 62 62 61 61 61 61 61 61 61 61 61 61 61 60 60 60 58 59 57 58 58 61
60 63 64 64 63 63 63 63 63 62 62 62 62 62 63 63 62 62 62 62 62 61 60 60 61 60 60 61 61 59 60 60 61 61 60 60 58 56 56 56 56 56 56
59 62 63 64 63 64 64 64 64 64 64 63 63 63 63 63 63 63 63 63 63 62 62 62 62 62 62 62 60 59 56 56 57 57 57 57 54 53 53 52 51 51 52
47 61 63 63 64 64 64 64 64 64 64 64 64 64 64 64 65 65 65 65 65 65 64 64 64 63 61 61 61 58 55 53 54 54 54 54 53 52 50 50 49 50 50
39 45 59 63 64 64 65 64 63 62 62 63 63 64 57 58 54 53 55 59 63 64 62 61 61 60 59 59 58 60 59 57 55 52 53 54 53 50 50 49 49 49 50
42 43 43 55 62 64 64 64 63 62 62 59 57 55 54 51 51 52 52 53 53 54 54 56 56 56 57 56 55 54 54 55 55 53 50 52 53 53 52 51 49 48 47
44 45 45 45 50 57 60 61 62 61 57 50 49 48 49 51 52 52 52 52 52 53 54 54 55 55 55 55 54 53 52 52 52 52 52 51 51 53 53 50 48 48 46

GFSSE_sfc_dewp_072.txt.gz
Dewpoint
70 72 74 74 73 72 72 71 71 70 69 71 70 67 67 70 71 71 71 71 71 69 69 68 68 66 67 69 69 67 68 69 70 70 70 70 69 69 69 67 68 68 67
72 73 74 74 73 73 73 72 71 71 71 71 68 67 67 68 69 71 71 70 70 68 68 67 67 68 69 69 68 68 68 68 68 69 69 70 69 70 69 70 70 68 69
72 72 72 74 73 73 72 71 71 71 71 71 68 66 67 67 68 71 71 70 69 68 67 67 66 66 67 67 68 68 68 67 66 67 68 65 67 69 69 69 69 68 68
71 72 72 74 73 73 72 72 70 71 71 71 67 66 67 66 67 68 70 69 68 67 67 67 66 66 66 67 66 66 68 69 69 67 64 63 62 66 67 67 67 68 67
71 72 72 73 73 73 72 71 70 71 72 71 68 67 66 67 67 67 66 67 67 66 67 67 67 66 66 66 66 67 68 67 67 64 63 63 63 64 64 63 63 65 65
70 72 73 73 73 73 73 71 70 71 71 71 68 67 66 66 67 67 67 68 68 67 67 67 67 66 66 66 66 65 66 66 64 61 62 63 61 63 62 61 61 61 62
71 72 72 73 73 73 72 71 70 70 72 71 69 67 67 66 67 67 68 67 67 67 67 66 67 66 66 65 65 65 64 64 60 61 61 61 62 65 63 61 61 61 62
71 72 71 72 73 72 72 71 70 70 72 72 70 68 67 67 67 67 67 67 67 67 67 66 66 67 66 65 64 64 64 60 60 62 62 62 65 65 65 63 61 61 61
71 71 71 71 71 72 71 71 70 70 71 72 71 70 68 68 67 67 67 67 67 67 67 66 65 65 66 65 63 63 62 62 56 62 62 63 66 64 65 63 61 60 60
70 71 70 71 71 70 69 69 70 71 71 72 71 70 69 68 68 68 68 68 66 66 66 66 65 64 63 62 62 62 60 58 53 60 62 63 66 64 64 63 61 60 59
70 70 71 70 69 68 67 67 70 70 70 70 69 68 67 67 67 66 66 67 68 66 65 65 64 64 64 63 62 62 60 54 50 52 52 62 64 64 64 63 61 59 58
67 69 70 70 68 67 66 65 66 67 67 68 67 67 66 65 65 65 65 66 68 67 66 65 64 64 61 57 57 59 55 53 49 50 51 61 59 60 64 65 62 59 59
66 68 69 69 68 67 65 64 63 64 65 65 65 65 64 64 64 65 64 65 64 64 63 64 63 61 57 55 55 56 53 51 47 47 54 62 61 58 61 65 64 61 59
66 67 68 68 68 66 65 64 63 61 61 62 64 64 61 62 63 63 62 63 62 63 61 61 61 60 59 57 51 51 48 47 47 48 50 62 62 58 59 65 66 64 61
65 66 68 68 67 66 65 65 64 63 62 61 60 60 57 60 61 61 61 61 61 62 61 61 61 60 60 59 56 54 52 51 50 50 50 59 61 62 60 62 65 66 65
65 66 67 67 67 66 65 65 65 64 64 64 62 60 57 58 57 58 57 60 60 60 61 59 60 59 57 57 57 56 55 55 54 54 54 52 61 61 62 60 61 64 65
65 66 66 66 67 67 65 66 65 64 63 62 63 62 59 60 60 60 59 55 55 55 57 56 55 57 59 59 59 59 59 59 58 57 57 55 55 61 62 61 62 62 63
65 65 66 66 67 67 66 67 66 65 63 63 62 63 62 61 61 61 60 59 58 57 55 55 57 58 58 59 59 59 59 59 59 59 59 58 56 55 58 63 64 64 63
64 64 65 66 66 65 65 66 66 65 65 62 62 63 62 62 61 61 60 60 60 60 59 58 59 59 59 59 60 60 60 60 60 60 60 60 60 59 58 59 62 63 63
64 64 65 65 65 65 65 66 66 65 64 63 62 62 62 62 61 61 62 61 61 61 61 61 61 61 61 60 60 60 60 60 61 60 60 60 60 60 59 58 58 58 61
63 63 64 64 64 64 64 64 64 63 63 63 62 61 62 62 62 61 62 62 62 62 61 61 60 60 61 61 60 59 59 60 60 60 60 60 60 58 57 57 56 56 55
62 63 63 63 64 64 64 63 63 63 63 62 63 62 63 63 63 62 62 62 62 62 61 61 62 61 61 61 58 57 54 55 56 57 56 57 56 54 54 53 52 52 53
58 62 63 63 64 64 64 64 64 64 64 63 63 63 63 63 64 63 63 63 64 65 63 64 63 63 61 60 60 58 54 52 53 55 54 54 53 52 51 51 50 51 51
47 60 63 64 64 64 64 64 63 63 62 63 63 63 61 62 63 64 64 64 64 64 62 61 61 60 59 57 58 58 57 56 55 52 53 54 53 50 49 50 49 50 49
41 47 58 62 64 64 64 64 63 61 62 61 62 61 58 59 57 56 55 53 54 55 55 55 55 55 56 56 56 54 53 53 54 53 51 51 52 53 52 51 49 47 46
43 44 44 52 59 61 62 63 63 62 61 58 57 57 56 55 56 57 56 55 54 54 53 54 54 53 53 54 54 53 52 51 50 50 50 50 50 51 52 49 48 46 46

GFSSE_sfc_dewp_075.txt.gz
Dewpoint
70 72 73 73 73 72 71 70 70 69 71 69 68 70 71 72 72 71 71 70 70 69 68 66 68 68 68 69 69 70 70 70 70 70 70 69 68 68 69 69 69 66 65
71 72 73 73 73 72 71 71 70 70 71 69 67 68 70 71 71 71 70 69 68 68 67 67 68 69 68 69 68 69 69 68 68 69 69 69 70 70 69 69 70 66 67
71 72 71 73 73 73 71 71 70 70 71 68 66 67 69 71 71 71 70 68 68 67 66 67 68 69 69 68 68 68 68 67 67 68 67 66 67 69 69 68 68 68 67
71 71 71 73 73 72 71 70 71 70 69 67 66 67 68 70 71 71 70 68 67 67 66 67 67 68 67 67 68 69 68 68 67 65 63 63 63 66 65 65 65 66 66
71 71 71 73 72 72 71 70 71 70 69 67 67 69 68 68 70 70 69 67 67 67 67 67 67 67 66 67 69 69 68 67 65 63 62 63 63 61 62 63 63 64 64
70 71 72 73 72 72 72 71 71 70 69 67 66 67 68 66 67 67 67 67 67 67 67 67 67 66 66 67 67 68 67 66 63 62 62 62 61 63 62 61 62 62 63
71 71 71 73 72 72 71 71 71 72 69 67 66 66 67 67 67 67 66 66 67 67 67 66 66 66 66 66 65 66 66 64 60 60 60 62 63 64 63 62 61 62 62
70 71 71 71 72 71 71 71 71 72 71 68 67 66 66 66 67 66 66 66 67 67 66 66 66 66 65 65 64 64 62 63 61 61 61 62 66 65 64 62 61 61 61
70 70 70 71 71 71 71 70 70 71 72 70 69 68 67 67 67 66 66 66 67 67 66 65 66 66 65 64 63 63 62 60 60 61 62 62 66 64 64 63 62 61 61
69 69 70 70 70 69 69 70 69 70 71 70 69 68 68 68 67 68 68 68 67 67 66 66 64 63 63 62 62 60 60 58 56 60 62 62 65 64 64 63 61 60 60
67 68 69 70 68 68 67 68 70 70 70 70 69 67 66 65 66 67 66 67 67 66 66 65 64 63 64 62 61 61 58 53 50 55 53 60 65 64 64 63 61 60 58
67 69 69 69 68 67 65 66 67 68 68 69 68 66 65 65 64 65 65 66 67 67 66 65 64 64 62 56 56 57 54 52 49 50 51 58 60 59 64 65 62 60 58
65 68 69 69 67 66 64 64 65 66 66 67 66 65 64 64 64 64 63 64 63 64 63 64 62 61 57 55 54 55 53 52 47 47 51 59 60 58 60 64 65 62 60
65 65 67 67 67 66 64 63 64 64 65 65 65 65 63 62 62 62 62 62 62 62 60 60 60 59 58 57 55 52 51 48 47 48 49 58 62 59 59 62 66 64 62
61 62 65 67 67 66 64 63 61 62 63 64 64 64 62 61 62 62 62 61 61 61 60 59 59 59 59 59 58 54 53 51 50 50 50 56 62 62 60 60 65 66 65
60 60 65 67 67 66 64 64 63 61 61 61 61 62 61 60 62 62 61 60 60 60 61 60 60 60 59 57 58 57 56 55 55 53 54 54 59 62 63 60 62 64 65
63 64 65 66 67 67 65 65 64 64 63 63 62 60 58 58 59 59 58 57 59 59 60 60 56 57 57 59 59 59 59 59 59 58 57 56 56 60 62 61 62 62 63
64 65 66 66 67 67 66 66 65 65 63 63 63 63 59 58 58 59 60 57 56 55 55 55 55 57 58 58 58 59 59 59 59 59 59 58 57 56 58 61 63 65 64
64 65 66 66 66 66 67 67 66 65 64 63 62 63 62 60 60 61 60 60 59 58 56 55 57 58 58 59 59 60 60 60 60 60 60 60 60 59 58 59 61 62 64
64 65 65 66 66 66 67 67 66 66 65 64 63 63 63 62 61 61 61 60 60 60 60 59 59 60 60 60 60 60 60 60 60 60 60 60 60 60 60 60 58 59 61
63 63 64 65 65 65 65 65 65 64 63 63 63 63 63 63 62 61 61 61 61 60 60 61 61 60 60 61 61 59 58 59 59 59 59 59 59 59 59 58 57 57 57
62 63 63 64 64 65 64 64 63 63 63 62 62 62 62 63 62 61 61 61 62 62 61 61 61 61 61 61 59 56 54 54 56 55 55 56 56 54 55 55 55 54 54
59 61 63 63 64 64 64 64 63 63 63 62 62 62 62 63 63 62 62 62 62 63 62 62 63 62 60 59 61 58 54 51 53 55 54 54 53 52 51 51 51 52 52
45 60 62 63 64 64 64 63 63 62 61 62 62 63 63 63 63 63 63 64 64 64 63 63 62 62 60 57 56 57 56 57 55 51 53 53 53 50 49 50 49 50 49
42 52 61 62 63 63 63 63 62 61 62 62 62 62 61 61 61 61 61 60 60 60 59 59 59 58 57 56 55 53 52 51 53 54 50 50 52 53 52 50 49 47 47
41 45 51 57 60 62 63 62 62 62 60 60 60 60 59 58 59 59 58 57 56 56 56 56 55 53 52 52 53 52 52 50 48 48 49 48 49 50 50 48 47 46 48

GFSSE_sfc_dewp_078.txt.gz
Dewpoint
69 71 73 73 72 71 70 70 69 70 70 70 71 72 72 72 72 71 71 70 69 67 68 68 67 68 69 69 69 69 69 70 69 69 70 69 70 70 70 68 67 64 65
70 71 73 73 72 71 70 70 70 71 70 69 70 72 72 72 72 71 70 69 68 67 67 68 68 68 68 69 69 69 69 68 68 69 69 69 70 69 69 68 68 65 67
71 71 71 73 72 72 71 70 70 71 70 69 70 71 72 71 71 70 69 68 67 67 67 69 69 68 69 69 68 68 68 68 67 67 66 64 66 66 66 65 66 67 67
71 71 71 72 72 72 71 69 71 69 67 67 68 70 71 71 71 69 69 68 67 67 68 68 68 68 67 68 68 68 68 67 66 65 63 63 62 64 64 65 65 66 64
71 71 71 72 72 71 70 70 71 69 67 67 69 70 71 71 70 70 68 67 67 67 68 68 68 67 69 70 70 69 67 66 65 63 62 61 60 61 62 63 63 64 64
70 70 71 72 72 72 71 71 70 69 67 66 69 69 70 70 70 69 68 67 67 67 68 68 67 67 68 70 68 67 66 65 64 61 61 63 61 63 63 62 62 63 63
70 70 70 72 72 71 71 71 71 69 67 66 68 67 67 68 68 67 67 67 67 67 67 67 66 66 66 67 68 67 65 63 60 60 61 62 63 64 63 62 62 62 62
70 70 70 71 72 72 71 71 71 70 67 66 66 67 67 67 67 66 67 67 67 67 66 66 66 65 65 65 65 65 64 63 60 60 61 62 66 65 64 63 62 62 62
69 69 69 70 71 71 71 71 71 71 69 68 68 68 68 68 67 66 67 67 67 66 66 66 66 66 65 64 63 62 62 63 59 60 61 62 66 65 64 63 62 61 62
67 68 69 69 70 69 69 70 70 70 70 69 68 68 67 67 67 67 67 68 67 67 66 65 65 65 64 63 62 61 61 60 58 60 61 61 65 63 64 63 62 61 61
66 67 68 69 68 68 67 68 69 70 70 69 68 67 66 65 65 66 66 67 68 67 66 65 64 63 63 61 61 61 57 53 51 57 55 58 65 63 64 63 61 60 59
62 66 68 68 68 67 66 67 67 68 69 69 66 65 64 64 64 65 65 66 67 67 66 64 63 64 60 55 55 56 53 52 50 49 51 56 60 59 61 65 63 60 59
59 67 68 69 67 66 64 66 66 66 67 68 66 65 64 63 63 63 63 64 63 64 62 62 61 60 56 55 54 54 53 51 48 47 49 57 60 59 59 61 65 63 60
63 64 66 67 66 65 64 65 65 65 65 67 66 65 63 62 62 61 61 61 61 61 59 59 59 58 57 56 55 52 51 48 48 47 49 56 60 60 59 60 64 66 63
60 61 62 63 66 66 63 63 64 65 65 66 66 65 63 62 61 62 61 61 60 60 60 58 58 58 58 58 58 56 55 54 51 50 50 56 57 61 60 60 63 66 65
60 60 61 60 66 66 65 62 62 64 64 65 65 65 63 62 62 62 61 60 60 60 60 59 59 59 59 58 57 58 57 56 55 55 54 54 59 60 62 61 61 63 65
56 59 60 60 65 66 65 64 64 61 62 62 63 63 63 61 61 62 61 60 60 59 59 59 58 57 58 58 58 59 59 59 59 59 58 57 57 59 61 61 61 62 63
58 60 62 61 65 66 65 65 65 65 64 61 61 60 60 59 59 60 60 58 57 59 58 58 58 55 57 58 58 58 59 59 59 59 59 59 58 57 59 62 63 63 64
61 63 65 65 65 66 66 66 65 65 65 64 63 62 60 58 58 58 59 59 57 56 55 54 55 56 57 58 58 59 60 60 59 60 59 60 60 60 59 60 61 62 63
64 64 64 65 65 65 66 66 66 66 66 65 64 63 63 60 59 59 60 60 59 58 57 57 56 58 59 59 60 60 60 60 60 59 59 60 59 60 60 60 60 59 61
63 63 64 63 65 65 65 64 65 65 65 65 65 64 63 63 61 60 61 60 60 60 60 59 59 59 60 61 61 58 56 57 58 58 58 58 58 59 58 58 58 57 59
62 62 63 63 64 64 64 63 63 63 64 64 64 64 64 64 63 62 61 61 61 60 60 61 61 61 61 61 59 56 53 54 55 55 54 55 54 54 55 55 55 55 55
59 61 63 64 63 63 64 64 63 63 63 63 63 63 63 63 63 63 62 62 62 62 62 62 62 61 60 60 60 56 52 50 52 55 53 54 53 52 51 51 52 53 53
45 59 62 63 63 64 64 64 64 62 61 62 62 62 63 63 63 63 63 63 63 64 63 62 62 62 61 59 57 57 57 57 54 50 53 53 53 50 50 50 50 50 50
43 48 59 61 62 63 63 63 63 62 62 62 62 61 60 61 61 61 62 62 62 61 60 60 59 58 58 57 56 54 52 51 53 53 48 48 51 51 51 49 49 47 49
41 45 55 59 59 61 61 61 62 62 61 60 60 60 60 60 60 60 60 61 61 59 58 57 57 56 55 54 53 52 52 49 47 47 49 48 47 49 49 48 47 46 48

GFSSE_sfc_dewp_081.txt.gz
Dewpoint
68 70 73 73 72 71 70 70 69 71 71 70 72 72 72 72 72 72 71 69 70 68 67 67 69 70 70 70 69 70 69 69 70 70 70 71 71 69 68 67 67 63 67
69 70 73 73 72 71 70 70 71 71 71 72 71 72 72 73 72 71 70 68 68 68 68 67 70 70 70 69 69 69 68 69 69 68 69 69 70 68 67 67 69 66 68
69 69 70 73 72 71 70 70 71 69 70 71 72 72 72 72 71 70 69 68 68 68 68 68 67 68 69 69 69 68 68 68 67 67 67 64 64 66 66 67 67 67 66
69 70 69 72 72 72 70 70 71 69 68 71 71 72 72 72 71 69 68 68 67 69 68 67 67 68 68 69 69 68 67 67 66 66 61 59 58 63 64 65 65 64 64
70 70 70 72 72 72 69 71 70 68 67 69 71 72 72 72 70 69 68 67 69 69 68 68 68 69 70 70 69 67 66 65 65 62 60 61 60 61 63 63 64 64 64
70 70 71 72 72 71 71 71 69 67 67 67 70 71 72 71 70 68 67 69 69 69 68 68 68 70 70 70 68 67 65 65 64 62 63 63 62 63 63 63 63 63 63
70 70 69 72 72 72 72 71 70 67 66 67 68 70 71 71 70 68 68 68 68 69 68 67 67 67 69 69 67 65 64 63 61 63 64 64 63 64 63 63 63 63 63
69 70 69 71 72 72 72 71 70 68 66 68 68 69 70 69 68 67 67 67 67 68 68 67 66 66 66 67 67 65 64 63 60 62 64 65 67 65 65 63 62 62 63
69 69 69 69 70 71 71 70 70 69 68 68 67 68 69 69 68 67 67 67 67 67 67 67 66 65 65 64 63 62 64 62 58 61 61 64 66 65 64 63 62 62 62
68 69 69 69 69 68 69 70 70 69 68 68 68 67 67 65 67 68 68 68 67 67 67 67 66 65 64 63 61 61 62 62 59 60 61 62 65 64 64 63 62 61 61
64 67 68 69 69 68 68 68 70 70 69 68 67 66 66 65 64 64 66 67 68 67 66 65 65 63 62 62 62 61 58 53 53 58 56 57 63 62 64 63 61 60 59
58 62 67 68 68 67 66 67 69 69 68 66 66 65 65 66 66 65 65 66 67 67 66 65 64 63 59 56 56 56 54 53 51 52 53 56 59 59 60 65 63 61 59
59 62 65 67 67 66 65 67 67 69 69 67 66 65 65 65 66 65 66 65 65 64 63 63 63 59 57 56 55 55 55 52 51 50 51 55 59 60 59 60 66 64 61
59 63 64 63 66 66 65 65 66 68 69 68 65 65 65 65 65 64 64 65 64 64 62 61 60 59 58 56 56 55 53 52 51 51 52 55 57 61 60 60 63 66 64
59 62 62 63 64 66 64 65 66 66 68 67 66 65 64 64 63 63 62 63 63 63 61 60 59 58 58 58 59 58 57 56 55 54 54 57 57 59 61 61 60 65 66
55 61 61 61 62 66 64 65 66 66 66 67 66 65 65 64 63 63 63 63 63 62 61 60 58 60 60 60 59 58 58 58 57 57 58 58 59 60 62 62 61 62 64
59 59 60 57 61 66 65 64 65 65 65 66 66 66 65 64 63 63 63 63 62 61 60 61 60 60 60 60 58 58 60 60 60 60 60 60 60 60 61 62 62 62 63
57 57 57 56 60 63 65 65 64 64 64 65 65 66 65 64 63 63 62 63 62 60 60 61 60 59 57 57 58 59 59 60 60 60 60 60 61 60 61 62 63 63 64
58 58 58 59 60 65 65 65 64 64 65 64 63 63 64 64 63 61 61 61 60 58 59 59 58 58 56 57 58 59 60 60 60 59 60 60 60 61 61 61 61 62 63
60 59 59 59 61 66 66 66 66 66 65 66 65 64 62 60 60 60 60 60 59 58 57 56 55 56 58 59 59 59 61 61 61 60 59 59 60 60 61 62 62 61 61
62 62 62 63 63 63 64 64 64 64 66 65 66 65 64 63 60 59 59 59 60 59 57 57 57 57 59 61 62 59 59 58 58 58 58 58 57 58 59 60 60 60 59
61 62 61 62 61 63 63 64 63 63 65 65 66 65 65 64 64 63 62 61 61 61 60 60 60 61 61 62 60 59 55 55 56 56 56 55 55 56 57 56 58 58 59
61 61 61 61 62 62 63 64 64 63 64 63 64 65 64 65 65 64 64 64 63 63 62 62 63 62 61 61 61 59 54 52 54 56 56 55 55 54 53 54 54 55 55
55 61 62 62 63 64 64 63 63 61 60 62 64 64 64 64 64 64 64 63 63 63 63 63 64 63 62 61 60 60 60 59 54 52 54 54 54 53 52 52 52 52 52
47 50 59 62 62 63 63 63 62 61 59 62 63 63 62 62 63 63 64 63 62 62 61 61 61 61 61 60 60 58 58 57 56 54 48 50 53 53 53 51 51 50 51
46 47 54 59 61 62 62 63 62 61 60 61 62 62 61 61 61 62 63 62 61 61 60 60 58 58 58 58 57 56 55 52 51 52 51 50 50 51 51 51 49 49 50

GFSSE_sfc_dewp_084.txt.gz
Dewpoint
65 67 73 73 72 71 70 70 69 71 71 72 72 72 72 72 72 72 71 70 71 69 68 69 71 71 71 71 70 70 70 69 71 71 71 71 69 67 67 67 68 65 69
64 67 73 73 72 71 70 70 72 72 71 73 72 72 72 72 72 71 70 69 68 68 68 69 70 70 68 69 69 69 70 69 69 69 70 69 69 68 68 68 70 68 68
65 67 70 72 72 72 71 70 71 71 71 72 72 72 72 73 71 70 69 69 69 68 68 69 70 70 68 68 68 69 68 68 67 67 67 58 63 66 66 67 67 66 67
65 66 67 72 72 72 71 70 70 70 71 72 72 73 72 72 72 69 69 68 70 69 69 68 68 68 69 69 68 67 67 67 66 66 54 53 54 64 65 65 65 64 64
65 66 67 72 72 72 71 71 69 68 70 72 72 72 72 72 70 69 68 70 70 70 69 68 68 69 69 69 67 66 65 66 64 59 58 59 58 62 63 63 63 64 64
65 66 70 72 72 72 71 71 69 68 69 70 71 72 72 72 69 68 70 70 70 70 67 69 70 70 71 68 67 64 65 64 64 59 60 61 61 63 64 63 63 63 63
65 66 68 72 72 71 72 71 70 68 67 69 70 71 71 71 68 68 68 69 69 69 68 69 70 69 69 68 65 64 64 62 58 60 61 62 63 64 63 63 63 63 63
64 66 67 70 72 72 72 71 70 69 68 69 70 71 71 70 68 67 67 68 69 68 68 68 67 68 69 67 65 64 63 63 57 59 61 61 66 65 64 63 63 63 62
67 66 66 67 68 71 71 70 69 69 69 69 69 70 70 69 68 66 67 68 68 67 67 67 66 66 66 66 64 64 63 61 55 56 56 59 66 64 63 63 62 62 62
66 67 66 67 66 65 68 70 69 68 69 69 69 68 68 68 68 68 66 66 68 68 67 67 66 65 64 63 61 62 63 62 54 56 56 58 65 63 63 62 62 61 61
63 63 68 67 65 63 66 68 69 68 68 67 66 67 65 64 63 64 65 66 68 68 67 66 66 64 63 63 62 60 59 52 52 53 53 59 62 63 64 63 61 60 60
59 60 65 68 67 63 63 68 67 65 63 61 62 63 63 61 61 60 64 67 68 68 67 65 64 63 60 54 55 58 52 52 50 51 51 55 58 61 60 65 63 61 60
59 62 63 66 67 63 60 67 69 67 64 61 60 61 61 62 63 62 63 64 63 64 60 61 61 55 53 52 53 51 52 51 49 50 51 55 59 60 60 61 65 64 62
59 62 64 66 67 65 61 61 67 67 66 64 61 59 60 61 62 60 60 60 60 59 58 57 55 54 53 54 52 51 51 51 52 53 54 56 57 60 61 61 62 66 66
60 61 63 64 64 66 64 59 63 67 67 65 63 60 58 59 61 59 59 59 58 58 56 55 54 53 52 54 56 56 55 56 56 56 57 57 57 59 61 62 62 63 66
59 60 62 62 63 64 66 62 59 63 67 66 64 63 61 60 59 59 57 58 58 58 56 54 53 54 55 57 57 57 58 58 58 58 58 59 60 60 62 63 63 62 63
55 57 60 62 62 61 65 65 60 61 63 66 66 65 63 63 61 60 59 60 60 60 57 56 54 58 59 58 57 57 58 59 58 59 59 59 60 60 61 63 64 64 63
54 57 60 60 61 59 65 65 63 63 63 63 65 66 65 64 63 62 61 61 61 59 59 58 58 58 57 56 56 58 58 59 59 58 58 58 58 59 61 63 63 64 64
56 57 58 59 59 62 65 64 63 64 65 66 64 64 66 66 64 62 60 60 61 59 59 58 59 57 56 55 56 57 59 59 58 57 56 57 59 59 59 61 62 62 63
58 57 57 57 60 62 64 65 65 63 62 64 65 65 65 65 65 63 60 60 60 60 58 58 57 57 55 56 57 57 58 58 58 58 57 56 57 58 58 59 60 60 61
59 57 57 57 60 65 66 65 64 64 64 64 65 64 63 62 61 62 59 60 60 59 59 58 57 56 57 59 60 59 56 57 57 56 56 55 55 55 57 58 60 59 59
59 60 58 61 63 61 63 64 64 64 65 65 66 66 65 64 63 63 62 61 60 60 61 59 58 58 59 61 59 59 53 53 54 54 55 55 55 55 56 56 57 58 59
60 61 61 61 62 63 64 64 63 64 63 62 63 64 65 65 65 65 65 65 64 64 64 63 61 61 62 62 62 57 53 50 53 53 55 54 54 54 55 55 55 56 57
59 61 61 62 62 62 63 62 61 61 60 62 61 64 64 64 65 65 65 65 64 64 63 63 64 64 63 60 62 61 59 56 52 48 52 53 53 50 52 53 53 53 54
58 61 60 61 62 62 62 63 62 60 61 62 61 63 63 63 64 64 64 64 64 64 63 62 62 61 61 60 59 59 59 59 59 56 44 45 50 50 51 51 52 52 52
48 50 52 57 60 62 62 62 62 61 61 60 60 61 61 63 63 63 64 64 63 62 61 60 60 59 60 59 60 60 59 54 51 52 50 46 47 48 51 51 51 51 52

GFSSE_sfc_dewp_087.txt.gz
Dewpoint
64 69 73 73 71 71 70 70 69 70 73 73 72 72 72 72 72 72 71 70 71 69 69 70 71 71 71 71 70 70 71 70 71 71 71 70 68 68 68 69 70 66 70
63 68 73 73 71 71 70 70 71 71 73 73 72 72 72 72 72 72 70 69 68 68 70 71 70 71 70 68 70 69 70 69 69 70 69 68 69 68 67 68 69 67 69
63 67 70 73 72 72 71 70 71 71 72 73 73 73 72 72 72 71 70 69 68 70 71 70 69 68 68 68 69 69 69 68 66 67 67 59 63 67 66 67 68 68 68
64 68 68 73 73 72 71 71 71 70 71 72 72 73 73 72 71 70 69 69 70 70 70 70 69 67 68 68 68 67 67 65 64 65 54 52 55 65 65 65 65 65 66
66 67 68 72 72 72 71 70 70 71 71 72 72 72 73 72 70 69 70 70 70 70 70 69 69 69 69 67 66 66 66 62 64 61 58 59 60 63 64 64 63 64 65
65 65 71 72 72 72 72 71 69 70 71 72 72 72 72 72 70 69 70 70 70 68 68 68 69 69 69 67 64 65 63 62 65 59 59 62 61 64 64 64 63 63 63
64 66 69 72 72 72 72 71 70 69 70 71 71 71 71 71 69 69 70 70 69 69 69 70 70 70 68 66 64 64 63 62 58 60 60 62 63 64 64 64 63 63 63
65 66 67 70 71 71 72 71 70 69 69 70 71 71 71 70 68 69 69 69 69 68 69 70 69 69 68 65 64 63 62 63 57 59 61 62 65 64 64 63 63 63 63
67 67 68 67 68 71 71 70 70 69 69 70 70 71 70 69 68 67 69 70 69 67 68 68 68 69 68 65 64 63 62 62 56 56 57 61 66 64 64 63 63 62 62
64 63 62 68 66 62 68 69 69 69 70 69 70 70 69 68 67 68 68 69 69 68 68 67 66 65 65 63 62 64 64 63 53 55 56 62 65 64 63 63 62 62 62
65 64 63 63 67 61 65 68 68 68 68 68 68 67 66 65 64 64 65 68 69 69 68 67 66 65 65 64 62 62 63 53 52 52 53 64 65 64 64 63 62 61 60
62 63 63 64 62 65 64 67 64 62 62 60 63 64 64 63 62 60 64 67 68 68 68 66 65 64 62 55 56 59 53 51 50 52 52 60 58 62 62 65 63 62 60
62 62 63 62 62 63 65 69 68 61 59 58 57 62 62 60 61 62 64 64 65 65 62 63 62 57 54 52 52 50 51 51 49 51 54 60 58 60 61 62 65 65 63
60 61 61 62 63 65 61 68 68 67 59 57 58 58 61 60 62 60 61 62 60 60 57 58 56 54 52 51 50 50 50 50 50 52 54 58 59 59 61 61 62 66 66
57 60 60 63 63 64 64 61 67 67 63 59 58 59 59 60 62 60 59 58 58 57 56 56 54 52 51 51 51 52 51 52 54 55 56 59 60 60 61 62 62 63 65
55 58 60 63 62 63 65 62 61 67 67 63 60 58 57 59 60 60 58 58 57 56 55 54 53 52 50 51 54 55 55 57 57 57 59 58 61 61 62 63 64 64 63
56 57 59 61 62 62 63 65 60 62 67 67 62 59 57 57 57 56 56 56 57 57 55 54 51 51 53 54 55 55 56 57 57 57 58 59 61 61 63 64 65 65 65
60 57 59 60 62 63 62 62 64 60 63 66 67 63 60 60 59 59 58 59 59 59 58 55 54 53 56 56 55 55 56 58 57 57 58 58 59 58 62 64 65 64 65
60 56 58 60 61 61 61 62 64 61 60 61 65 66 65 62 62 61 62 62 60 61 57 57 57 56 56 56 55 55 57 58 57 56 55 56 57 59 60 63 63 63 63
59 58 57 59 60 60 60 64 65 63 61 63 63 62 64 65 65 64 61 59 60 61 58 58 56 57 56 55 53 55 58 59 59 57 55 55 56 58 57 58 60 60 62
60 60 59 59 59 60 61 63 63 62 61 62 64 65 65 65 65 64 63 59 60 61 60 58 57 57 57 57 57 57 58 57 56 56 56 55 55 55 55 58 59 60 61
57 59 60 59 60 61 61 62 63 64 65 65 66 65 64 63 63 63 63 61 61 62 61 60 59 58 57 59 60 58 56 56 55 55 54 54 54 55 55 56 56 57 59
56 60 60 60 60 61 62 62 63 62 63 63 64 65 64 64 65 65 64 65 65 64 63 64 63 59 59 62 62 59 54 52 53 54 55 55 53 53 54 55 54 56 57
57 59 61 59 62 62 62 62 61 61 60 62 63 64 65 64 64 65 65 65 65 65 63 63 63 64 63 61 63 62 59 58 53 50 54 52 53 49 51 53 54 54 55
58 58 59 60 61 62 62 62 61 60 61 62 62 61 62 64 64 64 65 65 64 64 63 63 63 62 61 60 59 58 58 58 58 55 49 49 52 51 52 52 51 52 53
53 54 55 57 59 61 61 62 61 61 60 60 61 61 61 62 63 63 64 64 64 63 63 62 60 60 60 60 59 58 57 55 56 55 52 48 48 50 51 52 52 52 53

GFSSE_sfc_dewp_090.txt.gz
Dewpoint
67 71 73 72 72 71 70 70 70 73 74 74 72 72 73 73 72 72 71 69 70 70 70 71 71 71 71 71 70 71 71 71 70 70 70 70 69 69 70 69 70 68 69
68 70 73 73 71 71 70 70 71 72 74 73 73 72 72 73 73 72 71 69 70 70 71 71 71 71 70 69 69 70 69 69 69 69 68 68 69 68 68 69 70 68 69
67 69 71 73 72 72 72 71 72 72 73 73 73 72 72 73 72 71 70 70 71 71 71 70 69 67 69 69 69 69 68 67 68 69 68 64 65 67 67 67 68 68 68
67 69 69 73 72 72 72 71 71 71 72 73 73 73 74 73 72 71 70 70 72 72 71 69 68 68 68 68 68 68 66 63 64 64 56 57 60 65 65 65 66 67 66
67 67 70 72 73 72 71 71 71 71 71 72 72 72 73 72 72 70 70 71 71 71 71 69 67 67 68 67 66 66 62 62 64 62 60 60 61 63 65 65 64 64 64
67 68 72 72 72 72 72 71 70 71 70 72 72 72 73 72 71 71 71 70 70 69 70 69 69 69 67 65 65 64 62 63 65 59 61 64 62 64 65 64 64 63 63
66 70 70 72 72 72 72 71 71 70 71 71 72 71 72 71 70 70 70 67 67 69 69 69 69 69 67 64 64 63 62 64 61 60 62 63 63 64 64 64 64 64 64
67 68 68 71 72 72 72 71 70 70 71 72 71 71 71 71 70 70 69 65 66 69 70 70 70 68 66 64 63 62 63 63 59 60 63 64 66 65 64 64 63 63 63
67 67 65 68 70 70 71 71 70 70 70 71 71 71 70 70 70 67 66 68 69 69 70 70 69 68 66 65 63 63 63 62 58 58 62 64 66 64 64 63 63 63 63
65 65 66 65 67 67 70 70 69 69 70 70 70 69 69 67 66 65 68 68 68 69 69 69 69 68 67 65 64 64 63 62 56 55 63 65 66 64 63 63 62 62 62
65 65 65 65 64 62 67 68 68 69 69 69 69 68 66 64 63 63 66 67 68 69 69 68 66 66 65 64 63 63 63 57 54 54 59 67 66 64 63 62 62 61 61
64 64 64 64 65 64 63 67 65 66 66 67 67 67 66 63 63 63 66 67 68 68 68 67 67 66 63 58 58 60 55 54 50 53 56 64 63 63 64 65 63 62 60
62 62 63 64 65 64 63 63 66 62 63 62 65 66 66 63 62 64 64 65 66 65 65 65 64 61 58 56 56 54 54 51 50 51 57 61 60 61 61 63 65 65 63
61 62 62 62 62 62 63 64 65 62 59 59 62 63 64 61 61 63 63 63 64 64 62 62 61 58 55 53 52 51 51 50 49 52 56 60 62 60 61 62 62 65 66
59 61 61 62 63 64 65 65 66 65 58 58 59 60 62 61 61 61 61 62 61 60 59 59 57 55 52 51 51 50 50 49 51 55 52 60 61 62 61 62 63 63 63
58 58 60 62 62 64 64 64 64 65 65 58 58 59 60 61 60 60 59 59 59 57 57 56 54 53 52 51 51 53 53 55 56 56 57 56 62 62 63 63 63 64 64
57 57 59 62 62 62 62 63 64 64 64 64 58 58 58 60 60 59 57 57 57 56 55 54 53 52 52 52 53 55 56 56 57 57 58 58 59 62 64 65 65 65 65
59 58 59 61 61 61 62 63 63 63 64 64 63 57 57 57 57 57 56 56 57 57 57 56 54 52 54 56 56 56 55 57 57 57 58 58 60 59 62 65 66 65 65
59 59 59 60 62 62 62 62 63 63 62 65 64 64 59 60 59 59 59 59 60 60 58 57 55 54 55 56 56 55 56 57 57 57 56 56 56 58 59 63 63 64 64
60 60 60 60 61 61 62 61 63 64 61 62 64 65 64 62 62 62 61 61 60 61 58 58 57 57 57 56 54 53 56 58 58 58 56 55 55 55 55 56 60 60 62
60 60 61 60 60 61 60 60 61 61 63 63 64 64 64 65 65 65 64 60 59 61 59 58 57 56 57 56 55 56 57 58 58 57 56 54 53 54 54 57 58 58 61
57 60 60 61 61 61 60 60 62 62 63 63 64 65 65 64 64 64 64 62 59 61 61 60 58 57 57 57 57 57 55 56 56 55 53 53 52 52 54 55 54 56 58
55 56 60 61 61 61 61 62 62 62 63 63 63 63 63 64 64 63 63 63 63 63 62 62 62 62 59 59 59 58 55 52 53 54 53 53 52 51 52 54 54 54 55
56 57 59 60 61 61 62 61 60 59 59 61 62 63 64 64 64 63 63 63 63 63 62 62 62 62 61 61 61 62 59 57 52 51 53 51 51 49 49 51 52 53 54
56 55 58 60 60 61 61 61 61 60 61 61 61 61 60 62 63 63 63 63 63 63 62 62 62 62 62 60 60 58 58 57 57 54 49 48 50 50 51 50 50 51 52
53 53 55 55 58 59 60 61 61 60 60 60 60 60 60 61 62 62 63 63 64 63 62 62 62 61 61 60 59 59 57 55 55 54 53 53 50 48 50 50 50 51 52

GFSSE_sfc_dewp_093.txt.gz
Dewpoint
69 71 74 72 71 71 71 72 74 74 74 74 73 73 73 73 73 72 70 70 71 71 71 71 71 71 71 71 71 70 69 69 69 69 70 70 70 70 70 70 70 68 69
69 71 73 73 71 71 71 72 73 74 74 74 73 73 72 73 73 71 70 69 70 71 72 72 71 71 71 70 70 70 69 69 68 69 68 69 69 69 69 69 70 68 69
69 71 71 73 73 72 72 71 72 74 73 73 74 73 73 73 72 71 70 70 71 72 72 71 71 69 69 68 69 68 68 68 68 69 68 64 65 67 67 67 68 67 68
70 70 71 73 73 72 72 70 71 72 73 73 72 74 74 73 72 71 70 71 72 72 71 70 69 68 68 68 69 67 65 63 65 63 58 60 62 65 65 67 67 66 67
69 70 71 73 73 72 71 71 70 70 72 73 73 73 73 73 72 71 71 72 72 71 70 69 68 68 68 68 67 65 63 65 66 62 60 61 62 65 65 64 64 64 64
68 69 72 73 73 72 72 72 71 70 70 72 73 72 73 72 72 72 71 72 71 70 69 68 68 68 67 66 65 63 63 65 63 62 63 64 62 65 65 64 64 64 64
68 70 71 73 73 72 72 72 71 71 71 72 72 72 72 72 72 71 71 71 70 70 70 69 69 67 65 65 64 64 63 64 60 62 62 62 62 65 64 64 64 64 63
69 70 70 72 72 72 72 71 71 71 72 72 72 72 72 72 71 71 70 68 65 67 69 69 69 67 64 64 63 63 63 63 62 63 63 63 66 65 64 64 64 64 63
68 68 69 70 71 71 71 71 70 71 71 72 71 71 70 71 70 69 68 65 68 69 71 71 69 67 65 63 62 62 62 62 58 63 63 64 67 65 64 64 64 64 63
66 66 66 67 66 67 70 70 69 69 69 70 70 69 69 69 68 65 67 67 65 71 71 70 69 67 66 65 64 64 63 61 55 62 63 64 65 64 64 63 63 63 62
65 65 66 65 63 64 66 68 68 68 68 69 69 68 67 65 64 63 66 66 68 69 69 70 69 69 67 64 64 63 63 56 55 60 63 67 65 64 63 63 62 62 62
63 64 64 64 64 64 64 63 65 67 67 67 67 67 66 63 63 62 65 65 68 68 68 68 67 66 63 59 58 60 55 53 52 57 61 67 66 65 65 64 63 62 61
64 64 64 64 64 63 63 63 64 65 65 66 66 67 66 64 63 63 66 65 65 66 66 66 66 63 59 57 56 55 53 52 51 53 59 64 64 64 63 65 66 64 63
61 62 63 63 62 62 64 64 63 63 63 63 66 67 66 64 62 64 65 65 64 64 63 63 62 60 58 56 55 54 52 51 50 52 57 62 63 62 62 63 63 65 66
60 61 62 61 61 62 63 63 62 64 65 62 65 65 66 65 63 63 63 63 63 63 62 62 60 58 56 54 51 52 50 50 49 52 53 61 62 64 62 63 63 63 64
60 60 61 61 62 62 62 62 62 64 65 60 62 63 63 62 62 62 62 62 62 61 61 60 58 57 54 52 51 51 52 51 51 54 51 56 62 63 64 63 64 64 64
59 60 61 61 62 63 62 62 62 63 66 64 59 60 61 61 61 61 61 61 61 59 57 57 55 53 52 51 51 52 54 54 56 57 57 54 58 62 64 65 65 65 65
58 59 62 62 61 61 62 62 61 63 65 65 65 60 59 61 60 59 58 59 58 57 55 54 53 52 52 53 54 55 55 55 56 57 57 58 57 58 62 65 66 67 66
58 59 61 61 61 60 61 61 63 61 64 64 64 63 58 59 59 58 57 57 56 57 57 56 54 53 52 55 57 56 56 56 57 57 57 58 58 59 60 62 63 64 65
58 59 59 61 61 61 62 62 63 62 63 64 64 64 61 58 58 57 58 57 58 59 58 57 55 55 54 55 55 54 55 57 58 58 57 56 56 57 57 59 60 60 61
58 59 59 59 61 61 61 60 61 61 62 62 64 63 62 62 60 60 61 60 60 60 58 57 57 56 57 57 55 55 55 57 57 58 57 55 54 54 56 57 57 59 61
57 58 59 60 60 61 61 61 61 60 61 61 62 62 63 61 63 64 62 61 59 61 59 58 57 57 57 57 55 56 54 55 56 56 56 53 53 53 55 55 55 57 59
54 56 59 60 60 61 61 61 61 61 60 59 60 61 63 64 63 63 64 63 62 62 61 61 61 59 57 58 58 58 55 53 54 54 53 53 51 51 53 54 55 55 56
53 55 58 59 61 61 61 60 60 59 58 60 62 62 62 61 63 63 63 63 63 63 62 62 62 61 61 59 61 62 60 58 54 51 54 53 51 49 50 52 53 53 54
55 54 57 59 59 61 61 61 60 59 60 61 61 61 61 61 62 63 63 63 62 62 62 62 61 61 61 60 59 59 58 57 57 54 51 49 50 50 50 50 51 52 53
53 52 54 55 56 59 59 60 60 60 59 59 60 60 60 61 61 61 62 62 62 62 61 61 61 61 61 61 59 58 57 56 55 54 53 53 52 54 51 50 50 51 52

GFSSE_sfc_dewp_096.txt.gz
Dewpoint
69 71 74 72 72 73 74 74 74 74 74 73 73 73 73 73 72 70 70 71 71 70 68 69 70 71 71 71 69 69 69 69 69 69 70 70 70 69 70 70 70 68 69
69 71 73 72 71 72 73 74 75 74 74 74 73 72 71 73 72 70 70 71 71 71 71 71 71 71 71 71 69 68 68 68 68 68 69 69 69 69 69 69 70 69 70
70 71 71 73 73 72 72 73 74 74 74 74 74 72 72 73 72 70 69 71 71 72 72 71 71 70 70 69 69 68 68 67 67 68 67 64 66 67 68 67 67 68 68
70 71 71 73 73 72 71 71 73 74 74 73 74 73 73 73 72 71 70 71 72 71 71 71 69 68 69 69 68 67 66 65 66 64 61 62 62 66 66 66 66 67 66
69 70 71 73 73 72 71 71 71 73 73 73 73 73 73 72 72 71 71 72 72 71 71 70 67 68 69 68 66 64 65 66 65 62 61 62 63 64 64 64 64 64 64
70 70 72 73 73 72 72 71 70 71 72 73 73 72 73 72 71 72 72 72 71 70 70 69 67 68 68 67 64 65 65 65 64 62 63 64 62 65 65 64 64 64 64
69 70 71 73 73 73 72 72 71 70 71 72 73 72 72 72 71 72 72 71 70 70 69 68 68 67 66 66 64 64 64 65 62 62 62 62 63 65 65 65 64 64 64
69 70 71 72 72 72 72 72 72 71 71 72 72 72 72 72 71 71 71 71 70 70 68 68 67 66 65 65 65 64 64 65 62 62 63 63 66 64 65 64 64 64 64
69 70 70 71 71 71 72 71 71 71 71 72 72 72 71 71 70 71 70 70 68 67 70 69 67 65 64 64 64 63 63 64 62 63 63 64 67 65 64 64 64 64 63
65 67 68 69 70 70 69 70 69 69 70 71 70 70 69 69 69 69 68 67 68 69 70 70 68 65 65 64 63 62 62 62 61 62 63 64 66 64 64 64 64 63 63
65 65 65 65 65 67 68 68 68 68 68 68 69 68 68 68 66 65 65 66 67 70 71 70 68 67 66 65 63 62 60 55 58 62 63 67 66 64 64 63 63 62 62
64 65 65 64 63 64 66 65 66 67 67 67 67 67 66 66 63 62 64 65 67 69 69 70 69 68 64 59 58 60 55 53 53 60 63 67 65 65 64 63 63 62 62
63 65 64 64 64 63 63 63 63 64 65 66 66 66 65 65 64 64 64 64 66 65 66 67 66 63 58 56 55 54 53 52 52 57 60 67 66 65 66 66 65 64 63
61 63 64 64 64 64 64 63 62 62 63 65 66 66 65 65 64 64 64 63 64 66 64 64 63 61 59 57 55 54 52 52 50 53 56 64 66 64 64 64 66 66 66
59 61 63 63 64 63 63 62 62 62 63 62 65 66 65 66 65 65 64 65 63 65 64 62 61 60 57 56 55 54 53 51 50 51 53 61 63 65 65 64 64 64 66
58 60 61 61 61 62 62 61 61 62 64 65 63 65 65 65 65 64 64 63 63 64 63 62 60 59 56 55 54 51 52 50 49 52 51 55 62 63 65 64 64 65 65
57 60 60 61 61 62 62 62 61 61 62 64 63 65 64 64 65 64 63 62 63 63 62 60 59 58 56 54 51 51 52 52 53 54 52 52 57 61 63 65 65 65 65
58 59 60 61 61 62 61 61 61 62 62 64 64 62 62 62 63 64 63 62 62 62 60 59 58 55 53 52 51 52 53 55 55 56 57 54 55 56 61 64 66 67 66
57 59 60 61 60 61 62 61 61 61 62 63 64 63 59 61 61 62 62 61 60 59 58 56 55 53 52 53 54 55 56 55 56 57 57 57 57 58 59 61 63 64 65
57 58 60 61 61 60 61 61 61 61 62 63 63 63 61 60 61 61 60 59 58 58 57 56 54 54 52 53 55 56 56 56 57 57 57 57 58 59 59 59 60 60 61
57 58 59 60 60 60 60 60 60 61 61 61 63 63 63 59 60 60 59 57 58 56 56 56 55 54 55 54 55 55 55 55 57 58 58 57 56 57 57 58 58 59 60
56 57 58 59 60 60 60 59 60 61 61 62 62 61 62 62 60 60 59 57 57 58 58 57 57 57 56 57 55 55 53 55 57 57 57 55 54 54 56 56 56 58 58
55 56 57 58 59 59 60 59 59 60 61 60 61 62 62 62 62 61 60 60 60 60 59 59 58 57 56 58 57 57 54 53 55 55 55 54 53 53 55 54 56 57 56
52 55 57 58 59 59 59 59 59 58 58 59 59 61 62 62 62 62 62 62 61 61 61 60 60 59 59 58 59 60 58 56 52 51 54 53 52 51 54 54 54 54 55
55 54 56 56 58 60 61 61 60 59 59 60 61 61 61 62 62 62 63 63 61 61 61 61 61 60 60 59 59 59 58 58 57 54 52 52 53 51 52 52 53 53 54
53 53 54 55 55 57 59 60 60 59 59 59 60 59 60 61 61 62 62 62 62 62 61 61 60 60 60 59 60 59 58 57 56 54 53 53 53 55 55 51 52 52 53

GFSSE_sfc_dewp_099.txt.gz
Dewpoint
68 71 74 73 74 74 74 74 74 74 74 73 72 72 73 72 71 69 70 69 69 68 68 69 71 71 69 69 69 68 69 69 70 70 70 70 69 69 70 70 70 68 70
69 72 73 73 73 74 75 74 74 74 74 74 72 71 72 72 70 69 71 70 69 69 68 70 71 71 70 68 68 68 68 69 68 68 69 69 70 69 69 69 70 68 70
70 71 71 73 73 74 74 75 75 75 74 74 73 72 72 72 70 70 71 71 71 71 71 71 71 71 69 68 68 67 67 68 68 67 67 65 66 68 68 67 68 67 67
70 71 71 73 73 72 73 74 74 74 74 74 73 73 73 72 71 70 71 71 72 71 71 71 71 70 69 69 68 67 66 66 65 64 62 63 63 66 66 66 66 66 66
70 70 70 73 73 72 71 73 73 73 73 73 73 73 73 72 72 70 71 72 72 72 71 70 68 69 68 67 65 64 64 64 64 63 62 62 62 63 64 64 64 64 64
69 70 72 73 73 72 72 72 72 72 72 73 73 72 72 72 72 71 72 72 72 71 70 69 69 69 68 67 66 65 65 65 64 62 63 64 62 64 64 64 64 64 64
69 70 72 73 73 72 72 71 71 72 72 72 72 71 71 72 72 72 72 71 71 71 70 68 68 69 67 67 66 65 66 65 62 61 61 62 63 65 65 64 64 64 64
69 71 71 72 72 72 72 72 71 71 71 72 73 72 72 72 72 71 71 71 70 69 68 68 68 67 66 65 65 65 66 64 62 62 62 62 66 65 65 64 64 64 64
68 69 70 71 71 72 72 72 72 72 71 72 72 72 72 71 71 71 71 71 70 69 69 68 67 65 65 66 64 64 66 65 61 62 63 63 67 65 65 64 64 64 63
67 67 67 68 69 69 70 70 70 70 71 72 71 71 70 69 69 69 70 70 70 70 70 69 66 65 65 66 64 64 64 65 61 62 63 63 66 64 64 64 63 63 63
65 67 66 67 68 68 68 68 68 68 68 68 69 68 68 68 67 67 67 68 68 68 69 69 67 66 66 64 63 62 60 58 59 62 62 65 66 64 64 63 63 63 62
63 65 64 64 65 67 68 66 66 67 65 66 67 67 67 67 66 65 64 65 67 68 70 69 68 67 65 60 59 60 55 54 58 61 62 67 65 64 64 63 63 62 62
61 64 64 63 64 65 65 64 64 65 65 66 65 65 65 66 64 63 63 63 64 66 68 68 68 64 59 57 55 55 53 52 53 58 61 66 66 65 65 64 64 63 62
60 63 64 63 63 64 65 64 63 63 64 65 65 65 65 64 65 65 63 63 64 66 66 65 63 62 59 55 54 53 52 52 52 53 58 64 67 65 65 66 66 66 65
58 61 63 64 63 64 64 63 63 61 61 62 65 65 65 65 64 65 65 64 63 65 65 64 62 60 58 56 56 55 54 52 51 51 54 60 65 67 66 64 65 66 66
54 59 61 63 63 63 63 63 62 63 62 62 62 65 65 65 64 65 65 64 63 64 64 64 62 60 58 56 55 54 53 53 51 50 52 54 62 64 66 65 65 65 65
46 58 60 61 62 62 62 62 62 62 61 63 63 63 65 65 64 64 64 64 64 64 63 62 62 60 57 55 54 53 52 51 50 50 51 51 55 61 63 65 65 65 65
48 57 60 61 61 61 61 61 61 61 61 62 62 63 64 65 64 64 64 64 64 64 63 62 60 59 57 55 53 52 51 52 53 54 54 51 52 54 60 64 66 67 66
44 57 59 60 60 60 60 60 61 60 61 61 62 62 62 64 64 62 63 63 62 63 62 61 59 58 55 54 53 52 52 54 55 55 56 56 54 55 56 60 63 64 65
46 57 58 60 59 60 60 62 60 60 61 61 62 62 62 61 63 63 61 61 62 61 61 59 59 56 54 54 52 53 55 55 56 56 56 57 58 57 57 58 59 61 63
49 56 58 60 59 59 59 60 61 60 60 60 62 63 62 62 61 62 62 62 62 60 59 58 57 54 54 53 54 54 55 55 55 56 57 57 57 58 59 59 59 59 61
54 56 58 59 60 59 59 59 60 60 61 60 61 61 62 63 61 62 61 60 60 59 58 57 56 55 54 55 53 54 53 54 56 56 57 57 56 56 57 57 58 58 58
55 56 57 58 59 59 59 59 59 59 59 60 61 61 61 62 63 61 61 61 59 59 58 58 57 56 55 57 57 56 53 52 54 55 55 56 54 54 56 56 56 58 57
55 57 58 59 59 59 59 60 58 57 57 58 60 61 61 62 63 63 62 61 60 59 59 59 59 58 58 56 57 59 58 56 53 52 53 53 52 52 54 55 55 56 56
53 53 55 56 58 59 60 59 59 58 58 58 58 59 60 61 62 63 63 62 61 60 59 60 59 59 59 57 57 58 57 57 56 54 52 53 54 53 54 54 54 55 54
53 51 54 53 55 56 57 58 59 60 59 59 59 59 59 60 61 61 62 62 61 61 60 59 59 59 59 59 59 58 57 56 56 54 54 53 53 54 54 53 53 54 54

GFSSE_sfc_dewp_102.txt.gz
Dewpoint
66 70 74 74 74 74 74 73 74 74 74 74 73 73 73 72 71 70 68 69 68 68 70 71 70 69 68 69 68 68 67 70 70 70 70 70 70 69 69 70 70 68 70
69 72 74 73 74 74 74 74 74 74 74 73 73 72 72 72 70 69 69 69 68 68 70 71 71 70 68 68 68 68 69 69 69 69 69 69 70 69 68 69 70 68 69
70 72 72 73 74 74 74 74 74 74 74 73 71 70 71 71 70 70 70 69 69 69 71 71 71 69 68 67 68 68 68 68 68 68 67 66 67 68 66 67 68 66 65
70 71 71 73 74 74 74 74 74 73 74 74 73 72 73 71 70 71 71 71 72 71 71 71 70 69 68 68 67 67 67 66 66 65 63 63 64 66 66 66 66 65 65
70 70 71 73 73 74 73 74 73 73 73 73 73 72 73 72 71 70 71 72 72 72 72 72 70 69 68 68 67 66 65 65 65 63 62 62 62 63 64 64 64 64 64
69 69 72 73 73 73 73 74 73 73 73 73 73 73 72 72 71 70 72 72 72 71 71 70 69 68 68 67 66 65 65 65 63 61 62 64 62 64 65 64 64 64 64
68 70 71 73 73 72 72 73 73 73 73 72 72 72 71 72 72 72 72 72 71 71 70 69 69 68 66 68 66 65 65 65 61 61 61 62 63 65 65 65 64 64 64
68 70 71 72 73 72 72 72 72 73 73 73 72 72 72 72 72 71 71 72 71 70 70 68 68 68 66 66 66 66 66 64 61 61 61 62 66 65 65 65 64 64 64
68 70 70 71 71 72 71 71 71 71 72 73 73 72 72 71 71 71 71 71 71 70 70 69 68 67 66 66 65 68 66 64 60 61 62 63 67 65 65 64 64 63 63
67 67 68 69 70 70 70 70 71 71 71 71 72 71 70 69 70 70 70 70 70 70 70 69 67 66 66 66 65 67 66 65 60 61 62 63 66 65 64 64 64 63 63
65 65 66 67 68 68 69 69 69 69 70 70 70 69 68 68 68 68 68 69 69 70 70 68 67 67 67 66 64 64 65 61 60 61 62 64 66 64 64 64 63 63 62
61 64 66 65 66 67 68 67 66 67 66 66 67 67 67 67 67 67 66 67 69 69 69 69 67 67 65 60 60 61 56 58 58 61 61 65 66 65 64 64 63 63 63
55 62 64 64 65 67 66 64 65 65 64 65 65 65 66 67 65 65 64 66 65 65 67 68 67 63 59 58 56 56 54 54 55 60 62 65 66 65 64 64 64 63 63
48 58 63 64 64 65 66 65 64 64 64 64 65 65 65 64 64 64 63 64 64 67 67 67 65 63 59 56 54 53 53 52 52 53 58 63 67 66 66 65 65 65 65
41 53 62 63 64 64 65 64 64 63 64 64 64 64 64 64 63 65 65 64 64 65 65 65 64 62 59 56 54 53 52 51 51 52 54 59 64 67 67 66 66 67 66
39 47 58 63 63 63 64 64 63 63 63 63 64 64 64 64 63 63 64 64 64 65 64 64 63 61 59 57 55 55 54 54 52 51 51 54 60 65 66 66 65 66 66
38 43 53 62 63 63 62 63 63 63 63 62 62 62 64 64 63 63 63 63 63 65 64 63 63 61 59 57 55 54 54 53 53 51 50 51 53 61 63 64 65 66 66
36 39 53 60 62 62 62 61 62 62 61 62 63 63 63 64 63 63 63 63 64 64 64 63 62 61 59 58 55 54 53 52 51 51 50 51 51 53 59 63 65 67 67
38 39 51 58 60 61 61 61 61 60 61 61 61 62 63 64 64 64 63 63 64 64 64 63 62 61 59 58 55 54 53 52 52 53 54 54 52 53 54 59 62 63 65
39 42 51 58 59 59 60 59 60 59 60 60 60 61 61 63 64 64 62 62 62 60 62 62 62 59 59 58 55 54 53 53 54 55 55 56 56 54 54 55 57 60 62
41 44 52 57 58 59 59 59 59 59 58 58 60 61 62 61 62 63 63 61 62 59 58 60 61 60 57 55 54 54 54 55 55 55 56 57 57 57 58 57 58 59 60
39 46 53 58 59 59 59 58 59 59 59 59 60 61 62 62 61 61 62 62 62 61 60 60 59 58 58 56 53 53 51 53 55 55 56 56 57 57 57 58 58 59 59
51 53 55 57 59 59 58 59 58 58 59 59 60 60 60 61 62 62 62 62 62 61 60 60 60 59 56 56 55 54 52 51 52 55 55 56 56 56 56 57 58 58 58
53 55 57 57 58 58 60 59 58 57 57 57 58 59 60 61 61 62 62 62 61 61 61 60 59 59 57 55 56 56 56 55 53 52 54 54 54 54 55 56 56 57 57
53 54 56 58 58 59 59 59 59 58 58 59 58 57 58 59 61 61 62 62 61 61 60 60 59 59 58 57 56 56 56 56 55 53 52 52 53 53 54 55 56 57 57
52 52 52 54 54 54 57 57 56 57 57 58 58 58 59 59 60 61 61 62 62 62 61 60 60 59 58 58 58 57 56 55 55 54 52 52 52 53 53 55 55 56 56

GFSSE_sfc_dewp_105.txt.gz
Dewpoint
68 72 75 74 74 74 73 73 74 74 74 74 73 73 73 72 71 70 69 69 69 71 71 70 68 69 70 69 69 68 70 70 70 70 71 71 70 69 70 70 70 68 69
68 72 74 74 74 75 74 74 74 74 74 73 73 73 72 72 71 69 69 69 69 71 72 70 69 69 69 69 68 69 70 70 69 69 70 70 70 69 69 69 70 68 68
69 71 71 74 75 74 74 74 74 74 74 74 74 73 72 71 71 69 69 69 69 70 71 71 70 69 69 67 68 68 69 69 68 68 68 66 66 67 66 68 68 66 65
70 71 70 74 75 74 74 74 74 74 74 73 71 71 72 71 70 70 70 69 71 72 71 72 70 69 68 67 68 68 68 67 67 66 64 64 63 66 66 66 65 66 65
71 71 70 74 74 74 74 74 74 74 73 73 73 71 73 71 71 71 71 72 72 72 72 71 70 69 68 67 67 67 66 66 66 64 64 64 63 64 65 65 64 64 64
70 70 71 73 74 74 74 74 74 73 73 73 73 73 72 72 71 72 72 72 71 72 72 70 70 70 69 69 67 66 65 66 65 63 62 63 62 64 65 64 65 65 64
70 70 70 73 73 73 74 73 73 73 73 73 73 72 71 72 72 72 72 72 72 71 71 70 69 68 67 67 66 66 65 65 62 63 63 64 64 65 65 65 65 65 64
69 70 70 72 73 72 73 73 73 72 72 72 73 72 72 71 71 71 72 72 72 71 70 69 68 67 67 67 66 66 66 64 61 62 63 64 66 65 65 65 64 64 64
69 69 70 70 70 72 72 71 72 72 72 72 72 72 72 72 71 71 71 71 71 71 70 70 68 67 67 67 68 67 66 64 60 61 62 63 67 65 65 64 64 63 63
65 68 70 71 70 70 70 70 70 71 71 71 72 71 70 70 70 70 70 70 70 70 70 70 69 67 68 67 68 68 65 64 60 62 62 63 66 65 65 65 64 63 63
57 63 67 69 69 69 69 69 70 70 70 70 70 69 69 70 69 68 67 69 69 70 70 70 69 68 68 66 66 67 65 62 60 61 62 65 66 65 65 64 64 63 63
47 54 63 66 68 69 69 69 69 68 69 69 70 69 70 70 69 67 66 67 69 69 69 69 68 67 66 62 60 64 62 62 61 61 61 64 67 65 65 64 64 63 63
44 52 56 64 65 68 69 69 68 67 68 67 67 68 69 69 69 68 67 67 67 67 68 67 66 64 63 61 59 58 57 61 60 60 62 64 66 66 65 64 64 64 63
42 46 54 64 64 65 68 67 67 66 66 67 67 67 68 69 68 68 66 67 66 66 67 66 65 63 62 59 57 57 55 56 56 57 61 63 65 66 65 65 65 65 64
37 42 46 59 64 64 65 66 65 65 65 64 66 67 67 68 67 67 67 67 67 66 66 66 66 64 60 57 55 54 54 54 53 53 54 59 63 66 67 66 66 66 66
37 40 44 50 62 64 64 64 66 65 64 64 65 66 66 66 66 66 66 66 66 67 66 67 65 64 62 59 56 54 53 53 52 52 53 54 60 64 66 67 66 66 67
35 37 38 43 56 63 63 64 65 64 64 63 63 65 65 66 65 65 65 66 65 66 66 66 66 64 63 60 58 56 55 54 55 54 53 53 54 59 64 64 66 66 66
35 34 37 39 55 62 63 63 64 64 64 64 63 63 63 64 65 65 65 65 65 65 66 66 64 63 62 61 59 57 55 55 54 54 54 53 53 52 58 63 65 66 67
34 37 39 45 53 60 62 63 63 63 63 63 63 63 62 62 63 64 65 65 65 65 65 65 64 63 62 60 60 59 57 55 53 53 53 53 53 53 53 57 62 63 65
37 40 40 43 51 60 61 62 62 62 62 62 62 62 62 62 63 64 64 64 65 64 64 64 63 62 61 61 59 57 57 56 55 55 54 53 54 55 54 55 56 58 61
40 40 42 46 53 60 61 61 60 59 60 61 62 61 61 62 62 63 64 63 64 63 62 62 63 61 60 59 59 58 57 57 55 55 55 54 55 56 57 56 56 57 58
40 41 43 46 58 60 61 60 60 60 61 61 61 61 61 62 62 62 63 63 62 63 61 59 60 59 60 58 57 55 53 52 55 56 56 55 55 56 57 58 58 58 59
42 46 46 48 56 59 60 60 60 60 61 60 61 61 61 62 63 62 62 63 63 63 62 60 59 57 56 58 58 56 53 50 52 55 55 55 56 57 57 58 59 59 59
50 53 55 56 58 59 60 60 58 58 57 59 60 61 61 61 61 63 63 62 63 63 62 61 61 60 59 56 57 58 57 57 52 50 55 56 56 56 57 58 58 58 59
52 53 57 59 59 59 60 59 59 57 58 59 59 59 59 60 61 62 63 62 62 63 62 62 61 60 60 59 57 56 56 56 58 56 54 56 55 55 57 58 58 59 59
49 52 53 54 54 55 56 56 56 56 56 58 59 58 59 60 60 60 61 62 62 62 62 61 61 61 60 59 59 57 55 54 55 56 55 55 55 56 56 56 57 59 59

GFSSE_sfc_dewp_108.txt.gz
Dewpoint
67 69 74 74 73 73 73 73 74 74 74 74 74 73 73 72 71 70 69 68 69 69 67 67 67 70 71 69 69 70 70 70 71 71 71 71 70 69 70 70 69 67 68
68 69 74 74 74 74 74 74 75 75 74 74 74 73 73 71 71 69 69 68 69 70 70 69 70 71 70 68 69 70 69 70 70 70 70 70 70 70 69 69 70 67 66
67 68 69 74 75 74 75 75 74 75 74 74 74 72 72 72 71 69 69 68 70 72 70 70 70 69 69 67 69 69 69 69 69 68 69 64 65 67 66 67 68 66 66
68 68 68 74 74 74 74 74 74 74 74 74 74 74 73 72 71 69 69 69 70 72 72 72 71 70 69 68 68 69 69 68 67 67 61 60 60 66 66 66 66 65 65
68 69 68 73 73 74 74 74 74 74 74 73 73 72 73 71 71 70 70 71 71 71 72 72 70 70 69 68 68 68 67 66 66 62 59 60 59 64 65 64 64 64 64
68 68 70 73 73 73 73 73 73 73 73 73 73 72 73 71 71 71 72 72 72 71 71 70 69 69 69 68 68 66 66 66 65 57 57 60 58 64 64 64 65 65 64
68 68 67 72 72 73 73 73 72 73 72 72 72 72 71 71 72 71 71 71 71 71 71 70 69 68 68 69 67 66 65 65 57 57 58 60 62 65 65 65 65 64 64
68 68 67 70 72 71 72 72 72 73 72 72 72 72 72 71 71 71 72 72 71 71 71 70 69 68 67 67 67 66 65 64 58 57 59 61 66 65 65 64 64 64 64
68 69 67 67 68 71 72 72 72 72 72 72 72 72 72 71 71 71 72 72 72 72 71 70 69 67 67 67 68 67 66 64 56 56 58 60 67 65 65 64 64 63 63
54 65 69 68 66 66 65 71 70 71 71 72 71 71 70 70 71 71 70 71 71 71 71 70 70 68 68 68 69 68 65 64 55 58 58 60 66 65 65 65 64 63 63
45 46 55 68 68 66 65 65 69 70 70 70 70 70 69 67 66 67 67 69 69 70 70 70 70 69 68 67 68 67 65 59 56 55 56 66 67 65 65 65 64 63 63
43 44 46 53 67 68 66 67 66 65 64 63 63 65 66 65 64 64 65 67 69 69 69 70 70 69 67 60 60 66 61 59 57 57 56 66 67 66 65 65 65 64 63
39 43 45 45 62 66 69 69 68 69 69 66 64 66 65 64 65 66 65 67 69 67 67 67 67 64 62 58 57 58 59 59 57 57 59 64 66 66 65 65 65 64 64
31 38 43 45 50 64 66 68 69 68 67 67 65 64 64 64 66 64 63 66 68 68 67 66 64 62 59 59 57 56 56 56 57 56 57 64 65 66 66 66 65 65 65
29 33 37 42 45 56 65 67 68 67 67 66 65 65 64 64 66 65 66 67 67 68 68 68 64 61 58 56 55 55 55 54 54 54 54 62 64 65 66 66 66 66 66
29 32 34 36 40 50 60 65 66 67 66 65 65 65 64 66 66 67 66 66 66 68 66 66 66 65 60 53 51 52 53 53 53 53 53 54 60 63 65 67 67 67 67
30 29 31 32 34 42 55 63 65 66 67 66 65 65 65 63 65 65 66 65 66 66 67 66 66 66 63 58 53 50 50 49 49 50 52 52 55 60 63 64 65 67 67
31 31 31 29 30 39 49 62 64 66 63 63 64 64 65 65 64 64 62 64 64 64 65 65 65 65 65 64 60 57 56 52 51 51 51 52 54 53 58 62 65 66 67
32 33 34 35 33 37 47 59 63 65 63 61 63 64 63 63 61 61 61 61 62 64 64 65 65 65 63 64 62 61 59 56 52 51 51 53 54 54 54 58 62 63 65
35 35 35 34 36 39 50 59 63 64 64 65 63 62 62 61 61 61 61 61 62 63 64 65 64 64 64 64 62 61 60 59 57 53 51 50 53 54 54 55 55 56 61
38 38 37 37 38 39 51 58 60 59 62 63 64 63 63 62 62 61 61 62 62 62 62 63 63 63 62 63 61 60 59 59 58 57 55 52 53 54 54 54 55 55 56
39 39 39 39 41 44 53 59 61 61 61 62 63 62 62 61 61 61 61 61 62 63 62 61 61 61 60 62 59 57 54 53 56 56 55 55 54 55 55 55 56 57 58
47 43 41 41 42 45 52 60 61 61 62 61 61 61 61 61 61 62 61 61 62 62 62 62 61 61 58 58 60 56 54 51 49 52 55 55 54 55 55 55 56 57 58
50 51 51 47 49 48 55 59 59 59 59 59 60 61 61 61 61 62 62 61 61 62 62 63 63 61 60 57 59 59 56 56 53 48 49 52 52 52 53 56 56 57 58
49 51 54 52 53 57 57 58 59 59 59 59 59 59 60 60 60 60 61 61 62 62 62 62 62 62 61 58 57 57 57 56 55 54 52 55 56 55 55 55 57 59 60
48 50 53 53 54 56 56 56 56 56 57 56 56 58 58 59 60 60 60 61 61 61 61 62 62 61 61 60 59 58 56 54 53 52 52 52 53 55 56 56 57 59 61

GFSSE_sfc_dewp_111.txt.gz
Dewpoint
66 70 74 74 72 72 73 73 74 75 74 74 73 73 72 72 71 70 69 67 69 68 67 66 67 69 70 69 70 70 69 71 71 70 71 71 70 69 69 68 70 66 67
67 70 74 74 73 72 73 74 75 75 74 74 73 73 72 71 71 69 68 67 68 68 67 67 69 71 70 70 70 69 70 70 70 71 70 70 70 70 69 69 70 65 66
66 68 69 74 75 74 74 74 75 75 74 74 74 72 73 72 71 69 69 68 69 70 70 69 71 71 69 69 70 69 69 69 69 69 70 66 66 68 67 67 68 66 66
67 68 69 74 74 74 74 74 74 74 74 74 73 73 72 72 71 70 69 68 70 71 71 71 71 71 70 69 68 68 69 68 67 68 62 58 60 66 66 66 66 65 65
67 66 69 73 73 73 73 73 72 73 74 73 73 73 72 72 71 70 69 70 71 71 71 71 71 70 69 68 68 68 67 66 66 64 57 59 60 64 65 64 64 64 65
68 67 71 73 73 73 73 73 73 72 73 72 72 72 73 71 71 71 71 71 72 71 71 71 70 69 69 68 68 67 66 65 65 56 57 59 60 64 64 65 65 65 64
67 69 67 72 71 73 72 72 72 72 72 72 72 71 71 71 71 71 71 72 72 71 71 70 69 68 68 68 67 65 65 66 60 56 56 59 63 65 65 65 64 64 64
67 69 67 70 72 72 72 72 72 72 72 72 72 71 70 71 71 71 71 72 72 70 71 70 69 68 68 68 67 66 66 65 57 56 57 60 66 65 65 64 64 64 63
61 67 69 68 68 71 71 71 71 72 72 72 72 72 71 71 71 71 71 72 72 72 71 71 70 69 68 67 68 68 66 64 59 55 56 60 67 65 65 65 64 63 63
49 52 59 68 69 65 64 70 71 71 71 72 72 71 70 70 70 70 70 70 72 71 71 71 70 69 68 68 69 68 66 64 58 56 57 62 67 65 65 65 64 63 63
47 47 48 52 66 67 66 65 69 70 70 70 70 69 69 67 65 66 67 68 70 71 70 70 69 69 69 68 69 67 65 59 55 55 56 67 66 65 65 65 64 63 63
41 45 45 47 52 64 66 67 65 63 63 62 61 62 65 63 62 62 64 67 70 70 69 70 69 69 67 61 62 66 61 58 56 55 56 67 67 66 65 65 65 64 63
33 38 43 46 48 58 66 69 68 66 67 64 62 61 61 61 64 63 63 66 68 67 69 67 67 65 62 57 57 59 60 58 56 57 60 66 66 67 66 65 65 65 64
30 36 42 43 47 49 63 66 69 68 67 66 65 64 62 62 64 62 62 64 67 67 68 69 68 64 62 59 55 54 55 57 56 56 58 64 66 66 66 66 66 65 65
29 33 34 39 45 48 51 64 67 68 67 66 64 63 61 63 64 64 63 65 66 68 68 68 68 66 61 58 57 54 53 53 54 54 55 63 64 65 66 67 66 66 66
33 33 33 32 37 44 47 55 64 66 66 65 63 63 64 66 66 67 67 68 68 69 68 67 65 66 64 59 56 54 52 53 52 52 53 58 64 65 65 66 67 66 66
29 30 31 33 31 34 43 47 57 64 67 65 63 62 63 63 64 64 66 67 67 68 67 68 67 67 66 64 60 52 50 50 51 51 52 53 57 61 64 64 65 66 67
32 31 30 30 32 30 31 42 51 62 65 66 64 63 63 62 62 64 65 65 65 66 66 65 65 65 65 65 64 60 53 50 49 48 50 51 53 53 60 63 65 65 66
35 35 34 34 34 35 33 35 45 62 63 65 64 62 61 64 64 64 64 63 63 64 64 64 65 65 64 65 64 61 58 55 54 51 49 51 53 54 55 60 62 63 65
38 37 36 36 35 36 37 40 49 63 65 64 60 59 60 62 62 62 64 64 62 63 62 64 64 65 64 63 63 63 63 60 58 57 53 50 51 54 55 56 58 58 61
45 39 38 38 37 38 40 41 51 59 62 64 63 60 60 61 60 62 62 61 62 61 61 61 62 62 63 63 63 62 62 62 60 58 58 55 53 51 54 55 55 56 57
46 47 43 39 38 39 42 43 54 58 61 62 63 63 61 61 61 61 61 62 62 63 61 61 62 61 62 63 60 59 56 57 58 58 58 58 55 53 55 55 54 55 56
46 47 48 47 40 40 42 49 56 60 61 61 62 62 62 62 62 62 61 62 62 63 62 62 62 61 60 61 61 58 55 52 52 55 56 56 55 55 54 54 54 54 56
47 49 51 50 48 45 47 47 55 58 59 61 61 61 62 61 61 62 62 62 62 62 62 62 62 62 61 60 61 60 59 57 51 50 51 54 54 52 52 53 54 55 56
47 49 51 53 51 50 50 53 57 57 58 58 60 60 60 60 61 61 62 62 62 62 62 62 62 62 62 61 60 59 59 58 57 54 51 52 56 55 54 52 54 56 57
45 48 49 51 52 54 54 54 55 54 53 54 55 57 56 56 55 54 55 58 61 61 61 61 61 61 61 61 61 59 57 56 55 54 52 51 50 52 56 55 55 56 58

GFSSE_sfc_dewp_114.txt.gz
Dewpoint
66 70 74 74 73 73 73 73 74 75 75 74 72 72 72 72 71 70 68 68 69 68 66 67 68 70 69 69 70 70 71 71 70 71 71 71 70 69 69 69 69 66 67
67 70 74 75 73 73 73 74 74 75 75 74 73 73 72 71 71 69 67 67 69 68 66 66 68 70 70 70 70 71 70 70 70 71 70 70 70 70 69 69 69 66 66
67 70 70 75 74 74 74 74 73 74 74 74 73 73 72 72 71 69 68 67 68 68 68 67 70 71 69 70 70 68 69 69 70 70 70 66 66 68 68 68 68 66 66
67 70 68 74 74 74 74 74 74 74 74 73 72 72 72 72 71 70 69 68 69 70 71 71 71 71 69 69 68 67 68 68 68 68 66 64 64 67 67 66 65 65 65
67 69 70 73 73 73 73 73 73 74 73 73 73 73 72 71 71 70 69 70 71 71 71 71 72 71 69 70 67 67 67 66 67 65 59 61 63 65 64 64 65 65 65
66 69 70 72 73 73 73 73 73 72 73 73 72 73 72 71 71 71 71 71 71 72 71 71 71 69 70 70 68 67 67 66 66 60 58 62 62 65 65 66 65 65 65
66 68 69 72 72 72 72 72 73 72 72 72 72 72 71 71 71 71 72 72 72 72 71 71 70 69 69 69 68 67 66 66 62 59 55 61 63 65 65 65 65 64 64
62 67 69 70 72 72 72 72 72 72 72 72 72 72 72 71 71 71 71 71 72 72 70 71 70 69 68 68 67 66 67 65 59 57 58 63 67 65 65 65 64 64 64
54 54 61 68 69 70 71 71 72 72 72 72 72 72 71 71 71 71 72 71 71 72 70 71 70 69 68 68 69 68 66 64 60 58 57 64 67 65 65 64 64 64 63
49 51 51 54 66 67 67 70 70 71 71 71 71 71 70 70 70 71 70 70 71 71 71 71 70 70 69 69 69 68 66 63 60 58 57 64 68 66 65 65 64 63 63
47 49 47 49 50 62 66 68 69 69 70 70 70 69 69 69 67 68 68 68 70 71 71 71 70 69 69 68 68 67 65 61 56 56 58 67 67 66 65 65 65 64 63
38 42 46 48 49 49 64 67 67 66 66 66 67 67 68 67 66 64 66 67 69 70 70 70 69 69 68 66 66 67 63 61 59 55 62 68 67 66 66 65 65 65 64
33 38 41 44 47 49 53 65 68 68 68 66 62 61 62 63 63 63 65 66 68 67 69 68 68 67 65 62 62 65 64 61 58 57 63 67 67 66 66 66 65 65 65
32 35 38 41 43 48 51 63 65 67 68 67 66 65 64 62 63 63 63 66 67 67 68 67 67 66 64 61 58 60 61 60 58 57 63 65 67 66 66 66 66 65 65
34 36 38 39 40 44 48 53 64 66 67 67 66 65 63 64 62 63 62 64 67 67 67 67 67 67 65 61 59 55 54 57 56 56 60 63 66 67 66 67 67 66 66
31 33 34 37 38 41 44 47 55 65 66 66 65 64 63 65 64 65 65 66 66 67 67 67 67 66 65 65 59 58 54 53 53 53 55 61 64 65 67 66 67 67 67
33 34 33 32 33 36 36 41 45 58 65 66 65 63 63 63 64 64 65 66 66 67 67 67 66 66 65 64 61 59 56 53 52 52 52 57 61 63 65 65 65 66 67
40 35 36 36 35 34 34 35 40 46 62 65 65 63 62 63 62 63 65 64 66 66 66 66 66 65 65 64 63 62 60 56 50 49 50 51 56 56 62 64 65 66 66
44 42 37 38 38 38 36 37 36 39 60 64 65 64 63 62 63 63 63 63 63 63 64 64 64 64 63 63 64 63 61 56 53 51 50 50 51 53 56 60 62 63 65
45 45 45 40 39 39 40 41 42 48 59 62 64 63 62 62 63 62 62 62 62 62 61 63 63 63 63 63 63 63 62 60 57 55 54 51 50 52 53 55 58 59 62
45 46 46 47 43 41 41 41 40 43 58 60 62 62 61 62 62 62 62 62 60 61 60 62 62 61 62 63 61 61 62 62 62 61 58 56 54 51 52 53 55 57 57
46 47 47 48 49 47 42 43 44 51 57 58 60 62 62 61 62 62 62 61 61 62 61 61 61 61 61 62 59 59 56 58 61 61 60 58 57 56 54 53 54 54 55
44 46 47 49 51 52 43 45 47 52 56 57 58 60 61 61 62 62 61 61 61 61 61 61 61 61 60 60 61 58 55 53 54 58 58 58 57 57 56 54 54 54 54
44 45 48 49 53 53 49 46 46 50 52 54 56 59 61 61 61 62 62 61 61 60 60 60 62 61 60 59 61 61 59 58 52 50 52 56 57 56 56 55 54 53 53
44 46 48 49 50 51 53 51 51 51 52 54 53 56 58 58 58 59 59 61 61 60 59 59 61 60 61 59 59 58 59 59 57 55 53 51 53 54 54 53 53 53 53
43 44 46 46 47 50 51 51 51 52 52 52 51 52 54 53 53 54 56 56 56 56 56 58 59 59 59 60 60 59 58 56 56 56 55 54 53 53 53 54 54 54 55

GFSSE_sfc_dewp_117.txt.gz
Dewpoint
66 69 74 74 73 74 73 74 74 74 74 73 71 72 72 72 71 70 68 69 69 68 67 67 69 70 69 69 70 71 70 69 70 71 71 71 69 70 69 69 68 66 68
66 70 73 74 73 73 73 74 74 74 74 74 73 73 72 72 71 69 67 69 68 67 66 67 69 70 70 70 71 70 70 70 70 71 70 70 70 70 69 68 68 65 66
67 70 71 74 74 74 74 74 73 74 73 73 72 72 72 71 71 68 67 67 69 67 67 67 69 70 70 70 70 69 69 70 69 70 69 66 67 69 68 67 67 66 65
67 70 70 74 74 74 74 74 74 73 73 73 73 72 72 71 71 70 68 67 68 69 70 70 71 71 70 69 68 68 68 68 68 68 66 65 65 67 66 65 65 65 65
67 69 70 72 72 72 72 73 74 74 73 73 73 72 72 71 71 70 70 69 70 71 72 71 71 71 70 69 67 67 67 66 67 64 60 63 64 64 64 65 65 65 65
66 69 71 72 72 72 72 73 73 72 72 72 72 72 72 71 70 71 71 71 71 71 71 72 71 70 70 70 68 67 67 66 66 59 61 65 63 65 66 65 65 65 65
61 67 70 72 72 72 72 72 72 72 72 72 72 72 72 71 71 71 72 71 71 71 71 71 70 70 69 69 68 68 67 66 61 59 58 62 62 65 65 65 65 64 64
52 56 66 70 72 72 72 72 72 72 72 72 72 72 72 71 72 71 72 72 72 72 71 70 71 70 69 69 68 68 67 65 59 58 59 63 67 66 66 65 64 64 64
52 51 52 56 69 70 70 71 71 72 71 71 72 72 71 71 71 71 72 72 72 72 71 70 71 70 69 69 69 68 66 64 60 58 62 64 68 66 66 65 65 64 64
48 49 47 49 51 57 67 70 70 70 71 71 71 71 70 69 70 71 71 71 71 71 71 71 71 70 69 69 69 69 66 64 59 58 58 64 68 66 66 65 65 65 64
42 46 45 47 46 47 53 67 69 69 69 70 70 69 68 69 69 68 68 69 70 71 71 71 71 70 69 68 68 68 66 62 59 56 59 67 67 66 66 65 65 64 64
31 36 42 45 47 48 46 60 67 67 67 68 69 69 68 68 68 67 66 67 69 70 70 71 71 69 68 66 67 67 64 61 59 58 58 68 68 67 66 66 65 65 64
30 35 36 36 40 43 47 51 65 67 67 66 64 65 66 67 67 66 64 65 67 67 68 69 69 67 66 65 65 65 64 61 60 59 60 67 68 66 66 66 66 65 65
35 36 38 39 39 41 49 49 59 64 66 67 66 66 64 63 63 63 63 66 67 67 67 67 67 66 66 65 62 64 64 62 60 59 61 66 68 67 66 67 66 66 66
32 35 36 38 38 39 40 47 50 61 64 66 67 66 65 64 64 63 63 64 67 67 67 67 66 66 65 64 62 59 61 61 60 58 60 64 66 67 67 67 67 67 66
38 38 36 37 36 38 40 40 45 53 63 65 66 66 65 64 64 65 64 65 65 67 67 67 66 66 66 65 62 60 56 58 59 57 59 62 64 66 67 68 67 67 67
43 42 39 37 38 37 36 37 38 44 53 64 65 65 63 64 63 64 64 64 65 66 66 66 65 66 65 65 64 61 59 55 54 54 54 59 62 63 66 67 67 68 68
44 45 45 45 42 38 37 37 36 38 44 56 63 64 63 62 63 63 63 64 65 65 65 65 66 65 65 64 64 62 60 58 55 53 53 56 58 60 63 65 66 67 68
45 45 46 47 47 45 40 39 39 39 39 52 61 63 63 62 62 62 63 63 63 63 63 63 63 63 63 64 64 64 64 62 59 56 52 50 53 57 57 61 63 64 65
45 47 47 47 48 48 48 42 42 45 46 51 58 62 63 63 62 61 62 62 62 61 61 61 62 62 62 62 63 63 63 63 62 58 54 53 51 51 54 55 58 60 62
45 46 46 47 48 49 50 48 41 40 45 50 58 60 61 61 61 61 61 61 61 60 60 60 60 59 59 62 61 61 62 63 62 61 58 56 54 53 52 53 55 56 56
44 44 45 47 49 51 52 52 45 44 49 55 57 58 58 59 61 61 61 61 60 58 59 59 61 61 61 62 59 59 56 58 61 61 61 60 58 57 55 52 53 54 55
42 43 45 47 49 50 51 52 49 48 51 53 54 55 55 57 58 60 61 61 60 60 60 60 60 60 58 59 61 58 55 54 56 59 60 60 60 59 58 57 54 54 54
42 43 44 46 48 48 50 51 49 46 48 51 52 54 56 56 56 56 59 61 61 61 59 59 60 59 58 57 58 60 60 56 53 52 55 58 59 58 58 57 57 55 54
42 43 44 45 46 48 49 49 50 50 51 51 51 52 53 52 52 51 53 59 61 61 60 59 59 59 59 59 59 56 58 59 59 56 54 55 53 56 57 57 57 56 55
42 43 42 42 41 45 48 47 47 48 48 47 48 48 50 49 49 48 49 52 53 55 55 56 57 56 56 59 59 58 58 56 56 56 55 55 54 54 54 54 55 55 55